<?xml version="1.0" encoding="UTF-8" standalone="no" ?>
<gpx xmlns="http://www.topografix.com/GPX/1/1" xmlns:xsi="http://www.w3.org/2001/XMLSchema-instance" xsi:schemaLocation="http://www.topografix.com/GPX/1/1 http://www.topografix.com/GPX/1/1/gpx.xsd" version="1.1" creator="VisuGPX - https://www.visugpx.com">
  <metadata>
    <name>Nez de Boeuf 35 km 2025</name>
    <desc><![CDATA[Rando VTT Nez de boeuf - Maisse 35 km  2025]]></desc>
  </metadata>
  <trk>
    <name><![CDATA[NDB 35km définitif]]></name>
    <trkseg>
      <trkpt lat="48.38283" lon="2.37877">
        <ele>62.8</ele>
        <time>2024-04-06T13:36:46Z</time>
      </trkpt>
      <trkpt lat="48.3828" lon="2.37875">
        <ele>63</ele>
        <time>2024-04-06T13:36:58Z</time>
      </trkpt>
      <trkpt lat="48.38279" lon="2.37874">
        <ele>63</ele>
        <time>2024-04-06T13:36:59Z</time>
      </trkpt>
      <trkpt lat="48.38276" lon="2.37872">
        <ele>62.8</ele>
        <time>2024-04-06T13:37:07Z</time>
      </trkpt>
      <trkpt lat="48.38275" lon="2.37872">
        <ele>63</ele>
        <time>2024-04-06T13:37:21Z</time>
      </trkpt>
      <trkpt lat="48.38275" lon="2.37872">
        <ele>63</ele>
        <time>2024-04-06T13:37:37Z</time>
      </trkpt>
      <trkpt lat="48.38275" lon="2.37868">
        <ele>63</ele>
        <time>2024-04-06T13:37:43Z</time>
      </trkpt>
      <trkpt lat="48.38275" lon="2.37863">
        <ele>63</ele>
        <time>2024-04-06T13:37:45Z</time>
      </trkpt>
      <trkpt lat="48.38275" lon="2.3786">
        <ele>63</ele>
        <time>2024-04-06T13:37:46Z</time>
      </trkpt>
      <trkpt lat="48.38269" lon="2.37856">
        <ele>62.8</ele>
        <time>2024-04-06T13:37:49Z</time>
      </trkpt>
      <trkpt lat="48.38248" lon="2.37851">
        <ele>62.4</ele>
        <time>2024-04-06T13:37:55Z</time>
      </trkpt>
      <trkpt lat="48.38217" lon="2.37846">
        <ele>62.2</ele>
        <time>2024-04-06T13:38:02Z</time>
      </trkpt>
      <trkpt lat="48.38181" lon="2.37834">
        <ele>62.2</ele>
        <time>2024-04-06T13:38:10Z</time>
      </trkpt>
      <trkpt lat="48.38142" lon="2.37807">
        <ele>62.2</ele>
        <time>2024-04-06T13:38:19Z</time>
      </trkpt>
      <trkpt lat="48.38117" lon="2.37791">
        <ele>62.4</ele>
        <time>2024-04-06T13:38:26Z</time>
      </trkpt>
      <trkpt lat="48.38098" lon="2.37782">
        <ele>63.4</ele>
        <time>2024-04-06T13:38:32Z</time>
      </trkpt>
      <trkpt lat="48.38093" lon="2.3778">
        <ele>64</ele>
        <time>2024-04-06T13:38:34Z</time>
      </trkpt>
      <trkpt lat="48.38086" lon="2.37778">
        <ele>65.2</ele>
        <time>2024-04-06T13:38:36Z</time>
      </trkpt>
      <trkpt lat="48.38082" lon="2.37776">
        <ele>65.6</ele>
        <time>2024-04-06T13:38:37Z</time>
      </trkpt>
      <trkpt lat="48.38065" lon="2.37769">
        <ele>66.4</ele>
        <time>2024-04-06T13:38:41Z</time>
      </trkpt>
      <trkpt lat="48.3806" lon="2.37768">
        <ele>66.4</ele>
        <time>2024-04-06T13:38:42Z</time>
      </trkpt>
      <trkpt lat="48.38056" lon="2.37766">
        <ele>66.8</ele>
        <time>2024-04-06T13:38:43Z</time>
      </trkpt>
      <trkpt lat="48.38023" lon="2.37757">
        <ele>67.2</ele>
        <time>2024-04-06T13:38:50Z</time>
      </trkpt>
      <trkpt lat="48.38005" lon="2.37754">
        <ele>67.4</ele>
        <time>2024-04-06T13:38:54Z</time>
      </trkpt>
      <trkpt lat="48.37994" lon="2.37753">
        <ele>67.4</ele>
        <time>2024-04-06T13:38:57Z</time>
      </trkpt>
      <trkpt lat="48.37988" lon="2.37756">
        <ele>67.4</ele>
        <time>2024-04-06T13:39:01Z</time>
      </trkpt>
      <trkpt lat="48.37987" lon="2.37756">
        <ele>68.2</ele>
        <time>2024-04-06T13:39:07Z</time>
      </trkpt>
      <trkpt lat="48.37986" lon="2.37757">
        <ele>69.2</ele>
        <time>2024-04-06T13:39:12Z</time>
      </trkpt>
      <trkpt lat="48.37985" lon="2.37761">
        <ele>69.4</ele>
        <time>2024-04-06T13:39:25Z</time>
      </trkpt>
      <trkpt lat="48.37984" lon="2.37764">
        <ele>69</ele>
        <time>2024-04-06T13:39:45Z</time>
      </trkpt>
      <trkpt lat="48.37985" lon="2.37765">
        <ele>68.8</ele>
        <time>2024-04-06T13:39:57Z</time>
      </trkpt>
      <trkpt lat="48.37983" lon="2.37762">
        <ele>69</ele>
        <time>2024-04-06T13:40:14Z</time>
      </trkpt>
      <trkpt lat="48.37976" lon="2.37765">
        <ele>68.8</ele>
        <time>2024-04-06T13:40:23Z</time>
      </trkpt>
      <trkpt lat="48.37959" lon="2.3777">
        <ele>68.8</ele>
        <time>2024-04-06T13:40:28Z</time>
      </trkpt>
      <trkpt lat="48.37951" lon="2.37769">
        <ele>68.6</ele>
        <time>2024-04-06T13:40:30Z</time>
      </trkpt>
      <trkpt lat="48.37942" lon="2.3777">
        <ele>68.6</ele>
        <time>2024-04-06T13:40:32Z</time>
      </trkpt>
      <trkpt lat="48.37907" lon="2.37775">
        <ele>68.2</ele>
        <time>2024-04-06T13:40:38Z</time>
      </trkpt>
      <trkpt lat="48.37887" lon="2.37779">
        <ele>67.6</ele>
        <time>2024-04-06T13:40:41Z</time>
      </trkpt>
      <trkpt lat="48.37874" lon="2.3778">
        <ele>67.2</ele>
        <time>2024-04-06T13:40:43Z</time>
      </trkpt>
      <trkpt lat="48.37868" lon="2.37782">
        <ele>66.6</ele>
        <time>2024-04-06T13:40:44Z</time>
      </trkpt>
      <trkpt lat="48.37862" lon="2.37784">
        <ele>66.2</ele>
        <time>2024-04-06T13:40:45Z</time>
      </trkpt>
      <trkpt lat="48.37825" lon="2.37789">
        <ele>65.2</ele>
        <time>2024-04-06T13:40:51Z</time>
      </trkpt>
      <trkpt lat="48.37818" lon="2.37789">
        <ele>65.2</ele>
        <time>2024-04-06T13:40:52Z</time>
      </trkpt>
      <trkpt lat="48.37785" lon="2.3779">
        <ele>65</ele>
        <time>2024-04-06T13:40:58Z</time>
      </trkpt>
      <trkpt lat="48.37743" lon="2.37793">
        <ele>64.8</ele>
        <time>2024-04-06T13:41:06Z</time>
      </trkpt>
      <trkpt lat="48.37714" lon="2.37797">
        <ele>65.2</ele>
        <time>2024-04-06T13:41:11Z</time>
      </trkpt>
      <trkpt lat="48.37709" lon="2.37799">
        <ele>65.2</ele>
        <time>2024-04-06T13:41:12Z</time>
      </trkpt>
      <trkpt lat="48.37693" lon="2.37799">
        <ele>65.4</ele>
        <time>2024-04-06T13:41:15Z</time>
      </trkpt>
      <trkpt lat="48.37681" lon="2.37801">
        <ele>65.6</ele>
        <time>2024-04-06T13:41:17Z</time>
      </trkpt>
      <trkpt lat="48.37653" lon="2.37805">
        <ele>65.6</ele>
        <time>2024-04-06T13:41:22Z</time>
      </trkpt>
      <trkpt lat="48.37642" lon="2.37808">
        <ele>65.8</ele>
        <time>2024-04-06T13:41:24Z</time>
      </trkpt>
      <trkpt lat="48.37636" lon="2.37808">
        <ele>65.8</ele>
        <time>2024-04-06T13:41:25Z</time>
      </trkpt>
      <trkpt lat="48.37624" lon="2.3781">
        <ele>66</ele>
        <time>2024-04-06T13:41:27Z</time>
      </trkpt>
      <trkpt lat="48.37619" lon="2.37811">
        <ele>66</ele>
        <time>2024-04-06T13:41:28Z</time>
      </trkpt>
      <trkpt lat="48.37615" lon="2.37814">
        <ele>66.2</ele>
        <time>2024-04-06T13:41:29Z</time>
      </trkpt>
      <trkpt lat="48.3759" lon="2.37829">
        <ele>66.6</ele>
        <time>2024-04-06T13:41:34Z</time>
      </trkpt>
      <trkpt lat="48.37574" lon="2.37837">
        <ele>66.4</ele>
        <time>2024-04-06T13:41:37Z</time>
      </trkpt>
      <trkpt lat="48.3756" lon="2.37839">
        <ele>66.4</ele>
        <time>2024-04-06T13:41:40Z</time>
      </trkpt>
      <trkpt lat="48.37555" lon="2.37838">
        <ele>66.4</ele>
        <time>2024-04-06T13:41:41Z</time>
      </trkpt>
      <trkpt lat="48.37543" lon="2.37837">
        <ele>66.8</ele>
        <time>2024-04-06T13:41:44Z</time>
      </trkpt>
      <trkpt lat="48.37541" lon="2.37834">
        <ele>66.8</ele>
        <time>2024-04-06T13:41:45Z</time>
      </trkpt>
      <trkpt lat="48.37542" lon="2.37826">
        <ele>66.8</ele>
        <time>2024-04-06T13:41:47Z</time>
      </trkpt>
      <trkpt lat="48.37548" lon="2.37823">
        <ele>67</ele>
        <time>2024-04-06T13:41:49Z</time>
      </trkpt>
      <trkpt lat="48.37551" lon="2.3782">
        <ele>67</ele>
        <time>2024-04-06T13:41:51Z</time>
      </trkpt>
      <trkpt lat="48.37549" lon="2.37814">
        <ele>68</ele>
        <time>2024-04-06T13:41:54Z</time>
      </trkpt>
      <trkpt lat="48.37543" lon="2.37812">
        <ele>68.8</ele>
        <time>2024-04-06T13:41:56Z</time>
      </trkpt>
      <trkpt lat="48.37539" lon="2.37812">
        <ele>69.2</ele>
        <time>2024-04-06T13:41:57Z</time>
      </trkpt>
      <trkpt lat="48.37532" lon="2.37812">
        <ele>69.6</ele>
        <time>2024-04-06T13:41:59Z</time>
      </trkpt>
      <trkpt lat="48.37504" lon="2.37817">
        <ele>69.6</ele>
        <time>2024-04-06T13:42:05Z</time>
      </trkpt>
      <trkpt lat="48.37499" lon="2.37818">
        <ele>69.6</ele>
        <time>2024-04-06T13:42:06Z</time>
      </trkpt>
      <trkpt lat="48.37474" lon="2.37826">
        <ele>69</ele>
        <time>2024-04-06T13:42:11Z</time>
      </trkpt>
      <trkpt lat="48.3744" lon="2.37833">
        <ele>68.8</ele>
        <time>2024-04-06T13:42:17Z</time>
      </trkpt>
      <trkpt lat="48.37398" lon="2.37842">
        <ele>68.6</ele>
        <time>2024-04-06T13:42:25Z</time>
      </trkpt>
      <trkpt lat="48.37386" lon="2.37846">
        <ele>68.6</ele>
        <time>2024-04-06T13:42:28Z</time>
      </trkpt>
      <trkpt lat="48.37377" lon="2.37843">
        <ele>68.8</ele>
        <time>2024-04-06T13:42:30Z</time>
      </trkpt>
      <trkpt lat="48.37369" lon="2.37827">
        <ele>68.8</ele>
        <time>2024-04-06T13:42:33Z</time>
      </trkpt>
      <trkpt lat="48.37368" lon="2.37821">
        <ele>69</ele>
        <time>2024-04-06T13:42:34Z</time>
      </trkpt>
      <trkpt lat="48.37361" lon="2.37795">
        <ele>70</ele>
        <time>2024-04-06T13:42:39Z</time>
      </trkpt>
      <trkpt lat="48.3736" lon="2.3779">
        <ele>70.2</ele>
        <time>2024-04-06T13:42:40Z</time>
      </trkpt>
      <trkpt lat="48.37358" lon="2.37769">
        <ele>71.8</ele>
        <time>2024-04-06T13:42:44Z</time>
      </trkpt>
      <trkpt lat="48.37358" lon="2.37764">
        <ele>72.2</ele>
        <time>2024-04-06T13:42:45Z</time>
      </trkpt>
      <trkpt lat="48.37358" lon="2.37755">
        <ele>73</ele>
        <time>2024-04-06T13:42:47Z</time>
      </trkpt>
      <trkpt lat="48.37357" lon="2.37736">
        <ele>74.2</ele>
        <time>2024-04-06T13:42:51Z</time>
      </trkpt>
      <trkpt lat="48.37357" lon="2.37727">
        <ele>75</ele>
        <time>2024-04-06T13:42:53Z</time>
      </trkpt>
      <trkpt lat="48.37357" lon="2.37723">
        <ele>75.4</ele>
        <time>2024-04-06T13:42:54Z</time>
      </trkpt>
      <trkpt lat="48.37357" lon="2.37712">
        <ele>76.4</ele>
        <time>2024-04-06T13:42:57Z</time>
      </trkpt>
      <trkpt lat="48.37356" lon="2.37702">
        <ele>77.6</ele>
        <time>2024-04-06T13:43:00Z</time>
      </trkpt>
      <trkpt lat="48.37355" lon="2.37692">
        <ele>78.8</ele>
        <time>2024-04-06T13:43:03Z</time>
      </trkpt>
      <trkpt lat="48.37355" lon="2.37679">
        <ele>79.8</ele>
        <time>2024-04-06T13:43:07Z</time>
      </trkpt>
      <trkpt lat="48.37355" lon="2.37675">
        <ele>80</ele>
        <time>2024-04-06T13:43:08Z</time>
      </trkpt>
      <trkpt lat="48.37354" lon="2.37666">
        <ele>80.6</ele>
        <time>2024-04-06T13:43:11Z</time>
      </trkpt>
      <trkpt lat="48.37354" lon="2.37655">
        <ele>81.8</ele>
        <time>2024-04-06T13:43:14Z</time>
      </trkpt>
      <trkpt lat="48.37355" lon="2.37652">
        <ele>82.2</ele>
        <time>2024-04-06T13:43:15Z</time>
      </trkpt>
      <trkpt lat="48.37355" lon="2.37643">
        <ele>83.2</ele>
        <time>2024-04-06T13:43:18Z</time>
      </trkpt>
      <trkpt lat="48.37354" lon="2.37633">
        <ele>84.2</ele>
        <time>2024-04-06T13:43:21Z</time>
      </trkpt>
      <trkpt lat="48.37353" lon="2.3763">
        <ele>84.4</ele>
        <time>2024-04-06T13:43:22Z</time>
      </trkpt>
      <trkpt lat="48.37354" lon="2.37616">
        <ele>85.6</ele>
        <time>2024-04-06T13:43:26Z</time>
      </trkpt>
      <trkpt lat="48.37354" lon="2.37613">
        <ele>85.8</ele>
        <time>2024-04-06T13:43:27Z</time>
      </trkpt>
      <trkpt lat="48.37354" lon="2.37604">
        <ele>86.6</ele>
        <time>2024-04-06T13:43:30Z</time>
      </trkpt>
      <trkpt lat="48.37355" lon="2.37592">
        <ele>88</ele>
        <time>2024-04-06T13:43:34Z</time>
      </trkpt>
      <trkpt lat="48.37353" lon="2.37584">
        <ele>89</ele>
        <time>2024-04-06T13:43:38Z</time>
      </trkpt>
      <trkpt lat="48.37352" lon="2.37579">
        <ele>89.6</ele>
        <time>2024-04-06T13:43:40Z</time>
      </trkpt>
      <trkpt lat="48.3735" lon="2.37575">
        <ele>90</ele>
        <time>2024-04-06T13:43:42Z</time>
      </trkpt>
      <trkpt lat="48.37345" lon="2.37571">
        <ele>91.2</ele>
        <time>2024-04-06T13:43:46Z</time>
      </trkpt>
      <trkpt lat="48.37342" lon="2.37567">
        <ele>92.4</ele>
        <time>2024-04-06T13:43:49Z</time>
      </trkpt>
      <trkpt lat="48.37337" lon="2.37563">
        <ele>93.6</ele>
        <time>2024-04-06T13:43:53Z</time>
      </trkpt>
      <trkpt lat="48.37331" lon="2.37554">
        <ele>94.8</ele>
        <time>2024-04-06T13:43:57Z</time>
      </trkpt>
      <trkpt lat="48.37328" lon="2.3755">
        <ele>95.6</ele>
        <time>2024-04-06T13:43:59Z</time>
      </trkpt>
      <trkpt lat="48.37328" lon="2.37548">
        <ele>96.2</ele>
        <time>2024-04-06T13:44:00Z</time>
      </trkpt>
      <trkpt lat="48.37324" lon="2.37542">
        <ele>97.2</ele>
        <time>2024-04-06T13:44:03Z</time>
      </trkpt>
      <trkpt lat="48.3732" lon="2.37537">
        <ele>98</ele>
        <time>2024-04-06T13:44:06Z</time>
      </trkpt>
      <trkpt lat="48.37319" lon="2.37534">
        <ele>98.4</ele>
        <time>2024-04-06T13:44:07Z</time>
      </trkpt>
      <trkpt lat="48.37316" lon="2.37527">
        <ele>99.6</ele>
        <time>2024-04-06T13:44:10Z</time>
      </trkpt>
      <trkpt lat="48.37315" lon="2.37523">
        <ele>100.6</ele>
        <time>2024-04-06T13:44:12Z</time>
      </trkpt>
      <trkpt lat="48.37315" lon="2.3752">
        <ele>100.8</ele>
        <time>2024-04-06T13:44:13Z</time>
      </trkpt>
      <trkpt lat="48.37315" lon="2.3751">
        <ele>102.2</ele>
        <time>2024-04-06T13:44:17Z</time>
      </trkpt>
      <trkpt lat="48.37315" lon="2.37507">
        <ele>102.6</ele>
        <time>2024-04-06T13:44:18Z</time>
      </trkpt>
      <trkpt lat="48.37316" lon="2.37501">
        <ele>103.2</ele>
        <time>2024-04-06T13:44:20Z</time>
      </trkpt>
      <trkpt lat="48.37317" lon="2.37485">
        <ele>104.4</ele>
        <time>2024-04-06T13:44:25Z</time>
      </trkpt>
      <trkpt lat="48.37315" lon="2.37465">
        <ele>105.6</ele>
        <time>2024-04-06T13:44:31Z</time>
      </trkpt>
      <trkpt lat="48.37316" lon="2.37451">
        <ele>106.6</ele>
        <time>2024-04-06T13:44:35Z</time>
      </trkpt>
      <trkpt lat="48.37316" lon="2.37448">
        <ele>107</ele>
        <time>2024-04-06T13:44:36Z</time>
      </trkpt>
      <trkpt lat="48.37317" lon="2.37437">
        <ele>107.8</ele>
        <time>2024-04-06T13:44:39Z</time>
      </trkpt>
      <trkpt lat="48.37317" lon="2.37425">
        <ele>108.4</ele>
        <time>2024-04-06T13:44:42Z</time>
      </trkpt>
      <trkpt lat="48.37317" lon="2.3742">
        <ele>108.8</ele>
        <time>2024-04-06T13:44:43Z</time>
      </trkpt>
      <trkpt lat="48.37318" lon="2.37413">
        <ele>109.6</ele>
        <time>2024-04-06T13:44:45Z</time>
      </trkpt>
      <trkpt lat="48.37319" lon="2.3741">
        <ele>109.8</ele>
        <time>2024-04-06T13:44:46Z</time>
      </trkpt>
      <trkpt lat="48.37319" lon="2.37406">
        <ele>110.2</ele>
        <time>2024-04-06T13:44:47Z</time>
      </trkpt>
      <trkpt lat="48.37322" lon="2.37393">
        <ele>111</ele>
        <time>2024-04-06T13:44:51Z</time>
      </trkpt>
      <trkpt lat="48.37324" lon="2.3739">
        <ele>111.2</ele>
        <time>2024-04-06T13:44:52Z</time>
      </trkpt>
      <trkpt lat="48.37328" lon="2.3738">
        <ele>112</ele>
        <time>2024-04-06T13:44:55Z</time>
      </trkpt>
      <trkpt lat="48.37335" lon="2.37368">
        <ele>112.8</ele>
        <time>2024-04-06T13:44:59Z</time>
      </trkpt>
      <trkpt lat="48.37337" lon="2.37365">
        <ele>113</ele>
        <time>2024-04-06T13:45:00Z</time>
      </trkpt>
      <trkpt lat="48.37346" lon="2.37351">
        <ele>114.2</ele>
        <time>2024-04-06T13:45:05Z</time>
      </trkpt>
      <trkpt lat="48.37349" lon="2.37346">
        <ele>114.4</ele>
        <time>2024-04-06T13:45:07Z</time>
      </trkpt>
      <trkpt lat="48.3736" lon="2.37331">
        <ele>115.2</ele>
        <time>2024-04-06T13:45:13Z</time>
      </trkpt>
      <trkpt lat="48.37365" lon="2.37322">
        <ele>116</ele>
        <time>2024-04-06T13:45:19Z</time>
      </trkpt>
      <trkpt lat="48.37366" lon="2.3732">
        <ele>116.2</ele>
        <time>2024-04-06T13:45:20Z</time>
      </trkpt>
      <trkpt lat="48.37367" lon="2.37305">
        <ele>117.4</ele>
        <time>2024-04-06T13:45:25Z</time>
      </trkpt>
      <trkpt lat="48.37368" lon="2.37294">
        <ele>117.8</ele>
        <time>2024-04-06T13:45:30Z</time>
      </trkpt>
      <trkpt lat="48.37368" lon="2.37293">
        <ele>118.4</ele>
        <time>2024-04-06T13:45:34Z</time>
      </trkpt>
      <trkpt lat="48.37368" lon="2.37291">
        <ele>118.8</ele>
        <time>2024-04-06T13:45:40Z</time>
      </trkpt>
      <trkpt lat="48.37369" lon="2.3728">
        <ele>119</ele>
        <time>2024-04-06T13:45:50Z</time>
      </trkpt>
      <trkpt lat="48.37373" lon="2.37263">
        <ele>119</ele>
        <time>2024-04-06T13:45:58Z</time>
      </trkpt>
      <trkpt lat="48.37376" lon="2.37228">
        <ele>119</ele>
        <time>2024-04-06T13:46:06Z</time>
      </trkpt>
      <trkpt lat="48.37379" lon="2.37192">
        <ele>119.2</ele>
        <time>2024-04-06T13:46:13Z</time>
      </trkpt>
      <trkpt lat="48.37383" lon="2.37153">
        <ele>119.4</ele>
        <time>2024-04-06T13:46:20Z</time>
      </trkpt>
      <trkpt lat="48.37384" lon="2.37148">
        <ele>119.4</ele>
        <time>2024-04-06T13:46:21Z</time>
      </trkpt>
      <trkpt lat="48.37385" lon="2.37123">
        <ele>119.8</ele>
        <time>2024-04-06T13:46:25Z</time>
      </trkpt>
      <trkpt lat="48.37386" lon="2.37109">
        <ele>120</ele>
        <time>2024-04-06T13:46:27Z</time>
      </trkpt>
      <trkpt lat="48.37389" lon="2.37062">
        <ele>120.4</ele>
        <time>2024-04-06T13:46:34Z</time>
      </trkpt>
      <trkpt lat="48.37389" lon="2.37055">
        <ele>120.4</ele>
        <time>2024-04-06T13:46:35Z</time>
      </trkpt>
      <trkpt lat="48.37392" lon="2.36982">
        <ele>120.2</ele>
        <time>2024-04-06T13:46:45Z</time>
      </trkpt>
      <trkpt lat="48.37392" lon="2.36929">
        <ele>120</ele>
        <time>2024-04-06T13:46:52Z</time>
      </trkpt>
      <trkpt lat="48.37394" lon="2.36852">
        <ele>119.8</ele>
        <time>2024-04-06T13:47:02Z</time>
      </trkpt>
      <trkpt lat="48.37396" lon="2.36781">
        <ele>119.4</ele>
        <time>2024-04-06T13:47:11Z</time>
      </trkpt>
      <trkpt lat="48.37397" lon="2.36718">
        <ele>119.4</ele>
        <time>2024-04-06T13:47:19Z</time>
      </trkpt>
      <trkpt lat="48.37398" lon="2.36688">
        <ele>119.4</ele>
        <time>2024-04-06T13:47:23Z</time>
      </trkpt>
      <trkpt lat="48.37399" lon="2.36637">
        <ele>119</ele>
        <time>2024-04-06T13:47:30Z</time>
      </trkpt>
      <trkpt lat="48.374" lon="2.36581">
        <ele>119</ele>
        <time>2024-04-06T13:47:38Z</time>
      </trkpt>
      <trkpt lat="48.374" lon="2.36561">
        <ele>119.2</ele>
        <time>2024-04-06T13:47:41Z</time>
      </trkpt>
      <trkpt lat="48.37401" lon="2.36532">
        <ele>119.2</ele>
        <time>2024-04-06T13:47:45Z</time>
      </trkpt>
      <trkpt lat="48.37403" lon="2.36483">
        <ele>118.8</ele>
        <time>2024-04-06T13:47:52Z</time>
      </trkpt>
      <trkpt lat="48.37403" lon="2.36476">
        <ele>118.8</ele>
        <time>2024-04-06T13:47:53Z</time>
      </trkpt>
      <trkpt lat="48.37404" lon="2.36449">
        <ele>118.4</ele>
        <time>2024-04-06T13:47:57Z</time>
      </trkpt>
      <trkpt lat="48.37403" lon="2.36436">
        <ele>118.2</ele>
        <time>2024-04-06T13:47:59Z</time>
      </trkpt>
      <trkpt lat="48.37404" lon="2.36406">
        <ele>118.4</ele>
        <time>2024-04-06T13:48:04Z</time>
      </trkpt>
      <trkpt lat="48.37404" lon="2.36405">
        <ele>118.4</ele>
        <time>2024-04-06T13:48:08Z</time>
      </trkpt>
      <trkpt lat="48.37404" lon="2.36405">
        <ele>119.8</ele>
        <time>2024-04-06T13:48:13Z</time>
      </trkpt>
      <trkpt lat="48.37404" lon="2.36405">
        <ele>121</ele>
        <time>2024-04-06T13:48:15Z</time>
      </trkpt>
      <trkpt lat="48.37404" lon="2.36406">
        <ele>121.4</ele>
        <time>2024-04-06T13:48:24Z</time>
      </trkpt>
      <trkpt lat="48.37405" lon="2.36408">
        <ele>121.2</ele>
        <time>2024-04-06T13:48:41Z</time>
      </trkpt>
      <trkpt lat="48.37406" lon="2.364">
        <ele>121.2</ele>
        <time>2024-04-06T13:48:52Z</time>
      </trkpt>
      <trkpt lat="48.37406" lon="2.36374">
        <ele>121</ele>
        <time>2024-04-06T13:48:57Z</time>
      </trkpt>
      <trkpt lat="48.37407" lon="2.36341">
        <ele>120</ele>
        <time>2024-04-06T13:49:02Z</time>
      </trkpt>
      <trkpt lat="48.37407" lon="2.36335">
        <ele>119.8</ele>
        <time>2024-04-06T13:49:03Z</time>
      </trkpt>
      <trkpt lat="48.37409" lon="2.36309">
        <ele>119</ele>
        <time>2024-04-06T13:49:07Z</time>
      </trkpt>
      <trkpt lat="48.3741" lon="2.36294">
        <ele>118.8</ele>
        <time>2024-04-06T13:49:09Z</time>
      </trkpt>
      <trkpt lat="48.37411" lon="2.36259">
        <ele>118.4</ele>
        <time>2024-04-06T13:49:14Z</time>
      </trkpt>
      <trkpt lat="48.37411" lon="2.36252">
        <ele>118.4</ele>
        <time>2024-04-06T13:49:15Z</time>
      </trkpt>
      <trkpt lat="48.37411" lon="2.36245">
        <ele>118.4</ele>
        <time>2024-04-06T13:49:16Z</time>
      </trkpt>
      <trkpt lat="48.37412" lon="2.36216">
        <ele>118.4</ele>
        <time>2024-04-06T13:49:20Z</time>
      </trkpt>
      <trkpt lat="48.37412" lon="2.36209">
        <ele>118.4</ele>
        <time>2024-04-06T13:49:21Z</time>
      </trkpt>
      <trkpt lat="48.37414" lon="2.36154">
        <ele>118.6</ele>
        <time>2024-04-06T13:49:28Z</time>
      </trkpt>
      <trkpt lat="48.37416" lon="2.36093">
        <ele>118.2</ele>
        <time>2024-04-06T13:49:36Z</time>
      </trkpt>
      <trkpt lat="48.37417" lon="2.36042">
        <ele>117.6</ele>
        <time>2024-04-06T13:49:43Z</time>
      </trkpt>
      <trkpt lat="48.37417" lon="2.36029">
        <ele>117.6</ele>
        <time>2024-04-06T13:49:45Z</time>
      </trkpt>
      <trkpt lat="48.37418" lon="2.36">
        <ele>117.8</ele>
        <time>2024-04-06T13:49:50Z</time>
      </trkpt>
      <trkpt lat="48.37421" lon="2.35995">
        <ele>118</ele>
        <time>2024-04-06T13:49:52Z</time>
      </trkpt>
      <trkpt lat="48.37422" lon="2.35994">
        <ele>118.2</ele>
        <time>2024-04-06T13:49:54Z</time>
      </trkpt>
      <trkpt lat="48.37422" lon="2.35995">
        <ele>118.8</ele>
        <time>2024-04-06T13:49:58Z</time>
      </trkpt>
      <trkpt lat="48.37424" lon="2.35996">
        <ele>120</ele>
        <time>2024-04-06T13:50:01Z</time>
      </trkpt>
      <trkpt lat="48.37426" lon="2.35998">
        <ele>120.2</ele>
        <time>2024-04-06T13:50:02Z</time>
      </trkpt>
      <trkpt lat="48.37428" lon="2.35999">
        <ele>120.4</ele>
        <time>2024-04-06T13:50:03Z</time>
      </trkpt>
      <trkpt lat="48.37435" lon="2.36003">
        <ele>120.8</ele>
        <time>2024-04-06T13:50:05Z</time>
      </trkpt>
      <trkpt lat="48.37444" lon="2.36009">
        <ele>120.8</ele>
        <time>2024-04-06T13:50:07Z</time>
      </trkpt>
      <trkpt lat="48.37479" lon="2.36034">
        <ele>120.4</ele>
        <time>2024-04-06T13:50:15Z</time>
      </trkpt>
      <trkpt lat="48.37524" lon="2.36065">
        <ele>120</ele>
        <time>2024-04-06T13:50:24Z</time>
      </trkpt>
      <trkpt lat="48.37562" lon="2.3609">
        <ele>119.8</ele>
        <time>2024-04-06T13:50:31Z</time>
      </trkpt>
      <trkpt lat="48.37603" lon="2.36115">
        <ele>119.2</ele>
        <time>2024-04-06T13:50:38Z</time>
      </trkpt>
      <trkpt lat="48.37609" lon="2.36119">
        <ele>118.8</ele>
        <time>2024-04-06T13:50:39Z</time>
      </trkpt>
      <trkpt lat="48.37638" lon="2.36136">
        <ele>118</ele>
        <time>2024-04-06T13:50:44Z</time>
      </trkpt>
      <trkpt lat="48.37661" lon="2.36151">
        <ele>117.2</ele>
        <time>2024-04-06T13:50:48Z</time>
      </trkpt>
      <trkpt lat="48.37667" lon="2.36154">
        <ele>117</ele>
        <time>2024-04-06T13:50:49Z</time>
      </trkpt>
      <trkpt lat="48.37697" lon="2.36176">
        <ele>116</ele>
        <time>2024-04-06T13:50:54Z</time>
      </trkpt>
      <trkpt lat="48.37703" lon="2.36181">
        <ele>115.4</ele>
        <time>2024-04-06T13:50:55Z</time>
      </trkpt>
      <trkpt lat="48.37709" lon="2.36187">
        <ele>114.8</ele>
        <time>2024-04-06T13:50:56Z</time>
      </trkpt>
      <trkpt lat="48.37715" lon="2.36204">
        <ele>113.6</ele>
        <time>2024-04-06T13:50:58Z</time>
      </trkpt>
      <trkpt lat="48.37725" lon="2.36232">
        <ele>112.4</ele>
        <time>2024-04-06T13:51:02Z</time>
      </trkpt>
      <trkpt lat="48.37728" lon="2.36237">
        <ele>112.2</ele>
        <time>2024-04-06T13:51:03Z</time>
      </trkpt>
      <trkpt lat="48.37741" lon="2.36263">
        <ele>111.4</ele>
        <time>2024-04-06T13:51:07Z</time>
      </trkpt>
      <trkpt lat="48.37746" lon="2.36272">
        <ele>111.2</ele>
        <time>2024-04-06T13:51:08Z</time>
      </trkpt>
      <trkpt lat="48.3776" lon="2.36305">
        <ele>110.2</ele>
        <time>2024-04-06T13:51:11Z</time>
      </trkpt>
      <trkpt lat="48.37765" lon="2.36317">
        <ele>109.8</ele>
        <time>2024-04-06T13:51:12Z</time>
      </trkpt>
      <trkpt lat="48.37782" lon="2.36354">
        <ele>108.4</ele>
        <time>2024-04-06T13:51:15Z</time>
      </trkpt>
      <trkpt lat="48.37786" lon="2.36368">
        <ele>107.6</ele>
        <time>2024-04-06T13:51:16Z</time>
      </trkpt>
      <trkpt lat="48.37789" lon="2.36383">
        <ele>106.2</ele>
        <time>2024-04-06T13:51:17Z</time>
      </trkpt>
      <trkpt lat="48.37791" lon="2.36397">
        <ele>105</ele>
        <time>2024-04-06T13:51:18Z</time>
      </trkpt>
      <trkpt lat="48.37792" lon="2.36412">
        <ele>103.4</ele>
        <time>2024-04-06T13:51:19Z</time>
      </trkpt>
      <trkpt lat="48.37794" lon="2.36427">
        <ele>101.6</ele>
        <time>2024-04-06T13:51:20Z</time>
      </trkpt>
      <trkpt lat="48.37796" lon="2.36442">
        <ele>100.2</ele>
        <time>2024-04-06T13:51:21Z</time>
      </trkpt>
      <trkpt lat="48.378" lon="2.36456">
        <ele>98.2</ele>
        <time>2024-04-06T13:51:22Z</time>
      </trkpt>
      <trkpt lat="48.37803" lon="2.36469">
        <ele>96.8</ele>
        <time>2024-04-06T13:51:23Z</time>
      </trkpt>
      <trkpt lat="48.37809" lon="2.36482">
        <ele>95.2</ele>
        <time>2024-04-06T13:51:24Z</time>
      </trkpt>
      <trkpt lat="48.37825" lon="2.3652">
        <ele>93.6</ele>
        <time>2024-04-06T13:51:27Z</time>
      </trkpt>
      <trkpt lat="48.37831" lon="2.36532">
        <ele>92.8</ele>
        <time>2024-04-06T13:51:28Z</time>
      </trkpt>
      <trkpt lat="48.37837" lon="2.36544">
        <ele>92.2</ele>
        <time>2024-04-06T13:51:29Z</time>
      </trkpt>
      <trkpt lat="48.37849" lon="2.36567">
        <ele>90.8</ele>
        <time>2024-04-06T13:51:31Z</time>
      </trkpt>
      <trkpt lat="48.37863" lon="2.36588">
        <ele>89.2</ele>
        <time>2024-04-06T13:51:33Z</time>
      </trkpt>
      <trkpt lat="48.37888" lon="2.36633">
        <ele>88</ele>
        <time>2024-04-06T13:51:37Z</time>
      </trkpt>
      <trkpt lat="48.37893" lon="2.36644">
        <ele>87.4</ele>
        <time>2024-04-06T13:51:38Z</time>
      </trkpt>
      <trkpt lat="48.37896" lon="2.36656">
        <ele>86.4</ele>
        <time>2024-04-06T13:51:39Z</time>
      </trkpt>
      <trkpt lat="48.37905" lon="2.3669">
        <ele>85.4</ele>
        <time>2024-04-06T13:51:42Z</time>
      </trkpt>
      <trkpt lat="48.37909" lon="2.367">
        <ele>85.2</ele>
        <time>2024-04-06T13:51:43Z</time>
      </trkpt>
      <trkpt lat="48.37916" lon="2.36722">
        <ele>84.4</ele>
        <time>2024-04-06T13:51:45Z</time>
      </trkpt>
      <trkpt lat="48.37925" lon="2.36755">
        <ele>83</ele>
        <time>2024-04-06T13:51:48Z</time>
      </trkpt>
      <trkpt lat="48.37928" lon="2.36766">
        <ele>82.6</ele>
        <time>2024-04-06T13:51:49Z</time>
      </trkpt>
      <trkpt lat="48.37932" lon="2.368">
        <ele>82.2</ele>
        <time>2024-04-06T13:51:52Z</time>
      </trkpt>
      <trkpt lat="48.37932" lon="2.36809">
        <ele>81.6</ele>
        <time>2024-04-06T13:51:53Z</time>
      </trkpt>
      <trkpt lat="48.37933" lon="2.36817">
        <ele>81.4</ele>
        <time>2024-04-06T13:51:55Z</time>
      </trkpt>
      <trkpt lat="48.37932" lon="2.36816">
        <ele>81.4</ele>
        <time>2024-04-06T13:52:00Z</time>
      </trkpt>
      <trkpt lat="48.37931" lon="2.36815">
        <ele>81.6</ele>
        <time>2024-04-06T13:52:16Z</time>
      </trkpt>
      <trkpt lat="48.3793" lon="2.36817">
        <ele>81.6</ele>
        <time>2024-04-06T13:52:32Z</time>
      </trkpt>
      <trkpt lat="48.3793" lon="2.36817">
        <ele>81.2</ele>
        <time>2024-04-06T13:52:52Z</time>
      </trkpt>
      <trkpt lat="48.37932" lon="2.36822">
        <ele>81.2</ele>
        <time>2024-04-06T13:53:03Z</time>
      </trkpt>
      <trkpt lat="48.37938" lon="2.36837">
        <ele>81.2</ele>
        <time>2024-04-06T13:53:07Z</time>
      </trkpt>
      <trkpt lat="48.37944" lon="2.36855">
        <ele>81.2</ele>
        <time>2024-04-06T13:53:10Z</time>
      </trkpt>
      <trkpt lat="48.37949" lon="2.36866">
        <ele>81.2</ele>
        <time>2024-04-06T13:53:12Z</time>
      </trkpt>
      <trkpt lat="48.37964" lon="2.36894">
        <ele>80.2</ele>
        <time>2024-04-06T13:53:17Z</time>
      </trkpt>
      <trkpt lat="48.37971" lon="2.36905">
        <ele>80</ele>
        <time>2024-04-06T13:53:19Z</time>
      </trkpt>
      <trkpt lat="48.37975" lon="2.3691">
        <ele>79.8</ele>
        <time>2024-04-06T13:53:20Z</time>
      </trkpt>
      <trkpt lat="48.37984" lon="2.36918">
        <ele>79.4</ele>
        <time>2024-04-06T13:53:22Z</time>
      </trkpt>
      <trkpt lat="48.38007" lon="2.36941">
        <ele>79</ele>
        <time>2024-04-06T13:53:27Z</time>
      </trkpt>
      <trkpt lat="48.38012" lon="2.36945">
        <ele>79</ele>
        <time>2024-04-06T13:53:28Z</time>
      </trkpt>
      <trkpt lat="48.38019" lon="2.36954">
        <ele>78.8</ele>
        <time>2024-04-06T13:53:30Z</time>
      </trkpt>
      <trkpt lat="48.38027" lon="2.36963">
        <ele>78.8</ele>
        <time>2024-04-06T13:53:32Z</time>
      </trkpt>
      <trkpt lat="48.38048" lon="2.36983">
        <ele>77.6</ele>
        <time>2024-04-06T13:53:36Z</time>
      </trkpt>
      <trkpt lat="48.38054" lon="2.36988">
        <ele>77.4</ele>
        <time>2024-04-06T13:53:37Z</time>
      </trkpt>
      <trkpt lat="48.38088" lon="2.37015">
        <ele>76.8</ele>
        <time>2024-04-06T13:53:42Z</time>
      </trkpt>
      <trkpt lat="48.38095" lon="2.3702">
        <ele>76.6</ele>
        <time>2024-04-06T13:53:43Z</time>
      </trkpt>
      <trkpt lat="48.38101" lon="2.37027">
        <ele>76.4</ele>
        <time>2024-04-06T13:53:44Z</time>
      </trkpt>
      <trkpt lat="48.38114" lon="2.37041">
        <ele>74.8</ele>
        <time>2024-04-06T13:53:46Z</time>
      </trkpt>
      <trkpt lat="48.38127" lon="2.37055">
        <ele>73</ele>
        <time>2024-04-06T13:53:48Z</time>
      </trkpt>
      <trkpt lat="48.38139" lon="2.37069">
        <ele>72.6</ele>
        <time>2024-04-06T13:53:50Z</time>
      </trkpt>
      <trkpt lat="48.38155" lon="2.37092">
        <ele>71.8</ele>
        <time>2024-04-06T13:53:53Z</time>
      </trkpt>
      <trkpt lat="48.38163" lon="2.37109">
        <ele>71.4</ele>
        <time>2024-04-06T13:53:55Z</time>
      </trkpt>
      <trkpt lat="48.38171" lon="2.37125">
        <ele>71.2</ele>
        <time>2024-04-06T13:53:57Z</time>
      </trkpt>
      <trkpt lat="48.3818" lon="2.37133">
        <ele>71.2</ele>
        <time>2024-04-06T13:53:59Z</time>
      </trkpt>
      <trkpt lat="48.38197" lon="2.37138">
        <ele>71.2</ele>
        <time>2024-04-06T13:54:03Z</time>
      </trkpt>
      <trkpt lat="48.3821" lon="2.3714">
        <ele>71.4</ele>
        <time>2024-04-06T13:54:08Z</time>
      </trkpt>
      <trkpt lat="48.38213" lon="2.37142">
        <ele>71.6</ele>
        <time>2024-04-06T13:54:10Z</time>
      </trkpt>
      <trkpt lat="48.38217" lon="2.37144">
        <ele>72.2</ele>
        <time>2024-04-06T13:54:12Z</time>
      </trkpt>
      <trkpt lat="48.38221" lon="2.37144">
        <ele>73.2</ele>
        <time>2024-04-06T13:54:14Z</time>
      </trkpt>
      <trkpt lat="48.38224" lon="2.37144">
        <ele>75.4</ele>
        <time>2024-04-06T13:54:16Z</time>
      </trkpt>
      <trkpt lat="48.38226" lon="2.37144">
        <ele>76.6</ele>
        <time>2024-04-06T13:54:18Z</time>
      </trkpt>
      <trkpt lat="48.38227" lon="2.37144">
        <ele>76.8</ele>
        <time>2024-04-06T13:54:19Z</time>
      </trkpt>
      <trkpt lat="48.38231" lon="2.37146">
        <ele>77.6</ele>
        <time>2024-04-06T13:54:21Z</time>
      </trkpt>
      <trkpt lat="48.38237" lon="2.37149">
        <ele>79.2</ele>
        <time>2024-04-06T13:54:24Z</time>
      </trkpt>
      <trkpt lat="48.38239" lon="2.37149">
        <ele>79.8</ele>
        <time>2024-04-06T13:54:25Z</time>
      </trkpt>
      <trkpt lat="48.38241" lon="2.37149">
        <ele>80.4</ele>
        <time>2024-04-06T13:54:26Z</time>
      </trkpt>
      <trkpt lat="48.38244" lon="2.37149">
        <ele>81.6</ele>
        <time>2024-04-06T13:54:28Z</time>
      </trkpt>
      <trkpt lat="48.38249" lon="2.37148">
        <ele>82.8</ele>
        <time>2024-04-06T13:54:31Z</time>
      </trkpt>
      <trkpt lat="48.38256" lon="2.37148">
        <ele>84</ele>
        <time>2024-04-06T13:54:35Z</time>
      </trkpt>
      <trkpt lat="48.38257" lon="2.37149">
        <ele>84.4</ele>
        <time>2024-04-06T13:54:36Z</time>
      </trkpt>
      <trkpt lat="48.38264" lon="2.37154">
        <ele>84.8</ele>
        <time>2024-04-06T13:54:39Z</time>
      </trkpt>
      <trkpt lat="48.38271" lon="2.37156">
        <ele>85</ele>
        <time>2024-04-06T13:54:41Z</time>
      </trkpt>
      <trkpt lat="48.38278" lon="2.3716">
        <ele>85.2</ele>
        <time>2024-04-06T13:54:43Z</time>
      </trkpt>
      <trkpt lat="48.38288" lon="2.37165">
        <ele>85.2</ele>
        <time>2024-04-06T13:54:46Z</time>
      </trkpt>
      <trkpt lat="48.38305" lon="2.37178">
        <ele>84.6</ele>
        <time>2024-04-06T13:54:51Z</time>
      </trkpt>
      <trkpt lat="48.38327" lon="2.372">
        <ele>84.4</ele>
        <time>2024-04-06T13:54:58Z</time>
      </trkpt>
      <trkpt lat="48.38337" lon="2.37211">
        <ele>84.8</ele>
        <time>2024-04-06T13:55:03Z</time>
      </trkpt>
      <trkpt lat="48.38344" lon="2.37213">
        <ele>86</ele>
        <time>2024-04-06T13:55:06Z</time>
      </trkpt>
      <trkpt lat="48.3835" lon="2.37215">
        <ele>87.2</ele>
        <time>2024-04-06T13:55:09Z</time>
      </trkpt>
      <trkpt lat="48.38359" lon="2.37218">
        <ele>88.4</ele>
        <time>2024-04-06T13:55:12Z</time>
      </trkpt>
      <trkpt lat="48.38365" lon="2.37217">
        <ele>89.4</ele>
        <time>2024-04-06T13:55:14Z</time>
      </trkpt>
      <trkpt lat="48.38381" lon="2.37219">
        <ele>90.2</ele>
        <time>2024-04-06T13:55:19Z</time>
      </trkpt>
      <trkpt lat="48.38394" lon="2.37237">
        <ele>90.4</ele>
        <time>2024-04-06T13:55:23Z</time>
      </trkpt>
      <trkpt lat="48.38398" lon="2.37239">
        <ele>90.4</ele>
        <time>2024-04-06T13:55:24Z</time>
      </trkpt>
      <trkpt lat="48.38405" lon="2.37243">
        <ele>90.4</ele>
        <time>2024-04-06T13:55:26Z</time>
      </trkpt>
      <trkpt lat="48.3842" lon="2.37256">
        <ele>90.8</ele>
        <time>2024-04-06T13:55:31Z</time>
      </trkpt>
      <trkpt lat="48.38433" lon="2.37268">
        <ele>91.2</ele>
        <time>2024-04-06T13:55:35Z</time>
      </trkpt>
      <trkpt lat="48.38436" lon="2.37271">
        <ele>91.2</ele>
        <time>2024-04-06T13:55:36Z</time>
      </trkpt>
      <trkpt lat="48.38441" lon="2.37278">
        <ele>91.6</ele>
        <time>2024-04-06T13:55:38Z</time>
      </trkpt>
      <trkpt lat="48.38443" lon="2.37282">
        <ele>91.6</ele>
        <time>2024-04-06T13:55:39Z</time>
      </trkpt>
      <trkpt lat="48.38456" lon="2.37299">
        <ele>92</ele>
        <time>2024-04-06T13:55:44Z</time>
      </trkpt>
      <trkpt lat="48.38476" lon="2.37321">
        <ele>92.4</ele>
        <time>2024-04-06T13:55:50Z</time>
      </trkpt>
      <trkpt lat="48.3848" lon="2.37324">
        <ele>92.4</ele>
        <time>2024-04-06T13:55:51Z</time>
      </trkpt>
      <trkpt lat="48.38502" lon="2.37341">
        <ele>92.4</ele>
        <time>2024-04-06T13:55:56Z</time>
      </trkpt>
      <trkpt lat="48.38509" lon="2.3735">
        <ele>92.4</ele>
        <time>2024-04-06T13:55:58Z</time>
      </trkpt>
      <trkpt lat="48.38522" lon="2.37364">
        <ele>91.8</ele>
        <time>2024-04-06T13:56:01Z</time>
      </trkpt>
      <trkpt lat="48.3853" lon="2.37368">
        <ele>91.6</ele>
        <time>2024-04-06T13:56:03Z</time>
      </trkpt>
      <trkpt lat="48.38538" lon="2.3737">
        <ele>91.2</ele>
        <time>2024-04-06T13:56:05Z</time>
      </trkpt>
      <trkpt lat="48.38549" lon="2.37375">
        <ele>89.8</ele>
        <time>2024-04-06T13:56:08Z</time>
      </trkpt>
      <trkpt lat="48.38561" lon="2.37382">
        <ele>89.2</ele>
        <time>2024-04-06T13:56:11Z</time>
      </trkpt>
      <trkpt lat="48.38585" lon="2.37401">
        <ele>89.2</ele>
        <time>2024-04-06T13:56:17Z</time>
      </trkpt>
      <trkpt lat="48.38605" lon="2.37418">
        <ele>89.2</ele>
        <time>2024-04-06T13:56:22Z</time>
      </trkpt>
      <trkpt lat="48.38608" lon="2.37418">
        <ele>89.2</ele>
        <time>2024-04-06T13:56:23Z</time>
      </trkpt>
      <trkpt lat="48.38609" lon="2.37414">
        <ele>89.2</ele>
        <time>2024-04-06T13:56:25Z</time>
      </trkpt>
      <trkpt lat="48.38608" lon="2.374">
        <ele>89.4</ele>
        <time>2024-04-06T13:56:30Z</time>
      </trkpt>
      <trkpt lat="48.38606" lon="2.37389">
        <ele>91</ele>
        <time>2024-04-06T13:56:35Z</time>
      </trkpt>
      <trkpt lat="48.38605" lon="2.37387">
        <ele>91.4</ele>
        <time>2024-04-06T13:56:36Z</time>
      </trkpt>
      <trkpt lat="48.38604" lon="2.37384">
        <ele>92.4</ele>
        <time>2024-04-06T13:56:38Z</time>
      </trkpt>
      <trkpt lat="48.38602" lon="2.37382">
        <ele>93.6</ele>
        <time>2024-04-06T13:56:40Z</time>
      </trkpt>
      <trkpt lat="48.386" lon="2.3738">
        <ele>94.2</ele>
        <time>2024-04-06T13:56:42Z</time>
      </trkpt>
      <trkpt lat="48.38599" lon="2.37378">
        <ele>95.2</ele>
        <time>2024-04-06T13:56:44Z</time>
      </trkpt>
      <trkpt lat="48.386" lon="2.37375">
        <ele>96.4</ele>
        <time>2024-04-06T13:56:47Z</time>
      </trkpt>
      <trkpt lat="48.386" lon="2.37375">
        <ele>96.8</ele>
        <time>2024-04-06T13:56:48Z</time>
      </trkpt>
      <trkpt lat="48.386" lon="2.37375">
        <ele>97.6</ele>
        <time>2024-04-06T13:56:50Z</time>
      </trkpt>
      <trkpt lat="48.386" lon="2.37374">
        <ele>98.6</ele>
        <time>2024-04-06T13:56:53Z</time>
      </trkpt>
      <trkpt lat="48.38601" lon="2.37374">
        <ele>99</ele>
        <time>2024-04-06T13:57:03Z</time>
      </trkpt>
      <trkpt lat="48.38599" lon="2.37375">
        <ele>99</ele>
        <time>2024-04-06T13:57:11Z</time>
      </trkpt>
      <trkpt lat="48.38598" lon="2.3737">
        <ele>99.8</ele>
        <time>2024-04-06T13:57:17Z</time>
      </trkpt>
      <trkpt lat="48.38598" lon="2.37366">
        <ele>100.6</ele>
        <time>2024-04-06T13:57:21Z</time>
      </trkpt>
      <trkpt lat="48.38597" lon="2.37361">
        <ele>100.8</ele>
        <time>2024-04-06T13:57:25Z</time>
      </trkpt>
      <trkpt lat="48.38596" lon="2.37354">
        <ele>102</ele>
        <time>2024-04-06T13:57:31Z</time>
      </trkpt>
      <trkpt lat="48.38596" lon="2.37353">
        <ele>102.2</ele>
        <time>2024-04-06T13:57:32Z</time>
      </trkpt>
      <trkpt lat="48.38596" lon="2.3735">
        <ele>103</ele>
        <time>2024-04-06T13:57:36Z</time>
      </trkpt>
      <trkpt lat="48.38595" lon="2.37348">
        <ele>104.4</ele>
        <time>2024-04-06T13:57:40Z</time>
      </trkpt>
      <trkpt lat="48.38595" lon="2.37348">
        <ele>104.6</ele>
        <time>2024-04-06T13:57:41Z</time>
      </trkpt>
      <trkpt lat="48.38594" lon="2.37347">
        <ele>105.4</ele>
        <time>2024-04-06T13:57:52Z</time>
      </trkpt>
      <trkpt lat="48.38594" lon="2.37347">
        <ele>105.4</ele>
        <time>2024-04-06T13:57:59Z</time>
      </trkpt>
      <trkpt lat="48.38592" lon="2.37346">
        <ele>105.2</ele>
        <time>2024-04-06T13:58:15Z</time>
      </trkpt>
      <trkpt lat="48.38594" lon="2.37343">
        <ele>106</ele>
        <time>2024-04-06T13:58:25Z</time>
      </trkpt>
      <trkpt lat="48.38596" lon="2.37338">
        <ele>106.4</ele>
        <time>2024-04-06T13:58:32Z</time>
      </trkpt>
      <trkpt lat="48.38597" lon="2.37338">
        <ele>106.6</ele>
        <time>2024-04-06T13:58:35Z</time>
      </trkpt>
      <trkpt lat="48.38598" lon="2.37335">
        <ele>107</ele>
        <time>2024-04-06T13:58:49Z</time>
      </trkpt>
      <trkpt lat="48.38597" lon="2.3733">
        <ele>107</ele>
        <time>2024-04-06T13:58:59Z</time>
      </trkpt>
      <trkpt lat="48.38595" lon="2.37309">
        <ele>107.4</ele>
        <time>2024-04-06T13:59:08Z</time>
      </trkpt>
      <trkpt lat="48.38595" lon="2.37306">
        <ele>107.6</ele>
        <time>2024-04-06T13:59:09Z</time>
      </trkpt>
      <trkpt lat="48.38595" lon="2.37294">
        <ele>109</ele>
        <time>2024-04-06T13:59:12Z</time>
      </trkpt>
      <trkpt lat="48.38595" lon="2.37285">
        <ele>109.4</ele>
        <time>2024-04-06T13:59:14Z</time>
      </trkpt>
      <trkpt lat="48.38595" lon="2.37263">
        <ele>110</ele>
        <time>2024-04-06T13:59:19Z</time>
      </trkpt>
      <trkpt lat="48.38593" lon="2.3725">
        <ele>110.6</ele>
        <time>2024-04-06T13:59:22Z</time>
      </trkpt>
      <trkpt lat="48.38592" lon="2.37238">
        <ele>111.2</ele>
        <time>2024-04-06T13:59:25Z</time>
      </trkpt>
      <trkpt lat="48.38592" lon="2.37228">
        <ele>111.8</ele>
        <time>2024-04-06T13:59:28Z</time>
      </trkpt>
      <trkpt lat="48.38592" lon="2.37218">
        <ele>112.6</ele>
        <time>2024-04-06T13:59:31Z</time>
      </trkpt>
      <trkpt lat="48.38592" lon="2.37216">
        <ele>112.6</ele>
        <time>2024-04-06T13:59:32Z</time>
      </trkpt>
      <trkpt lat="48.38594" lon="2.37212">
        <ele>113.6</ele>
        <time>2024-04-06T13:59:34Z</time>
      </trkpt>
      <trkpt lat="48.38599" lon="2.37205">
        <ele>114.6</ele>
        <time>2024-04-06T13:59:37Z</time>
      </trkpt>
      <trkpt lat="48.38604" lon="2.37197">
        <ele>115.6</ele>
        <time>2024-04-06T13:59:40Z</time>
      </trkpt>
      <trkpt lat="48.38612" lon="2.3719">
        <ele>116.8</ele>
        <time>2024-04-06T13:59:45Z</time>
      </trkpt>
      <trkpt lat="48.38621" lon="2.37179">
        <ele>117.6</ele>
        <time>2024-04-06T13:59:51Z</time>
      </trkpt>
      <trkpt lat="48.38622" lon="2.37177">
        <ele>118</ele>
        <time>2024-04-06T13:59:52Z</time>
      </trkpt>
      <trkpt lat="48.38631" lon="2.37166">
        <ele>118</ele>
        <time>2024-04-06T13:59:56Z</time>
      </trkpt>
      <trkpt lat="48.38641" lon="2.37148">
        <ele>118</ele>
        <time>2024-04-06T14:00:01Z</time>
      </trkpt>
      <trkpt lat="48.38644" lon="2.37119">
        <ele>118</ele>
        <time>2024-04-06T14:00:07Z</time>
      </trkpt>
      <trkpt lat="48.38643" lon="2.37103">
        <ele>118</ele>
        <time>2024-04-06T14:00:10Z</time>
      </trkpt>
      <trkpt lat="48.38644" lon="2.37089">
        <ele>118</ele>
        <time>2024-04-06T14:00:12Z</time>
      </trkpt>
      <trkpt lat="48.38645" lon="2.37082">
        <ele>118</ele>
        <time>2024-04-06T14:00:13Z</time>
      </trkpt>
      <trkpt lat="48.38649" lon="2.37061">
        <ele>117.8</ele>
        <time>2024-04-06T14:00:16Z</time>
      </trkpt>
      <trkpt lat="48.38647" lon="2.37031">
        <ele>117.4</ele>
        <time>2024-04-06T14:00:20Z</time>
      </trkpt>
      <trkpt lat="48.38643" lon="2.3701">
        <ele>117.2</ele>
        <time>2024-04-06T14:00:23Z</time>
      </trkpt>
      <trkpt lat="48.38641" lon="2.36985">
        <ele>117</ele>
        <time>2024-04-06T14:00:26Z</time>
      </trkpt>
      <trkpt lat="48.3864" lon="2.3697">
        <ele>116.6</ele>
        <time>2024-04-06T14:00:28Z</time>
      </trkpt>
      <trkpt lat="48.38636" lon="2.36955">
        <ele>116.4</ele>
        <time>2024-04-06T14:00:30Z</time>
      </trkpt>
      <trkpt lat="48.38635" lon="2.36947">
        <ele>116.2</ele>
        <time>2024-04-06T14:00:31Z</time>
      </trkpt>
      <trkpt lat="48.38636" lon="2.36931">
        <ele>116</ele>
        <time>2024-04-06T14:00:33Z</time>
      </trkpt>
      <trkpt lat="48.38639" lon="2.36905">
        <ele>115.8</ele>
        <time>2024-04-06T14:00:36Z</time>
      </trkpt>
      <trkpt lat="48.38639" lon="2.36898">
        <ele>115.6</ele>
        <time>2024-04-06T14:00:37Z</time>
      </trkpt>
      <trkpt lat="48.3864" lon="2.36893">
        <ele>115.4</ele>
        <time>2024-04-06T14:00:38Z</time>
      </trkpt>
      <trkpt lat="48.38644" lon="2.36889">
        <ele>115.4</ele>
        <time>2024-04-06T14:00:41Z</time>
      </trkpt>
      <trkpt lat="48.38648" lon="2.36896">
        <ele>114.6</ele>
        <time>2024-04-06T14:00:43Z</time>
      </trkpt>
      <trkpt lat="48.3865" lon="2.369">
        <ele>114.2</ele>
        <time>2024-04-06T14:00:44Z</time>
      </trkpt>
      <trkpt lat="48.38656" lon="2.36909">
        <ele>113.8</ele>
        <time>2024-04-06T14:00:46Z</time>
      </trkpt>
      <trkpt lat="48.38668" lon="2.36924">
        <ele>113.2</ele>
        <time>2024-04-06T14:00:49Z</time>
      </trkpt>
      <trkpt lat="48.38676" lon="2.36938">
        <ele>113</ele>
        <time>2024-04-06T14:00:51Z</time>
      </trkpt>
      <trkpt lat="48.38686" lon="2.36958">
        <ele>112.2</ele>
        <time>2024-04-06T14:00:54Z</time>
      </trkpt>
      <trkpt lat="48.38694" lon="2.36981">
        <ele>110.2</ele>
        <time>2024-04-06T14:00:57Z</time>
      </trkpt>
      <trkpt lat="48.387" lon="2.36999">
        <ele>109</ele>
        <time>2024-04-06T14:01:00Z</time>
      </trkpt>
      <trkpt lat="48.38704" lon="2.3701">
        <ele>108.6</ele>
        <time>2024-04-06T14:01:02Z</time>
      </trkpt>
      <trkpt lat="48.3871" lon="2.37025">
        <ele>108.4</ele>
        <time>2024-04-06T14:01:05Z</time>
      </trkpt>
      <trkpt lat="48.38716" lon="2.37037">
        <ele>108.4</ele>
        <time>2024-04-06T14:01:07Z</time>
      </trkpt>
      <trkpt lat="48.38723" lon="2.37052">
        <ele>108.8</ele>
        <time>2024-04-06T14:01:10Z</time>
      </trkpt>
      <trkpt lat="48.38725" lon="2.37056">
        <ele>109</ele>
        <time>2024-04-06T14:01:11Z</time>
      </trkpt>
      <trkpt lat="48.38734" lon="2.3708">
        <ele>109.4</ele>
        <time>2024-04-06T14:01:16Z</time>
      </trkpt>
      <trkpt lat="48.38747" lon="2.37099">
        <ele>110</ele>
        <time>2024-04-06T14:01:21Z</time>
      </trkpt>
      <trkpt lat="48.3875" lon="2.37102">
        <ele>110.2</ele>
        <time>2024-04-06T14:01:22Z</time>
      </trkpt>
      <trkpt lat="48.38759" lon="2.3711">
        <ele>111.4</ele>
        <time>2024-04-06T14:01:25Z</time>
      </trkpt>
      <trkpt lat="48.38763" lon="2.37113">
        <ele>111.6</ele>
        <time>2024-04-06T14:01:26Z</time>
      </trkpt>
      <trkpt lat="48.38771" lon="2.3712">
        <ele>111.8</ele>
        <time>2024-04-06T14:01:29Z</time>
      </trkpt>
      <trkpt lat="48.38774" lon="2.37127">
        <ele>111.8</ele>
        <time>2024-04-06T14:01:31Z</time>
      </trkpt>
      <trkpt lat="48.38778" lon="2.37136">
        <ele>111.8</ele>
        <time>2024-04-06T14:01:33Z</time>
      </trkpt>
      <trkpt lat="48.38784" lon="2.37152">
        <ele>111.8</ele>
        <time>2024-04-06T14:01:36Z</time>
      </trkpt>
      <trkpt lat="48.38789" lon="2.3717">
        <ele>111.8</ele>
        <time>2024-04-06T14:01:40Z</time>
      </trkpt>
      <trkpt lat="48.3879" lon="2.37191">
        <ele>111.8</ele>
        <time>2024-04-06T14:01:45Z</time>
      </trkpt>
      <trkpt lat="48.38791" lon="2.37199">
        <ele>112</ele>
        <time>2024-04-06T14:01:52Z</time>
      </trkpt>
      <trkpt lat="48.38794" lon="2.37216">
        <ele>112.4</ele>
        <time>2024-04-06T14:01:58Z</time>
      </trkpt>
      <trkpt lat="48.38793" lon="2.37219">
        <ele>112.4</ele>
        <time>2024-04-06T14:01:59Z</time>
      </trkpt>
      <trkpt lat="48.38791" lon="2.37226">
        <ele>112.4</ele>
        <time>2024-04-06T14:02:02Z</time>
      </trkpt>
      <trkpt lat="48.38789" lon="2.37228">
        <ele>112.4</ele>
        <time>2024-04-06T14:02:03Z</time>
      </trkpt>
      <trkpt lat="48.38786" lon="2.37231">
        <ele>112.6</ele>
        <time>2024-04-06T14:02:05Z</time>
      </trkpt>
      <trkpt lat="48.3878" lon="2.37234">
        <ele>112.6</ele>
        <time>2024-04-06T14:02:08Z</time>
      </trkpt>
      <trkpt lat="48.38771" lon="2.37235">
        <ele>114</ele>
        <time>2024-04-06T14:02:12Z</time>
      </trkpt>
      <trkpt lat="48.38766" lon="2.37234">
        <ele>115</ele>
        <time>2024-04-06T14:02:14Z</time>
      </trkpt>
      <trkpt lat="48.38764" lon="2.37234">
        <ele>115.4</ele>
        <time>2024-04-06T14:02:15Z</time>
      </trkpt>
      <trkpt lat="48.38759" lon="2.37235">
        <ele>116.2</ele>
        <time>2024-04-06T14:02:17Z</time>
      </trkpt>
      <trkpt lat="48.38754" lon="2.37236">
        <ele>117.4</ele>
        <time>2024-04-06T14:02:20Z</time>
      </trkpt>
      <trkpt lat="48.38754" lon="2.37236">
        <ele>117.8</ele>
        <time>2024-04-06T14:02:21Z</time>
      </trkpt>
      <trkpt lat="48.38753" lon="2.37237">
        <ele>118.4</ele>
        <time>2024-04-06T14:02:26Z</time>
      </trkpt>
      <trkpt lat="48.38753" lon="2.37237">
        <ele>118.8</ele>
        <time>2024-04-06T14:02:31Z</time>
      </trkpt>
      <trkpt lat="48.38752" lon="2.37237">
        <ele>119</ele>
        <time>2024-04-06T14:02:46Z</time>
      </trkpt>
      <trkpt lat="48.38753" lon="2.37237">
        <ele>119.2</ele>
        <time>2024-04-06T14:03:01Z</time>
      </trkpt>
      <trkpt lat="48.38748" lon="2.3724">
        <ele>119.2</ele>
        <time>2024-04-06T14:03:05Z</time>
      </trkpt>
      <trkpt lat="48.3873" lon="2.37246">
        <ele>119</ele>
        <time>2024-04-06T14:03:11Z</time>
      </trkpt>
      <trkpt lat="48.38706" lon="2.37252">
        <ele>118.8</ele>
        <time>2024-04-06T14:03:17Z</time>
      </trkpt>
      <trkpt lat="48.38673" lon="2.3726">
        <ele>118.2</ele>
        <time>2024-04-06T14:03:24Z</time>
      </trkpt>
      <trkpt lat="48.38658" lon="2.37267">
        <ele>118</ele>
        <time>2024-04-06T14:03:27Z</time>
      </trkpt>
      <trkpt lat="48.38652" lon="2.37278">
        <ele>118</ele>
        <time>2024-04-06T14:03:29Z</time>
      </trkpt>
      <trkpt lat="48.38655" lon="2.37297">
        <ele>117.8</ele>
        <time>2024-04-06T14:03:32Z</time>
      </trkpt>
      <trkpt lat="48.38661" lon="2.37321">
        <ele>117.2</ele>
        <time>2024-04-06T14:03:36Z</time>
      </trkpt>
      <trkpt lat="48.38662" lon="2.37323">
        <ele>116.8</ele>
        <time>2024-04-06T14:03:37Z</time>
      </trkpt>
      <trkpt lat="48.38665" lon="2.37326">
        <ele>116.4</ele>
        <time>2024-04-06T14:03:44Z</time>
      </trkpt>
      <trkpt lat="48.38669" lon="2.3734">
        <ele>116.6</ele>
        <time>2024-04-06T14:03:51Z</time>
      </trkpt>
      <trkpt lat="48.38675" lon="2.37355">
        <ele>116.6</ele>
        <time>2024-04-06T14:03:55Z</time>
      </trkpt>
      <trkpt lat="48.3868" lon="2.37364">
        <ele>116.2</ele>
        <time>2024-04-06T14:03:59Z</time>
      </trkpt>
      <trkpt lat="48.38682" lon="2.37364">
        <ele>115.8</ele>
        <time>2024-04-06T14:04:00Z</time>
      </trkpt>
      <trkpt lat="48.3869" lon="2.37368">
        <ele>115</ele>
        <time>2024-04-06T14:04:02Z</time>
      </trkpt>
      <trkpt lat="48.38694" lon="2.37373">
        <ele>114.8</ele>
        <time>2024-04-06T14:04:03Z</time>
      </trkpt>
      <trkpt lat="48.38697" lon="2.37378">
        <ele>114.8</ele>
        <time>2024-04-06T14:04:04Z</time>
      </trkpt>
      <trkpt lat="48.38705" lon="2.37394">
        <ele>114.2</ele>
        <time>2024-04-06T14:04:07Z</time>
      </trkpt>
      <trkpt lat="48.3871" lon="2.37401">
        <ele>112.8</ele>
        <time>2024-04-06T14:04:09Z</time>
      </trkpt>
      <trkpt lat="48.38712" lon="2.37402">
        <ele>111.4</ele>
        <time>2024-04-06T14:04:10Z</time>
      </trkpt>
      <trkpt lat="48.38714" lon="2.37402">
        <ele>110.6</ele>
        <time>2024-04-06T14:04:11Z</time>
      </trkpt>
      <trkpt lat="48.38715" lon="2.37402">
        <ele>110.4</ele>
        <time>2024-04-06T14:04:12Z</time>
      </trkpt>
      <trkpt lat="48.38722" lon="2.37404">
        <ele>110</ele>
        <time>2024-04-06T14:04:17Z</time>
      </trkpt>
      <trkpt lat="48.38726" lon="2.37407">
        <ele>110.6</ele>
        <time>2024-04-06T14:04:19Z</time>
      </trkpt>
      <trkpt lat="48.38728" lon="2.3741">
        <ele>111.4</ele>
        <time>2024-04-06T14:04:20Z</time>
      </trkpt>
      <trkpt lat="48.3873" lon="2.37413">
        <ele>112.2</ele>
        <time>2024-04-06T14:04:21Z</time>
      </trkpt>
      <trkpt lat="48.38733" lon="2.37417">
        <ele>113</ele>
        <time>2024-04-06T14:04:22Z</time>
      </trkpt>
      <trkpt lat="48.38735" lon="2.3742">
        <ele>113.4</ele>
        <time>2024-04-06T14:04:23Z</time>
      </trkpt>
      <trkpt lat="48.38738" lon="2.37424">
        <ele>113.6</ele>
        <time>2024-04-06T14:04:24Z</time>
      </trkpt>
      <trkpt lat="48.38746" lon="2.3743">
        <ele>113.8</ele>
        <time>2024-04-06T14:04:26Z</time>
      </trkpt>
      <trkpt lat="48.38755" lon="2.37439">
        <ele>114</ele>
        <time>2024-04-06T14:04:29Z</time>
      </trkpt>
      <trkpt lat="48.38758" lon="2.37441">
        <ele>114</ele>
        <time>2024-04-06T14:04:30Z</time>
      </trkpt>
      <trkpt lat="48.38775" lon="2.37453">
        <ele>113.6</ele>
        <time>2024-04-06T14:04:35Z</time>
      </trkpt>
      <trkpt lat="48.38791" lon="2.37445">
        <ele>113</ele>
        <time>2024-04-06T14:04:39Z</time>
      </trkpt>
      <trkpt lat="48.38798" lon="2.37443">
        <ele>113</ele>
        <time>2024-04-06T14:04:41Z</time>
      </trkpt>
      <trkpt lat="48.38802" lon="2.37441">
        <ele>111.2</ele>
        <time>2024-04-06T14:04:43Z</time>
      </trkpt>
      <trkpt lat="48.38803" lon="2.3744">
        <ele>110.2</ele>
        <time>2024-04-06T14:04:45Z</time>
      </trkpt>
      <trkpt lat="48.38804" lon="2.3744">
        <ele>110</ele>
        <time>2024-04-06T14:04:47Z</time>
      </trkpt>
      <trkpt lat="48.38811" lon="2.37434">
        <ele>110.4</ele>
        <time>2024-04-06T14:04:55Z</time>
      </trkpt>
      <trkpt lat="48.38824" lon="2.37425">
        <ele>110.4</ele>
        <time>2024-04-06T14:05:00Z</time>
      </trkpt>
      <trkpt lat="48.38828" lon="2.37418">
        <ele>110.4</ele>
        <time>2024-04-06T14:05:02Z</time>
      </trkpt>
      <trkpt lat="48.38829" lon="2.37415">
        <ele>110.4</ele>
        <time>2024-04-06T14:05:03Z</time>
      </trkpt>
      <trkpt lat="48.38832" lon="2.37396">
        <ele>110.2</ele>
        <time>2024-04-06T14:05:06Z</time>
      </trkpt>
      <trkpt lat="48.38836" lon="2.37383">
        <ele>108.4</ele>
        <time>2024-04-06T14:05:08Z</time>
      </trkpt>
      <trkpt lat="48.38838" lon="2.37377">
        <ele>107.4</ele>
        <time>2024-04-06T14:05:09Z</time>
      </trkpt>
      <trkpt lat="48.38843" lon="2.37366">
        <ele>106.4</ele>
        <time>2024-04-06T14:05:11Z</time>
      </trkpt>
      <trkpt lat="48.38846" lon="2.3736">
        <ele>106.2</ele>
        <time>2024-04-06T14:05:12Z</time>
      </trkpt>
      <trkpt lat="48.38848" lon="2.37354">
        <ele>104.8</ele>
        <time>2024-04-06T14:05:13Z</time>
      </trkpt>
      <trkpt lat="48.38849" lon="2.37344">
        <ele>103.2</ele>
        <time>2024-04-06T14:05:15Z</time>
      </trkpt>
      <trkpt lat="48.38847" lon="2.3733">
        <ele>101.6</ele>
        <time>2024-04-06T14:05:18Z</time>
      </trkpt>
      <trkpt lat="48.38846" lon="2.3732">
        <ele>100.6</ele>
        <time>2024-04-06T14:05:20Z</time>
      </trkpt>
      <trkpt lat="48.38841" lon="2.37303">
        <ele>100</ele>
        <time>2024-04-06T14:05:25Z</time>
      </trkpt>
      <trkpt lat="48.38834" lon="2.37281">
        <ele>101</ele>
        <time>2024-04-06T14:05:33Z</time>
      </trkpt>
      <trkpt lat="48.38833" lon="2.37278">
        <ele>101.4</ele>
        <time>2024-04-06T14:05:34Z</time>
      </trkpt>
      <trkpt lat="48.38833" lon="2.37274">
        <ele>102</ele>
        <time>2024-04-06T14:05:35Z</time>
      </trkpt>
      <trkpt lat="48.38831" lon="2.37265">
        <ele>103.2</ele>
        <time>2024-04-06T14:05:37Z</time>
      </trkpt>
      <trkpt lat="48.38832" lon="2.37261">
        <ele>103.4</ele>
        <time>2024-04-06T14:05:38Z</time>
      </trkpt>
      <trkpt lat="48.38837" lon="2.37254">
        <ele>103.4</ele>
        <time>2024-04-06T14:05:40Z</time>
      </trkpt>
      <trkpt lat="48.3885" lon="2.37237">
        <ele>103.6</ele>
        <time>2024-04-06T14:05:45Z</time>
      </trkpt>
      <trkpt lat="48.38855" lon="2.3723">
        <ele>101</ele>
        <time>2024-04-06T14:05:48Z</time>
      </trkpt>
      <trkpt lat="48.38856" lon="2.37229">
        <ele>99.4</ele>
        <time>2024-04-06T14:05:49Z</time>
      </trkpt>
      <trkpt lat="48.38855" lon="2.37228">
        <ele>97.8</ele>
        <time>2024-04-06T14:05:50Z</time>
      </trkpt>
      <trkpt lat="48.38855" lon="2.37226">
        <ele>95.8</ele>
        <time>2024-04-06T14:05:51Z</time>
      </trkpt>
      <trkpt lat="48.38855" lon="2.37224">
        <ele>94.2</ele>
        <time>2024-04-06T14:05:52Z</time>
      </trkpt>
      <trkpt lat="48.38856" lon="2.37222">
        <ele>93</ele>
        <time>2024-04-06T14:05:53Z</time>
      </trkpt>
      <trkpt lat="48.38858" lon="2.37219">
        <ele>92</ele>
        <time>2024-04-06T14:05:54Z</time>
      </trkpt>
      <trkpt lat="48.38864" lon="2.3721">
        <ele>90.4</ele>
        <time>2024-04-06T14:05:56Z</time>
      </trkpt>
      <trkpt lat="48.3887" lon="2.37201">
        <ele>89.8</ele>
        <time>2024-04-06T14:05:58Z</time>
      </trkpt>
      <trkpt lat="48.3887" lon="2.37197">
        <ele>89.6</ele>
        <time>2024-04-06T14:05:59Z</time>
      </trkpt>
      <trkpt lat="48.38865" lon="2.37189">
        <ele>89.4</ele>
        <time>2024-04-06T14:06:01Z</time>
      </trkpt>
      <trkpt lat="48.38858" lon="2.37176">
        <ele>88</ele>
        <time>2024-04-06T14:06:05Z</time>
      </trkpt>
      <trkpt lat="48.38853" lon="2.37167">
        <ele>87.4</ele>
        <time>2024-04-06T14:06:08Z</time>
      </trkpt>
      <trkpt lat="48.38845" lon="2.37151">
        <ele>87.8</ele>
        <time>2024-04-06T14:06:13Z</time>
      </trkpt>
      <trkpt lat="48.38835" lon="2.37135">
        <ele>89</ele>
        <time>2024-04-06T14:06:19Z</time>
      </trkpt>
      <trkpt lat="48.38834" lon="2.37132">
        <ele>89.4</ele>
        <time>2024-04-06T14:06:20Z</time>
      </trkpt>
      <trkpt lat="48.38826" lon="2.37122">
        <ele>90.2</ele>
        <time>2024-04-06T14:06:24Z</time>
      </trkpt>
      <trkpt lat="48.38823" lon="2.37119">
        <ele>90.4</ele>
        <time>2024-04-06T14:06:25Z</time>
      </trkpt>
      <trkpt lat="48.38814" lon="2.37108">
        <ele>91.2</ele>
        <time>2024-04-06T14:06:29Z</time>
      </trkpt>
      <trkpt lat="48.3881" lon="2.37103">
        <ele>91.6</ele>
        <time>2024-04-06T14:06:31Z</time>
      </trkpt>
      <trkpt lat="48.38798" lon="2.37091">
        <ele>92.4</ele>
        <time>2024-04-06T14:06:37Z</time>
      </trkpt>
      <trkpt lat="48.38796" lon="2.37088">
        <ele>92.6</ele>
        <time>2024-04-06T14:06:38Z</time>
      </trkpt>
      <trkpt lat="48.38789" lon="2.37079">
        <ele>93.6</ele>
        <time>2024-04-06T14:06:41Z</time>
      </trkpt>
      <trkpt lat="48.3878" lon="2.3707">
        <ele>94.4</ele>
        <time>2024-04-06T14:06:45Z</time>
      </trkpt>
      <trkpt lat="48.38776" lon="2.37064">
        <ele>94.8</ele>
        <time>2024-04-06T14:06:47Z</time>
      </trkpt>
      <trkpt lat="48.38775" lon="2.37058">
        <ele>95.2</ele>
        <time>2024-04-06T14:06:49Z</time>
      </trkpt>
      <trkpt lat="48.38778" lon="2.37051">
        <ele>95.8</ele>
        <time>2024-04-06T14:06:52Z</time>
      </trkpt>
      <trkpt lat="48.3878" lon="2.37048">
        <ele>96.2</ele>
        <time>2024-04-06T14:06:54Z</time>
      </trkpt>
      <trkpt lat="48.38789" lon="2.37038">
        <ele>96.8</ele>
        <time>2024-04-06T14:06:59Z</time>
      </trkpt>
      <trkpt lat="48.38806" lon="2.37025">
        <ele>97</ele>
        <time>2024-04-06T14:07:03Z</time>
      </trkpt>
      <trkpt lat="48.38819" lon="2.37014">
        <ele>95.4</ele>
        <time>2024-04-06T14:07:07Z</time>
      </trkpt>
      <trkpt lat="48.38823" lon="2.37011">
        <ele>93.4</ele>
        <time>2024-04-06T14:07:08Z</time>
      </trkpt>
      <trkpt lat="48.38825" lon="2.37009">
        <ele>91.4</ele>
        <time>2024-04-06T14:07:09Z</time>
      </trkpt>
      <trkpt lat="48.38826" lon="2.37006">
        <ele>89.8</ele>
        <time>2024-04-06T14:07:10Z</time>
      </trkpt>
      <trkpt lat="48.38828" lon="2.37003">
        <ele>88.6</ele>
        <time>2024-04-06T14:07:11Z</time>
      </trkpt>
      <trkpt lat="48.38831" lon="2.36996">
        <ele>86.6</ele>
        <time>2024-04-06T14:07:13Z</time>
      </trkpt>
      <trkpt lat="48.38833" lon="2.36989">
        <ele>85.4</ele>
        <time>2024-04-06T14:07:15Z</time>
      </trkpt>
      <trkpt lat="48.38835" lon="2.36985">
        <ele>84.8</ele>
        <time>2024-04-06T14:07:16Z</time>
      </trkpt>
      <trkpt lat="48.38839" lon="2.36975">
        <ele>84.4</ele>
        <time>2024-04-06T14:07:18Z</time>
      </trkpt>
      <trkpt lat="48.38841" lon="2.36961">
        <ele>83.6</ele>
        <time>2024-04-06T14:07:20Z</time>
      </trkpt>
      <trkpt lat="48.3884" lon="2.36955">
        <ele>83.2</ele>
        <time>2024-04-06T14:07:21Z</time>
      </trkpt>
      <trkpt lat="48.38839" lon="2.36949">
        <ele>82.8</ele>
        <time>2024-04-06T14:07:22Z</time>
      </trkpt>
      <trkpt lat="48.38836" lon="2.36939">
        <ele>81.6</ele>
        <time>2024-04-06T14:07:24Z</time>
      </trkpt>
      <trkpt lat="48.38832" lon="2.36931">
        <ele>80.6</ele>
        <time>2024-04-06T14:07:26Z</time>
      </trkpt>
      <trkpt lat="48.38824" lon="2.3692">
        <ele>79.6</ele>
        <time>2024-04-06T14:07:29Z</time>
      </trkpt>
      <trkpt lat="48.38816" lon="2.36898">
        <ele>79.4</ele>
        <time>2024-04-06T14:07:34Z</time>
      </trkpt>
      <trkpt lat="48.3882" lon="2.3688">
        <ele>79.6</ele>
        <time>2024-04-06T14:07:38Z</time>
      </trkpt>
      <trkpt lat="48.38828" lon="2.3687">
        <ele>80.2</ele>
        <time>2024-04-06T14:07:43Z</time>
      </trkpt>
      <trkpt lat="48.3883" lon="2.3687">
        <ele>80.4</ele>
        <time>2024-04-06T14:07:44Z</time>
      </trkpt>
      <trkpt lat="48.38835" lon="2.36868">
        <ele>81.4</ele>
        <time>2024-04-06T14:07:47Z</time>
      </trkpt>
      <trkpt lat="48.38837" lon="2.36867">
        <ele>81.8</ele>
        <time>2024-04-06T14:07:48Z</time>
      </trkpt>
      <trkpt lat="48.38839" lon="2.36866">
        <ele>82.4</ele>
        <time>2024-04-06T14:07:49Z</time>
      </trkpt>
      <trkpt lat="48.38841" lon="2.36866">
        <ele>82.8</ele>
        <time>2024-04-06T14:07:50Z</time>
      </trkpt>
      <trkpt lat="48.38855" lon="2.36864">
        <ele>83.8</ele>
        <time>2024-04-06T14:07:54Z</time>
      </trkpt>
      <trkpt lat="48.38864" lon="2.36863">
        <ele>83.8</ele>
        <time>2024-04-06T14:07:56Z</time>
      </trkpt>
      <trkpt lat="48.38877" lon="2.36863">
        <ele>83.8</ele>
        <time>2024-04-06T14:07:59Z</time>
      </trkpt>
      <trkpt lat="48.38882" lon="2.36864">
        <ele>83.8</ele>
        <time>2024-04-06T14:08:00Z</time>
      </trkpt>
      <trkpt lat="48.38897" lon="2.36873">
        <ele>83.4</ele>
        <time>2024-04-06T14:08:03Z</time>
      </trkpt>
      <trkpt lat="48.38905" lon="2.36888">
        <ele>82.4</ele>
        <time>2024-04-06T14:08:05Z</time>
      </trkpt>
      <trkpt lat="48.38909" lon="2.36896">
        <ele>82</ele>
        <time>2024-04-06T14:08:06Z</time>
      </trkpt>
      <trkpt lat="48.38912" lon="2.36905">
        <ele>81.2</ele>
        <time>2024-04-06T14:08:07Z</time>
      </trkpt>
      <trkpt lat="48.38923" lon="2.36932">
        <ele>80</ele>
        <time>2024-04-06T14:08:10Z</time>
      </trkpt>
      <trkpt lat="48.38934" lon="2.3696">
        <ele>78.8</ele>
        <time>2024-04-06T14:08:13Z</time>
      </trkpt>
      <trkpt lat="48.38938" lon="2.3697">
        <ele>78.4</ele>
        <time>2024-04-06T14:08:14Z</time>
      </trkpt>
      <trkpt lat="48.38946" lon="2.36988">
        <ele>77.6</ele>
        <time>2024-04-06T14:08:16Z</time>
      </trkpt>
      <trkpt lat="48.38958" lon="2.37017">
        <ele>76.6</ele>
        <time>2024-04-06T14:08:19Z</time>
      </trkpt>
      <trkpt lat="48.38971" lon="2.37047">
        <ele>75.6</ele>
        <time>2024-04-06T14:08:22Z</time>
      </trkpt>
      <trkpt lat="48.38975" lon="2.37056">
        <ele>75.4</ele>
        <time>2024-04-06T14:08:23Z</time>
      </trkpt>
      <trkpt lat="48.38991" lon="2.37095">
        <ele>74.2</ele>
        <time>2024-04-06T14:08:27Z</time>
      </trkpt>
      <trkpt lat="48.39002" lon="2.37124">
        <ele>73.2</ele>
        <time>2024-04-06T14:08:30Z</time>
      </trkpt>
      <trkpt lat="48.39015" lon="2.37152">
        <ele>72.2</ele>
        <time>2024-04-06T14:08:33Z</time>
      </trkpt>
      <trkpt lat="48.39031" lon="2.37189">
        <ele>71.6</ele>
        <time>2024-04-06T14:08:37Z</time>
      </trkpt>
      <trkpt lat="48.39042" lon="2.37216">
        <ele>71.2</ele>
        <time>2024-04-06T14:08:40Z</time>
      </trkpt>
      <trkpt lat="48.39052" lon="2.37241">
        <ele>70.8</ele>
        <time>2024-04-06T14:08:43Z</time>
      </trkpt>
      <trkpt lat="48.39073" lon="2.37287">
        <ele>70</ele>
        <time>2024-04-06T14:08:49Z</time>
      </trkpt>
      <trkpt lat="48.39077" lon="2.37294">
        <ele>70</ele>
        <time>2024-04-06T14:08:50Z</time>
      </trkpt>
      <trkpt lat="48.3911" lon="2.37353">
        <ele>69.4</ele>
        <time>2024-04-06T14:08:59Z</time>
      </trkpt>
      <trkpt lat="48.39116" lon="2.37364">
        <ele>69.2</ele>
        <time>2024-04-06T14:09:01Z</time>
      </trkpt>
      <trkpt lat="48.3913" lon="2.37382">
        <ele>69.2</ele>
        <time>2024-04-06T14:09:05Z</time>
      </trkpt>
      <trkpt lat="48.39142" lon="2.37379">
        <ele>69.2</ele>
        <time>2024-04-06T14:09:08Z</time>
      </trkpt>
      <trkpt lat="48.39146" lon="2.37375">
        <ele>69.2</ele>
        <time>2024-04-06T14:09:09Z</time>
      </trkpt>
      <trkpt lat="48.39158" lon="2.37362">
        <ele>69.4</ele>
        <time>2024-04-06T14:09:13Z</time>
      </trkpt>
      <trkpt lat="48.3916" lon="2.37358">
        <ele>69.4</ele>
        <time>2024-04-06T14:09:14Z</time>
      </trkpt>
      <trkpt lat="48.39162" lon="2.37342">
        <ele>69.4</ele>
        <time>2024-04-06T14:09:17Z</time>
      </trkpt>
      <trkpt lat="48.39175" lon="2.3729">
        <ele>70.8</ele>
        <time>2024-04-06T14:09:26Z</time>
      </trkpt>
      <trkpt lat="48.39185" lon="2.3727">
        <ele>71</ele>
        <time>2024-04-06T14:09:30Z</time>
      </trkpt>
      <trkpt lat="48.39196" lon="2.37245">
        <ele>71.4</ele>
        <time>2024-04-06T14:09:35Z</time>
      </trkpt>
      <trkpt lat="48.39209" lon="2.37223">
        <ele>72</ele>
        <time>2024-04-06T14:09:40Z</time>
      </trkpt>
      <trkpt lat="48.39212" lon="2.3722">
        <ele>72</ele>
        <time>2024-04-06T14:09:41Z</time>
      </trkpt>
      <trkpt lat="48.39216" lon="2.37219">
        <ele>72.2</ele>
        <time>2024-04-06T14:09:42Z</time>
      </trkpt>
      <trkpt lat="48.39219" lon="2.3722">
        <ele>72.2</ele>
        <time>2024-04-06T14:09:43Z</time>
      </trkpt>
      <trkpt lat="48.39227" lon="2.37223">
        <ele>72.2</ele>
        <time>2024-04-06T14:09:45Z</time>
      </trkpt>
      <trkpt lat="48.39245" lon="2.37231">
        <ele>72.8</ele>
        <time>2024-04-06T14:09:49Z</time>
      </trkpt>
      <trkpt lat="48.39249" lon="2.37234">
        <ele>73.2</ele>
        <time>2024-04-06T14:09:50Z</time>
      </trkpt>
      <trkpt lat="48.39266" lon="2.37242">
        <ele>74.2</ele>
        <time>2024-04-06T14:09:54Z</time>
      </trkpt>
      <trkpt lat="48.39274" lon="2.37247">
        <ele>74.6</ele>
        <time>2024-04-06T14:09:56Z</time>
      </trkpt>
      <trkpt lat="48.3929" lon="2.37253">
        <ele>75.4</ele>
        <time>2024-04-06T14:10:00Z</time>
      </trkpt>
      <trkpt lat="48.39301" lon="2.37257">
        <ele>76</ele>
        <time>2024-04-06T14:10:03Z</time>
      </trkpt>
      <trkpt lat="48.39309" lon="2.3726">
        <ele>76.4</ele>
        <time>2024-04-06T14:10:05Z</time>
      </trkpt>
      <trkpt lat="48.39331" lon="2.37264">
        <ele>77.6</ele>
        <time>2024-04-06T14:10:10Z</time>
      </trkpt>
      <trkpt lat="48.39349" lon="2.37282">
        <ele>78.4</ele>
        <time>2024-04-06T14:10:15Z</time>
      </trkpt>
      <trkpt lat="48.39354" lon="2.37295">
        <ele>78.6</ele>
        <time>2024-04-06T14:10:17Z</time>
      </trkpt>
      <trkpt lat="48.39364" lon="2.37325">
        <ele>79.4</ele>
        <time>2024-04-06T14:10:22Z</time>
      </trkpt>
      <trkpt lat="48.39368" lon="2.37336">
        <ele>80</ele>
        <time>2024-04-06T14:10:24Z</time>
      </trkpt>
      <trkpt lat="48.39375" lon="2.37357">
        <ele>81</ele>
        <time>2024-04-06T14:10:28Z</time>
      </trkpt>
      <trkpt lat="48.39376" lon="2.37362">
        <ele>81.2</ele>
        <time>2024-04-06T14:10:29Z</time>
      </trkpt>
      <trkpt lat="48.39381" lon="2.37375">
        <ele>82</ele>
        <time>2024-04-06T14:10:33Z</time>
      </trkpt>
      <trkpt lat="48.39383" lon="2.37376">
        <ele>82</ele>
        <time>2024-04-06T14:10:34Z</time>
      </trkpt>
      <trkpt lat="48.39388" lon="2.37375">
        <ele>82.4</ele>
        <time>2024-04-06T14:10:36Z</time>
      </trkpt>
      <trkpt lat="48.39397" lon="2.37366">
        <ele>82.6</ele>
        <time>2024-04-06T14:10:39Z</time>
      </trkpt>
      <trkpt lat="48.39404" lon="2.37356">
        <ele>83</ele>
        <time>2024-04-06T14:10:42Z</time>
      </trkpt>
      <trkpt lat="48.39406" lon="2.37352">
        <ele>83</ele>
        <time>2024-04-06T14:10:43Z</time>
      </trkpt>
      <trkpt lat="48.39421" lon="2.37328">
        <ele>84.2</ele>
        <time>2024-04-06T14:10:51Z</time>
      </trkpt>
      <trkpt lat="48.39423" lon="2.37325">
        <ele>84.4</ele>
        <time>2024-04-06T14:10:52Z</time>
      </trkpt>
      <trkpt lat="48.39426" lon="2.3732">
        <ele>85.6</ele>
        <time>2024-04-06T14:10:54Z</time>
      </trkpt>
      <trkpt lat="48.39433" lon="2.37308">
        <ele>86.8</ele>
        <time>2024-04-06T14:10:58Z</time>
      </trkpt>
      <trkpt lat="48.39436" lon="2.37302">
        <ele>87.4</ele>
        <time>2024-04-06T14:11:00Z</time>
      </trkpt>
      <trkpt lat="48.39439" lon="2.37298">
        <ele>88.2</ele>
        <time>2024-04-06T14:11:02Z</time>
      </trkpt>
      <trkpt lat="48.39446" lon="2.37285">
        <ele>89.2</ele>
        <time>2024-04-06T14:11:07Z</time>
      </trkpt>
      <trkpt lat="48.39447" lon="2.37283">
        <ele>89.6</ele>
        <time>2024-04-06T14:11:08Z</time>
      </trkpt>
      <trkpt lat="48.3945" lon="2.37278">
        <ele>90.4</ele>
        <time>2024-04-06T14:11:10Z</time>
      </trkpt>
      <trkpt lat="48.39454" lon="2.37266">
        <ele>91.8</ele>
        <time>2024-04-06T14:11:14Z</time>
      </trkpt>
      <trkpt lat="48.39454" lon="2.37263">
        <ele>92</ele>
        <time>2024-04-06T14:11:15Z</time>
      </trkpt>
      <trkpt lat="48.39457" lon="2.37252">
        <ele>92.8</ele>
        <time>2024-04-06T14:11:18Z</time>
      </trkpt>
      <trkpt lat="48.39461" lon="2.37243">
        <ele>94</ele>
        <time>2024-04-06T14:11:21Z</time>
      </trkpt>
      <trkpt lat="48.39468" lon="2.37226">
        <ele>94.8</ele>
        <time>2024-04-06T14:11:27Z</time>
      </trkpt>
      <trkpt lat="48.39469" lon="2.37222">
        <ele>95</ele>
        <time>2024-04-06T14:11:28Z</time>
      </trkpt>
      <trkpt lat="48.39473" lon="2.37204">
        <ele>96.2</ele>
        <time>2024-04-06T14:11:33Z</time>
      </trkpt>
      <trkpt lat="48.39476" lon="2.3719">
        <ele>97.4</ele>
        <time>2024-04-06T14:11:37Z</time>
      </trkpt>
      <trkpt lat="48.39478" lon="2.37171">
        <ele>98.2</ele>
        <time>2024-04-06T14:11:42Z</time>
      </trkpt>
      <trkpt lat="48.39479" lon="2.37167">
        <ele>98.4</ele>
        <time>2024-04-06T14:11:43Z</time>
      </trkpt>
      <trkpt lat="48.39483" lon="2.37151">
        <ele>99.2</ele>
        <time>2024-04-06T14:11:48Z</time>
      </trkpt>
      <trkpt lat="48.39483" lon="2.37144">
        <ele>99.8</ele>
        <time>2024-04-06T14:11:50Z</time>
      </trkpt>
      <trkpt lat="48.3948" lon="2.37128">
        <ele>100.8</ele>
        <time>2024-04-06T14:11:55Z</time>
      </trkpt>
      <trkpt lat="48.39475" lon="2.37119">
        <ele>102</ele>
        <time>2024-04-06T14:11:59Z</time>
      </trkpt>
      <trkpt lat="48.39473" lon="2.37115">
        <ele>102.4</ele>
        <time>2024-04-06T14:12:01Z</time>
      </trkpt>
      <trkpt lat="48.39471" lon="2.37102">
        <ele>103.4</ele>
        <time>2024-04-06T14:12:05Z</time>
      </trkpt>
      <trkpt lat="48.3947" lon="2.37099">
        <ele>104</ele>
        <time>2024-04-06T14:12:06Z</time>
      </trkpt>
      <trkpt lat="48.39469" lon="2.37096">
        <ele>104.4</ele>
        <time>2024-04-06T14:12:07Z</time>
      </trkpt>
      <trkpt lat="48.39466" lon="2.37087">
        <ele>105.4</ele>
        <time>2024-04-06T14:12:11Z</time>
      </trkpt>
      <trkpt lat="48.39466" lon="2.37086">
        <ele>106.6</ele>
        <time>2024-04-06T14:12:15Z</time>
      </trkpt>
      <trkpt lat="48.39466" lon="2.37084">
        <ele>107.4</ele>
        <time>2024-04-06T14:12:17Z</time>
      </trkpt>
      <trkpt lat="48.39466" lon="2.37082">
        <ele>107.8</ele>
        <time>2024-04-06T14:12:18Z</time>
      </trkpt>
      <trkpt lat="48.39466" lon="2.37079">
        <ele>109</ele>
        <time>2024-04-06T14:12:20Z</time>
      </trkpt>
      <trkpt lat="48.39467" lon="2.37078">
        <ele>109.4</ele>
        <time>2024-04-06T14:12:21Z</time>
      </trkpt>
      <trkpt lat="48.39469" lon="2.37073">
        <ele>110</ele>
        <time>2024-04-06T14:12:26Z</time>
      </trkpt>
      <trkpt lat="48.39471" lon="2.37069">
        <ele>111.2</ele>
        <time>2024-04-06T14:12:31Z</time>
      </trkpt>
      <trkpt lat="48.39473" lon="2.37066">
        <ele>112</ele>
        <time>2024-04-06T14:12:34Z</time>
      </trkpt>
      <trkpt lat="48.39473" lon="2.37065">
        <ele>112.4</ele>
        <time>2024-04-06T14:12:35Z</time>
      </trkpt>
      <trkpt lat="48.39478" lon="2.37056">
        <ele>113.4</ele>
        <time>2024-04-06T14:12:41Z</time>
      </trkpt>
      <trkpt lat="48.39479" lon="2.37051">
        <ele>114</ele>
        <time>2024-04-06T14:12:45Z</time>
      </trkpt>
      <trkpt lat="48.39479" lon="2.37047">
        <ele>114.6</ele>
        <time>2024-04-06T14:12:47Z</time>
      </trkpt>
      <trkpt lat="48.39481" lon="2.37036">
        <ele>114.8</ele>
        <time>2024-04-06T14:12:51Z</time>
      </trkpt>
      <trkpt lat="48.3949" lon="2.37038">
        <ele>115</ele>
        <time>2024-04-06T14:12:55Z</time>
      </trkpt>
      <trkpt lat="48.39496" lon="2.37045">
        <ele>115</ele>
        <time>2024-04-06T14:12:58Z</time>
      </trkpt>
      <trkpt lat="48.39503" lon="2.37054">
        <ele>115.4</ele>
        <time>2024-04-06T14:13:01Z</time>
      </trkpt>
      <trkpt lat="48.39505" lon="2.37057">
        <ele>115.8</ele>
        <time>2024-04-06T14:13:02Z</time>
      </trkpt>
      <trkpt lat="48.39507" lon="2.37072">
        <ele>116.2</ele>
        <time>2024-04-06T14:13:06Z</time>
      </trkpt>
      <trkpt lat="48.39507" lon="2.37087">
        <ele>116.2</ele>
        <time>2024-04-06T14:13:09Z</time>
      </trkpt>
      <trkpt lat="48.39508" lon="2.37091">
        <ele>116.2</ele>
        <time>2024-04-06T14:13:10Z</time>
      </trkpt>
      <trkpt lat="48.39508" lon="2.37093">
        <ele>116.2</ele>
        <time>2024-04-06T14:13:13Z</time>
      </trkpt>
      <trkpt lat="48.39508" lon="2.37095">
        <ele>116</ele>
        <time>2024-04-06T14:13:32Z</time>
      </trkpt>
      <trkpt lat="48.39508" lon="2.37102">
        <ele>116</ele>
        <time>2024-04-06T14:13:42Z</time>
      </trkpt>
      <trkpt lat="48.39508" lon="2.37104">
        <ele>116</ele>
        <time>2024-04-06T14:13:43Z</time>
      </trkpt>
      <trkpt lat="48.39514" lon="2.37119">
        <ele>116.2</ele>
        <time>2024-04-06T14:13:49Z</time>
      </trkpt>
      <trkpt lat="48.39521" lon="2.3713">
        <ele>116.2</ele>
        <time>2024-04-06T14:13:53Z</time>
      </trkpt>
      <trkpt lat="48.39522" lon="2.37143">
        <ele>116.2</ele>
        <time>2024-04-06T14:13:57Z</time>
      </trkpt>
      <trkpt lat="48.39525" lon="2.37161">
        <ele>116.4</ele>
        <time>2024-04-06T14:14:01Z</time>
      </trkpt>
      <trkpt lat="48.39531" lon="2.37164">
        <ele>116.2</ele>
        <time>2024-04-06T14:14:05Z</time>
      </trkpt>
      <trkpt lat="48.39539" lon="2.37174">
        <ele>116.2</ele>
        <time>2024-04-06T14:14:10Z</time>
      </trkpt>
      <trkpt lat="48.39544" lon="2.37178">
        <ele>116</ele>
        <time>2024-04-06T14:14:14Z</time>
      </trkpt>
      <trkpt lat="48.39541" lon="2.37178">
        <ele>115.6</ele>
        <time>2024-04-06T14:14:25Z</time>
      </trkpt>
      <trkpt lat="48.39533" lon="2.37169">
        <ele>115.6</ele>
        <time>2024-04-06T14:14:33Z</time>
      </trkpt>
      <trkpt lat="48.39536" lon="2.37158">
        <ele>115.6</ele>
        <time>2024-04-06T14:14:38Z</time>
      </trkpt>
      <trkpt lat="48.39543" lon="2.37153">
        <ele>116.2</ele>
        <time>2024-04-06T14:14:44Z</time>
      </trkpt>
      <trkpt lat="48.39545" lon="2.37154">
        <ele>116.4</ele>
        <time>2024-04-06T14:14:45Z</time>
      </trkpt>
      <trkpt lat="48.39553" lon="2.37168">
        <ele>116.6</ele>
        <time>2024-04-06T14:14:49Z</time>
      </trkpt>
      <trkpt lat="48.39562" lon="2.37192">
        <ele>116.4</ele>
        <time>2024-04-06T14:14:54Z</time>
      </trkpt>
      <trkpt lat="48.39565" lon="2.37202">
        <ele>116.6</ele>
        <time>2024-04-06T14:14:56Z</time>
      </trkpt>
      <trkpt lat="48.39564" lon="2.37215">
        <ele>116.6</ele>
        <time>2024-04-06T14:14:59Z</time>
      </trkpt>
      <trkpt lat="48.39563" lon="2.37217">
        <ele>116.6</ele>
        <time>2024-04-06T14:15:00Z</time>
      </trkpt>
      <trkpt lat="48.39552" lon="2.37224">
        <ele>116.8</ele>
        <time>2024-04-06T14:15:04Z</time>
      </trkpt>
      <trkpt lat="48.39541" lon="2.37238">
        <ele>116.8</ele>
        <time>2024-04-06T14:15:08Z</time>
      </trkpt>
      <trkpt lat="48.39537" lon="2.37249">
        <ele>116.8</ele>
        <time>2024-04-06T14:15:11Z</time>
      </trkpt>
      <trkpt lat="48.39534" lon="2.37265">
        <ele>116.4</ele>
        <time>2024-04-06T14:15:15Z</time>
      </trkpt>
      <trkpt lat="48.39526" lon="2.37285">
        <ele>115.4</ele>
        <time>2024-04-06T14:15:18Z</time>
      </trkpt>
      <trkpt lat="48.39526" lon="2.37291">
        <ele>115.2</ele>
        <time>2024-04-06T14:15:19Z</time>
      </trkpt>
      <trkpt lat="48.3953" lon="2.373">
        <ele>115</ele>
        <time>2024-04-06T14:15:21Z</time>
      </trkpt>
      <trkpt lat="48.39538" lon="2.37301">
        <ele>113.6</ele>
        <time>2024-04-06T14:15:23Z</time>
      </trkpt>
      <trkpt lat="48.39541" lon="2.37302">
        <ele>112.2</ele>
        <time>2024-04-06T14:15:24Z</time>
      </trkpt>
      <trkpt lat="48.39544" lon="2.37303">
        <ele>110.2</ele>
        <time>2024-04-06T14:15:25Z</time>
      </trkpt>
      <trkpt lat="48.39547" lon="2.37305">
        <ele>108.4</ele>
        <time>2024-04-06T14:15:26Z</time>
      </trkpt>
      <trkpt lat="48.39549" lon="2.37307">
        <ele>107</ele>
        <time>2024-04-06T14:15:27Z</time>
      </trkpt>
      <trkpt lat="48.39555" lon="2.37313">
        <ele>105.8</ele>
        <time>2024-04-06T14:15:29Z</time>
      </trkpt>
      <trkpt lat="48.39559" lon="2.37317">
        <ele>105.6</ele>
        <time>2024-04-06T14:15:30Z</time>
      </trkpt>
      <trkpt lat="48.39568" lon="2.37324">
        <ele>105.2</ele>
        <time>2024-04-06T14:15:32Z</time>
      </trkpt>
      <trkpt lat="48.39576" lon="2.37326">
        <ele>104.8</ele>
        <time>2024-04-06T14:15:34Z</time>
      </trkpt>
      <trkpt lat="48.39588" lon="2.37327">
        <ele>103.8</ele>
        <time>2024-04-06T14:15:38Z</time>
      </trkpt>
      <trkpt lat="48.39589" lon="2.37327">
        <ele>103</ele>
        <time>2024-04-06T14:15:39Z</time>
      </trkpt>
      <trkpt lat="48.3959" lon="2.37328">
        <ele>102.2</ele>
        <time>2024-04-06T14:15:40Z</time>
      </trkpt>
      <trkpt lat="48.39591" lon="2.37331">
        <ele>101.4</ele>
        <time>2024-04-06T14:15:48Z</time>
      </trkpt>
      <trkpt lat="48.3959" lon="2.37335">
        <ele>101.2</ele>
        <time>2024-04-06T14:15:57Z</time>
      </trkpt>
      <trkpt lat="48.39591" lon="2.37339">
        <ele>101</ele>
        <time>2024-04-06T14:16:04Z</time>
      </trkpt>
      <trkpt lat="48.396" lon="2.37344">
        <ele>100.8</ele>
        <time>2024-04-06T14:16:14Z</time>
      </trkpt>
      <trkpt lat="48.39604" lon="2.37344">
        <ele>100</ele>
        <time>2024-04-06T14:16:21Z</time>
      </trkpt>
      <trkpt lat="48.39607" lon="2.37345">
        <ele>100</ele>
        <time>2024-04-06T14:16:23Z</time>
      </trkpt>
      <trkpt lat="48.39611" lon="2.37345">
        <ele>99.8</ele>
        <time>2024-04-06T14:16:25Z</time>
      </trkpt>
      <trkpt lat="48.39613" lon="2.3734">
        <ele>99.8</ele>
        <time>2024-04-06T14:16:28Z</time>
      </trkpt>
      <trkpt lat="48.39618" lon="2.37326">
        <ele>99.8</ele>
        <time>2024-04-06T14:16:34Z</time>
      </trkpt>
      <trkpt lat="48.3962" lon="2.37312">
        <ele>100</ele>
        <time>2024-04-06T14:16:40Z</time>
      </trkpt>
      <trkpt lat="48.39621" lon="2.37309">
        <ele>100.4</ele>
        <time>2024-04-06T14:16:41Z</time>
      </trkpt>
      <trkpt lat="48.39622" lon="2.37302">
        <ele>101.6</ele>
        <time>2024-04-06T14:16:44Z</time>
      </trkpt>
      <trkpt lat="48.39624" lon="2.37295">
        <ele>103</ele>
        <time>2024-04-06T14:16:47Z</time>
      </trkpt>
      <trkpt lat="48.39625" lon="2.37287">
        <ele>104.2</ele>
        <time>2024-04-06T14:16:50Z</time>
      </trkpt>
      <trkpt lat="48.39627" lon="2.37275">
        <ele>105.6</ele>
        <time>2024-04-06T14:16:54Z</time>
      </trkpt>
      <trkpt lat="48.39626" lon="2.37267">
        <ele>106.6</ele>
        <time>2024-04-06T14:16:57Z</time>
      </trkpt>
      <trkpt lat="48.39626" lon="2.3726">
        <ele>107.4</ele>
        <time>2024-04-06T14:17:00Z</time>
      </trkpt>
      <trkpt lat="48.39627" lon="2.37257">
        <ele>107.6</ele>
        <time>2024-04-06T14:17:01Z</time>
      </trkpt>
      <trkpt lat="48.39627" lon="2.37253">
        <ele>108.2</ele>
        <time>2024-04-06T14:17:03Z</time>
      </trkpt>
      <trkpt lat="48.39628" lon="2.3725">
        <ele>108.8</ele>
        <time>2024-04-06T14:17:04Z</time>
      </trkpt>
      <trkpt lat="48.3963" lon="2.37244">
        <ele>109.4</ele>
        <time>2024-04-06T14:17:06Z</time>
      </trkpt>
      <trkpt lat="48.39631" lon="2.37242">
        <ele>110</ele>
        <time>2024-04-06T14:17:07Z</time>
      </trkpt>
      <trkpt lat="48.39632" lon="2.37235">
        <ele>111</ele>
        <time>2024-04-06T14:17:10Z</time>
      </trkpt>
      <trkpt lat="48.39634" lon="2.37221">
        <ele>111.8</ele>
        <time>2024-04-06T14:17:14Z</time>
      </trkpt>
      <trkpt lat="48.39634" lon="2.37217">
        <ele>112</ele>
        <time>2024-04-06T14:17:15Z</time>
      </trkpt>
      <trkpt lat="48.39634" lon="2.37201">
        <ele>113.2</ele>
        <time>2024-04-06T14:17:19Z</time>
      </trkpt>
      <trkpt lat="48.39634" lon="2.37198">
        <ele>113.6</ele>
        <time>2024-04-06T14:17:20Z</time>
      </trkpt>
      <trkpt lat="48.39634" lon="2.37188">
        <ele>113.8</ele>
        <time>2024-04-06T14:17:23Z</time>
      </trkpt>
      <trkpt lat="48.39633" lon="2.37177">
        <ele>113.8</ele>
        <time>2024-04-06T14:17:26Z</time>
      </trkpt>
      <trkpt lat="48.39636" lon="2.37167">
        <ele>114.2</ele>
        <time>2024-04-06T14:17:29Z</time>
      </trkpt>
      <trkpt lat="48.39637" lon="2.37163">
        <ele>114.4</ele>
        <time>2024-04-06T14:17:30Z</time>
      </trkpt>
      <trkpt lat="48.39638" lon="2.37159">
        <ele>114.8</ele>
        <time>2024-04-06T14:17:31Z</time>
      </trkpt>
      <trkpt lat="48.39645" lon="2.3715">
        <ele>115.6</ele>
        <time>2024-04-06T14:17:35Z</time>
      </trkpt>
      <trkpt lat="48.39648" lon="2.37144">
        <ele>115.8</ele>
        <time>2024-04-06T14:17:37Z</time>
      </trkpt>
      <trkpt lat="48.39662" lon="2.37127">
        <ele>116.6</ele>
        <time>2024-04-06T14:17:43Z</time>
      </trkpt>
      <trkpt lat="48.39664" lon="2.37123">
        <ele>116.8</ele>
        <time>2024-04-06T14:17:44Z</time>
      </trkpt>
      <trkpt lat="48.39676" lon="2.37102">
        <ele>117</ele>
        <time>2024-04-06T14:17:49Z</time>
      </trkpt>
      <trkpt lat="48.39689" lon="2.37082">
        <ele>117.4</ele>
        <time>2024-04-06T14:17:55Z</time>
      </trkpt>
      <trkpt lat="48.39698" lon="2.37067">
        <ele>117.6</ele>
        <time>2024-04-06T14:17:59Z</time>
      </trkpt>
      <trkpt lat="48.39702" lon="2.37058">
        <ele>117.8</ele>
        <time>2024-04-06T14:18:01Z</time>
      </trkpt>
      <trkpt lat="48.39709" lon="2.37029">
        <ele>118</ele>
        <time>2024-04-06T14:18:07Z</time>
      </trkpt>
      <trkpt lat="48.39705" lon="2.37018">
        <ele>118</ele>
        <time>2024-04-06T14:18:09Z</time>
      </trkpt>
      <trkpt lat="48.39701" lon="2.37015">
        <ele>118</ele>
        <time>2024-04-06T14:18:10Z</time>
      </trkpt>
      <trkpt lat="48.39686" lon="2.37006">
        <ele>117.4</ele>
        <time>2024-04-06T14:18:14Z</time>
      </trkpt>
      <trkpt lat="48.39679" lon="2.37">
        <ele>116.6</ele>
        <time>2024-04-06T14:18:16Z</time>
      </trkpt>
      <trkpt lat="48.39667" lon="2.36993">
        <ele>116.2</ele>
        <time>2024-04-06T14:18:19Z</time>
      </trkpt>
      <trkpt lat="48.39654" lon="2.36977">
        <ele>116</ele>
        <time>2024-04-06T14:18:23Z</time>
      </trkpt>
      <trkpt lat="48.39649" lon="2.36977">
        <ele>116</ele>
        <time>2024-04-06T14:18:25Z</time>
      </trkpt>
      <trkpt lat="48.39647" lon="2.36979">
        <ele>116</ele>
        <time>2024-04-06T14:18:26Z</time>
      </trkpt>
      <trkpt lat="48.39638" lon="2.36974">
        <ele>116</ele>
        <time>2024-04-06T14:18:30Z</time>
      </trkpt>
      <trkpt lat="48.39635" lon="2.36972">
        <ele>116</ele>
        <time>2024-04-06T14:18:31Z</time>
      </trkpt>
      <trkpt lat="48.39627" lon="2.36974">
        <ele>116</ele>
        <time>2024-04-06T14:18:33Z</time>
      </trkpt>
      <trkpt lat="48.39615" lon="2.36989">
        <ele>115.8</ele>
        <time>2024-04-06T14:18:37Z</time>
      </trkpt>
      <trkpt lat="48.39611" lon="2.36991">
        <ele>115.6</ele>
        <time>2024-04-06T14:18:38Z</time>
      </trkpt>
      <trkpt lat="48.39603" lon="2.36993">
        <ele>115.6</ele>
        <time>2024-04-06T14:18:40Z</time>
      </trkpt>
      <trkpt lat="48.39599" lon="2.36994">
        <ele>115.6</ele>
        <time>2024-04-06T14:18:41Z</time>
      </trkpt>
      <trkpt lat="48.3958" lon="2.36999">
        <ele>115.6</ele>
        <time>2024-04-06T14:18:46Z</time>
      </trkpt>
      <trkpt lat="48.39559" lon="2.37007">
        <ele>116.2</ele>
        <time>2024-04-06T14:18:51Z</time>
      </trkpt>
      <trkpt lat="48.39554" lon="2.37007">
        <ele>116.4</ele>
        <time>2024-04-06T14:18:52Z</time>
      </trkpt>
      <trkpt lat="48.39547" lon="2.37004">
        <ele>116.6</ele>
        <time>2024-04-06T14:18:54Z</time>
      </trkpt>
      <trkpt lat="48.39545" lon="2.37001">
        <ele>116.6</ele>
        <time>2024-04-06T14:18:55Z</time>
      </trkpt>
      <trkpt lat="48.39544" lon="2.36997">
        <ele>116.6</ele>
        <time>2024-04-06T14:18:56Z</time>
      </trkpt>
      <trkpt lat="48.39544" lon="2.36982">
        <ele>116.8</ele>
        <time>2024-04-06T14:18:59Z</time>
      </trkpt>
      <trkpt lat="48.39552" lon="2.36967">
        <ele>116.8</ele>
        <time>2024-04-06T14:19:03Z</time>
      </trkpt>
      <trkpt lat="48.3957" lon="2.36953">
        <ele>117.6</ele>
        <time>2024-04-06T14:19:09Z</time>
      </trkpt>
      <trkpt lat="48.3958" lon="2.36949">
        <ele>119</ele>
        <time>2024-04-06T14:19:12Z</time>
      </trkpt>
      <trkpt lat="48.39589" lon="2.36946">
        <ele>120</ele>
        <time>2024-04-06T14:19:15Z</time>
      </trkpt>
      <trkpt lat="48.39592" lon="2.36945">
        <ele>120.2</ele>
        <time>2024-04-06T14:19:16Z</time>
      </trkpt>
      <trkpt lat="48.39609" lon="2.36938">
        <ele>121.4</ele>
        <time>2024-04-06T14:19:21Z</time>
      </trkpt>
      <trkpt lat="48.39612" lon="2.36937">
        <ele>121.6</ele>
        <time>2024-04-06T14:19:22Z</time>
      </trkpt>
      <trkpt lat="48.39623" lon="2.36936">
        <ele>122.4</ele>
        <time>2024-04-06T14:19:25Z</time>
      </trkpt>
      <trkpt lat="48.39646" lon="2.36937">
        <ele>123.4</ele>
        <time>2024-04-06T14:19:31Z</time>
      </trkpt>
      <trkpt lat="48.39661" lon="2.36939">
        <ele>123.6</ele>
        <time>2024-04-06T14:19:35Z</time>
      </trkpt>
      <trkpt lat="48.39668" lon="2.36941">
        <ele>124</ele>
        <time>2024-04-06T14:19:37Z</time>
      </trkpt>
      <trkpt lat="48.39672" lon="2.36944">
        <ele>124</ele>
        <time>2024-04-06T14:19:38Z</time>
      </trkpt>
      <trkpt lat="48.39681" lon="2.36951">
        <ele>124.4</ele>
        <time>2024-04-06T14:19:42Z</time>
      </trkpt>
      <trkpt lat="48.3968" lon="2.36953">
        <ele>124.8</ele>
        <time>2024-04-06T14:19:46Z</time>
      </trkpt>
      <trkpt lat="48.3968" lon="2.36953">
        <ele>124.8</ele>
        <time>2024-04-06T14:19:50Z</time>
      </trkpt>
      <trkpt lat="48.3968" lon="2.3695">
        <ele>125.4</ele>
        <time>2024-04-06T14:20:12Z</time>
      </trkpt>
      <trkpt lat="48.3968" lon="2.36949">
        <ele>125</ele>
        <time>2024-04-06T14:20:21Z</time>
      </trkpt>
      <trkpt lat="48.3968" lon="2.3695">
        <ele>124.8</ele>
        <time>2024-04-06T14:20:40Z</time>
      </trkpt>
      <trkpt lat="48.39687" lon="2.36956">
        <ele>124.8</ele>
        <time>2024-04-06T14:20:49Z</time>
      </trkpt>
      <trkpt lat="48.397" lon="2.36966">
        <ele>125</ele>
        <time>2024-04-06T14:20:54Z</time>
      </trkpt>
      <trkpt lat="48.39716" lon="2.36972">
        <ele>125</ele>
        <time>2024-04-06T14:20:59Z</time>
      </trkpt>
      <trkpt lat="48.39748" lon="2.36983">
        <ele>124.8</ele>
        <time>2024-04-06T14:21:06Z</time>
      </trkpt>
      <trkpt lat="48.39773" lon="2.36991">
        <ele>124.6</ele>
        <time>2024-04-06T14:21:11Z</time>
      </trkpt>
      <trkpt lat="48.39779" lon="2.36991">
        <ele>124.6</ele>
        <time>2024-04-06T14:21:12Z</time>
      </trkpt>
      <trkpt lat="48.39794" lon="2.36985">
        <ele>124.4</ele>
        <time>2024-04-06T14:21:15Z</time>
      </trkpt>
      <trkpt lat="48.39798" lon="2.36981">
        <ele>124.2</ele>
        <time>2024-04-06T14:21:16Z</time>
      </trkpt>
      <trkpt lat="48.39806" lon="2.3697">
        <ele>123.8</ele>
        <time>2024-04-06T14:21:18Z</time>
      </trkpt>
      <trkpt lat="48.39812" lon="2.36957">
        <ele>123.4</ele>
        <time>2024-04-06T14:21:20Z</time>
      </trkpt>
      <trkpt lat="48.39816" lon="2.36932">
        <ele>122.8</ele>
        <time>2024-04-06T14:21:23Z</time>
      </trkpt>
      <trkpt lat="48.39817" lon="2.36914">
        <ele>122.6</ele>
        <time>2024-04-06T14:21:25Z</time>
      </trkpt>
      <trkpt lat="48.39818" lon="2.36905">
        <ele>122.4</ele>
        <time>2024-04-06T14:21:26Z</time>
      </trkpt>
      <trkpt lat="48.39815" lon="2.36869">
        <ele>121.8</ele>
        <time>2024-04-06T14:21:30Z</time>
      </trkpt>
      <trkpt lat="48.39813" lon="2.36861">
        <ele>121.4</ele>
        <time>2024-04-06T14:21:31Z</time>
      </trkpt>
      <trkpt lat="48.39811" lon="2.36837">
        <ele>120.8</ele>
        <time>2024-04-06T14:21:34Z</time>
      </trkpt>
      <trkpt lat="48.39811" lon="2.36829">
        <ele>120.8</ele>
        <time>2024-04-06T14:21:35Z</time>
      </trkpt>
      <trkpt lat="48.39813" lon="2.36815">
        <ele>120.6</ele>
        <time>2024-04-06T14:21:37Z</time>
      </trkpt>
      <trkpt lat="48.39823" lon="2.36798">
        <ele>120.6</ele>
        <time>2024-04-06T14:21:41Z</time>
      </trkpt>
      <trkpt lat="48.39836" lon="2.36812">
        <ele>120.6</ele>
        <time>2024-04-06T14:21:45Z</time>
      </trkpt>
      <trkpt lat="48.39842" lon="2.36832">
        <ele>121</ele>
        <time>2024-04-06T14:21:48Z</time>
      </trkpt>
      <trkpt lat="48.39849" lon="2.36855">
        <ele>121.2</ele>
        <time>2024-04-06T14:21:52Z</time>
      </trkpt>
      <trkpt lat="48.3986" lon="2.36875">
        <ele>121.2</ele>
        <time>2024-04-06T14:21:56Z</time>
      </trkpt>
      <trkpt lat="48.39865" lon="2.36886">
        <ele>120.6</ele>
        <time>2024-04-06T14:21:59Z</time>
      </trkpt>
      <trkpt lat="48.39867" lon="2.36894">
        <ele>119.6</ele>
        <time>2024-04-06T14:22:01Z</time>
      </trkpt>
      <trkpt lat="48.3987" lon="2.36901">
        <ele>119</ele>
        <time>2024-04-06T14:22:03Z</time>
      </trkpt>
      <trkpt lat="48.39878" lon="2.36908">
        <ele>118.6</ele>
        <time>2024-04-06T14:22:06Z</time>
      </trkpt>
      <trkpt lat="48.3988" lon="2.36912">
        <ele>118.4</ele>
        <time>2024-04-06T14:22:07Z</time>
      </trkpt>
      <trkpt lat="48.39889" lon="2.36928">
        <ele>117.8</ele>
        <time>2024-04-06T14:22:11Z</time>
      </trkpt>
      <trkpt lat="48.39897" lon="2.36944">
        <ele>117.6</ele>
        <time>2024-04-06T14:22:15Z</time>
      </trkpt>
      <trkpt lat="48.39905" lon="2.36958">
        <ele>117.6</ele>
        <time>2024-04-06T14:22:19Z</time>
      </trkpt>
      <trkpt lat="48.39908" lon="2.36959">
        <ele>117.6</ele>
        <time>2024-04-06T14:22:20Z</time>
      </trkpt>
      <trkpt lat="48.39922" lon="2.3696">
        <ele>117.6</ele>
        <time>2024-04-06T14:22:24Z</time>
      </trkpt>
      <trkpt lat="48.39932" lon="2.3696">
        <ele>117.4</ele>
        <time>2024-04-06T14:22:26Z</time>
      </trkpt>
      <trkpt lat="48.39945" lon="2.36957">
        <ele>117.4</ele>
        <time>2024-04-06T14:22:29Z</time>
      </trkpt>
      <trkpt lat="48.3996" lon="2.36956">
        <ele>116.8</ele>
        <time>2024-04-06T14:22:33Z</time>
      </trkpt>
      <trkpt lat="48.39961" lon="2.36954">
        <ele>116.4</ele>
        <time>2024-04-06T14:22:34Z</time>
      </trkpt>
      <trkpt lat="48.3996" lon="2.36949">
        <ele>115.4</ele>
        <time>2024-04-06T14:22:36Z</time>
      </trkpt>
      <trkpt lat="48.39956" lon="2.36943">
        <ele>114</ele>
        <time>2024-04-06T14:22:38Z</time>
      </trkpt>
      <trkpt lat="48.39954" lon="2.3694">
        <ele>112.6</ele>
        <time>2024-04-06T14:22:39Z</time>
      </trkpt>
      <trkpt lat="48.39951" lon="2.36937">
        <ele>111.4</ele>
        <time>2024-04-06T14:22:40Z</time>
      </trkpt>
      <trkpt lat="48.39949" lon="2.36935">
        <ele>110.2</ele>
        <time>2024-04-06T14:22:41Z</time>
      </trkpt>
      <trkpt lat="48.39945" lon="2.36933">
        <ele>108.8</ele>
        <time>2024-04-06T14:22:42Z</time>
      </trkpt>
      <trkpt lat="48.39942" lon="2.3693">
        <ele>107.6</ele>
        <time>2024-04-06T14:22:43Z</time>
      </trkpt>
      <trkpt lat="48.39935" lon="2.36925">
        <ele>106.4</ele>
        <time>2024-04-06T14:22:45Z</time>
      </trkpt>
      <trkpt lat="48.39927" lon="2.36915">
        <ele>106.4</ele>
        <time>2024-04-06T14:22:48Z</time>
      </trkpt>
      <trkpt lat="48.39911" lon="2.36896">
        <ele>106.8</ele>
        <time>2024-04-06T14:22:54Z</time>
      </trkpt>
      <trkpt lat="48.39906" lon="2.3689">
        <ele>107.4</ele>
        <time>2024-04-06T14:22:56Z</time>
      </trkpt>
      <trkpt lat="48.39899" lon="2.36878">
        <ele>108.2</ele>
        <time>2024-04-06T14:23:00Z</time>
      </trkpt>
      <trkpt lat="48.39897" lon="2.36874">
        <ele>108.4</ele>
        <time>2024-04-06T14:23:01Z</time>
      </trkpt>
      <trkpt lat="48.39888" lon="2.36852">
        <ele>108.8</ele>
        <time>2024-04-06T14:23:05Z</time>
      </trkpt>
      <trkpt lat="48.3988" lon="2.36823">
        <ele>109.2</ele>
        <time>2024-04-06T14:23:10Z</time>
      </trkpt>
      <trkpt lat="48.39879" lon="2.36817">
        <ele>109.4</ele>
        <time>2024-04-06T14:23:11Z</time>
      </trkpt>
      <trkpt lat="48.39873" lon="2.36778">
        <ele>110.6</ele>
        <time>2024-04-06T14:23:17Z</time>
      </trkpt>
      <trkpt lat="48.39873" lon="2.3677">
        <ele>110.6</ele>
        <time>2024-04-06T14:23:18Z</time>
      </trkpt>
      <trkpt lat="48.39869" lon="2.36728">
        <ele>111.4</ele>
        <time>2024-04-06T14:23:24Z</time>
      </trkpt>
      <trkpt lat="48.39868" lon="2.36721">
        <ele>111.6</ele>
        <time>2024-04-06T14:23:25Z</time>
      </trkpt>
      <trkpt lat="48.39861" lon="2.36673">
        <ele>112.6</ele>
        <time>2024-04-06T14:23:32Z</time>
      </trkpt>
      <trkpt lat="48.39856" lon="2.36635">
        <ele>113.6</ele>
        <time>2024-04-06T14:23:38Z</time>
      </trkpt>
      <trkpt lat="48.39855" lon="2.36628">
        <ele>113.8</ele>
        <time>2024-04-06T14:23:39Z</time>
      </trkpt>
      <trkpt lat="48.39851" lon="2.36589">
        <ele>114.6</ele>
        <time>2024-04-06T14:23:45Z</time>
      </trkpt>
      <trkpt lat="48.3985" lon="2.36578">
        <ele>115</ele>
        <time>2024-04-06T14:23:47Z</time>
      </trkpt>
      <trkpt lat="48.39847" lon="2.36552">
        <ele>115.6</ele>
        <time>2024-04-06T14:23:51Z</time>
      </trkpt>
      <trkpt lat="48.39847" lon="2.3653">
        <ele>116</ele>
        <time>2024-04-06T14:23:55Z</time>
      </trkpt>
      <trkpt lat="48.39846" lon="2.36524">
        <ele>116.2</ele>
        <time>2024-04-06T14:23:56Z</time>
      </trkpt>
      <trkpt lat="48.39844" lon="2.36488">
        <ele>117</ele>
        <time>2024-04-06T14:24:02Z</time>
      </trkpt>
      <trkpt lat="48.39844" lon="2.36481">
        <ele>117</ele>
        <time>2024-04-06T14:24:03Z</time>
      </trkpt>
      <trkpt lat="48.39839" lon="2.36449">
        <ele>117.6</ele>
        <time>2024-04-06T14:24:08Z</time>
      </trkpt>
      <trkpt lat="48.39837" lon="2.36438">
        <ele>118</ele>
        <time>2024-04-06T14:24:10Z</time>
      </trkpt>
      <trkpt lat="48.39829" lon="2.36408">
        <ele>119.2</ele>
        <time>2024-04-06T14:24:15Z</time>
      </trkpt>
      <trkpt lat="48.39818" lon="2.36371">
        <ele>120</ele>
        <time>2024-04-06T14:24:21Z</time>
      </trkpt>
      <trkpt lat="48.39814" lon="2.36358">
        <ele>120.2</ele>
        <time>2024-04-06T14:24:23Z</time>
      </trkpt>
      <trkpt lat="48.39815" lon="2.36347">
        <ele>120.6</ele>
        <time>2024-04-06T14:24:25Z</time>
      </trkpt>
      <trkpt lat="48.39821" lon="2.36344">
        <ele>121</ele>
        <time>2024-04-06T14:24:28Z</time>
      </trkpt>
      <trkpt lat="48.39822" lon="2.36346">
        <ele>121.2</ele>
        <time>2024-04-06T14:24:29Z</time>
      </trkpt>
      <trkpt lat="48.39825" lon="2.36361">
        <ele>122</ele>
        <time>2024-04-06T14:24:33Z</time>
      </trkpt>
      <trkpt lat="48.39829" lon="2.36367">
        <ele>122.2</ele>
        <time>2024-04-06T14:24:35Z</time>
      </trkpt>
      <trkpt lat="48.39833" lon="2.36376">
        <ele>123</ele>
        <time>2024-04-06T14:24:37Z</time>
      </trkpt>
      <trkpt lat="48.39835" lon="2.36386">
        <ele>123.4</ele>
        <time>2024-04-06T14:24:39Z</time>
      </trkpt>
      <trkpt lat="48.39835" lon="2.36395">
        <ele>123.6</ele>
        <time>2024-04-06T14:24:41Z</time>
      </trkpt>
      <trkpt lat="48.39836" lon="2.36434">
        <ele>123.8</ele>
        <time>2024-04-06T14:24:49Z</time>
      </trkpt>
      <trkpt lat="48.39842" lon="2.36476">
        <ele>123.4</ele>
        <time>2024-04-06T14:24:55Z</time>
      </trkpt>
      <trkpt lat="48.39844" lon="2.36483">
        <ele>123.4</ele>
        <time>2024-04-06T14:24:56Z</time>
      </trkpt>
      <trkpt lat="48.39853" lon="2.36497">
        <ele>123.4</ele>
        <time>2024-04-06T14:24:59Z</time>
      </trkpt>
      <trkpt lat="48.39868" lon="2.36512">
        <ele>122.6</ele>
        <time>2024-04-06T14:25:03Z</time>
      </trkpt>
      <trkpt lat="48.39872" lon="2.36516">
        <ele>122.4</ele>
        <time>2024-04-06T14:25:04Z</time>
      </trkpt>
      <trkpt lat="48.39877" lon="2.36522">
        <ele>122</ele>
        <time>2024-04-06T14:25:06Z</time>
      </trkpt>
      <trkpt lat="48.39884" lon="2.36529">
        <ele>120.6</ele>
        <time>2024-04-06T14:25:08Z</time>
      </trkpt>
      <trkpt lat="48.39893" lon="2.36534">
        <ele>119.4</ele>
        <time>2024-04-06T14:25:10Z</time>
      </trkpt>
      <trkpt lat="48.39898" lon="2.36542">
        <ele>119</ele>
        <time>2024-04-06T14:25:12Z</time>
      </trkpt>
      <trkpt lat="48.39903" lon="2.36558">
        <ele>118.4</ele>
        <time>2024-04-06T14:25:15Z</time>
      </trkpt>
      <trkpt lat="48.39908" lon="2.36569">
        <ele>116.4</ele>
        <time>2024-04-06T14:25:17Z</time>
      </trkpt>
      <trkpt lat="48.3991" lon="2.36574">
        <ele>115.4</ele>
        <time>2024-04-06T14:25:18Z</time>
      </trkpt>
      <trkpt lat="48.39913" lon="2.36579">
        <ele>115</ele>
        <time>2024-04-06T14:25:19Z</time>
      </trkpt>
      <trkpt lat="48.39919" lon="2.36584">
        <ele>114.6</ele>
        <time>2024-04-06T14:25:21Z</time>
      </trkpt>
      <trkpt lat="48.39922" lon="2.36584">
        <ele>114.4</ele>
        <time>2024-04-06T14:25:22Z</time>
      </trkpt>
      <trkpt lat="48.39927" lon="2.36583">
        <ele>114</ele>
        <time>2024-04-06T14:25:24Z</time>
      </trkpt>
      <trkpt lat="48.39937" lon="2.36581">
        <ele>113.2</ele>
        <time>2024-04-06T14:25:27Z</time>
      </trkpt>
      <trkpt lat="48.39941" lon="2.3658">
        <ele>113</ele>
        <time>2024-04-06T14:25:28Z</time>
      </trkpt>
      <trkpt lat="48.39945" lon="2.3658">
        <ele>112.8</ele>
        <time>2024-04-06T14:25:29Z</time>
      </trkpt>
      <trkpt lat="48.39954" lon="2.36578">
        <ele>112</ele>
        <time>2024-04-06T14:25:31Z</time>
      </trkpt>
      <trkpt lat="48.39958" lon="2.36579">
        <ele>111.6</ele>
        <time>2024-04-06T14:25:32Z</time>
      </trkpt>
      <trkpt lat="48.39969" lon="2.36587">
        <ele>110.6</ele>
        <time>2024-04-06T14:25:35Z</time>
      </trkpt>
      <trkpt lat="48.39975" lon="2.36594">
        <ele>108.4</ele>
        <time>2024-04-06T14:25:37Z</time>
      </trkpt>
      <trkpt lat="48.3998" lon="2.36599">
        <ele>107.2</ele>
        <time>2024-04-06T14:25:39Z</time>
      </trkpt>
      <trkpt lat="48.39983" lon="2.36603">
        <ele>106.4</ele>
        <time>2024-04-06T14:25:40Z</time>
      </trkpt>
      <trkpt lat="48.39986" lon="2.36608">
        <ele>105.4</ele>
        <time>2024-04-06T14:25:41Z</time>
      </trkpt>
      <trkpt lat="48.39991" lon="2.36613">
        <ele>104.4</ele>
        <time>2024-04-06T14:25:42Z</time>
      </trkpt>
      <trkpt lat="48.39996" lon="2.36614">
        <ele>103.8</ele>
        <time>2024-04-06T14:25:43Z</time>
      </trkpt>
      <trkpt lat="48.40001" lon="2.36614">
        <ele>103.4</ele>
        <time>2024-04-06T14:25:44Z</time>
      </trkpt>
      <trkpt lat="48.40011" lon="2.36616">
        <ele>102.4</ele>
        <time>2024-04-06T14:25:46Z</time>
      </trkpt>
      <trkpt lat="48.40018" lon="2.3662">
        <ele>101.8</ele>
        <time>2024-04-06T14:25:47Z</time>
      </trkpt>
      <trkpt lat="48.40022" lon="2.36626">
        <ele>101.2</ele>
        <time>2024-04-06T14:25:48Z</time>
      </trkpt>
      <trkpt lat="48.40026" lon="2.36634">
        <ele>100.4</ele>
        <time>2024-04-06T14:25:49Z</time>
      </trkpt>
      <trkpt lat="48.40029" lon="2.36643">
        <ele>99.4</ele>
        <time>2024-04-06T14:25:50Z</time>
      </trkpt>
      <trkpt lat="48.40031" lon="2.36651">
        <ele>98.6</ele>
        <time>2024-04-06T14:25:51Z</time>
      </trkpt>
      <trkpt lat="48.40034" lon="2.36659">
        <ele>97.8</ele>
        <time>2024-04-06T14:25:52Z</time>
      </trkpt>
      <trkpt lat="48.40039" lon="2.36674">
        <ele>96.2</ele>
        <time>2024-04-06T14:25:54Z</time>
      </trkpt>
      <trkpt lat="48.40043" lon="2.36688">
        <ele>94.4</ele>
        <time>2024-04-06T14:25:56Z</time>
      </trkpt>
      <trkpt lat="48.40053" lon="2.3672">
        <ele>93.4</ele>
        <time>2024-04-06T14:26:00Z</time>
      </trkpt>
      <trkpt lat="48.40055" lon="2.36728">
        <ele>93.2</ele>
        <time>2024-04-06T14:26:01Z</time>
      </trkpt>
      <trkpt lat="48.40068" lon="2.36771">
        <ele>92.4</ele>
        <time>2024-04-06T14:26:06Z</time>
      </trkpt>
      <trkpt lat="48.40073" lon="2.36789">
        <ele>92</ele>
        <time>2024-04-06T14:26:08Z</time>
      </trkpt>
      <trkpt lat="48.40082" lon="2.36814">
        <ele>91.2</ele>
        <time>2024-04-06T14:26:11Z</time>
      </trkpt>
      <trkpt lat="48.4009" lon="2.36839">
        <ele>90</ele>
        <time>2024-04-06T14:26:14Z</time>
      </trkpt>
      <trkpt lat="48.40103" lon="2.36892">
        <ele>89</ele>
        <time>2024-04-06T14:26:20Z</time>
      </trkpt>
      <trkpt lat="48.40106" lon="2.3691">
        <ele>88.6</ele>
        <time>2024-04-06T14:26:22Z</time>
      </trkpt>
      <trkpt lat="48.40115" lon="2.36966">
        <ele>88</ele>
        <time>2024-04-06T14:26:28Z</time>
      </trkpt>
      <trkpt lat="48.40118" lon="2.36985">
        <ele>87.4</ele>
        <time>2024-04-06T14:26:30Z</time>
      </trkpt>
      <trkpt lat="48.40122" lon="2.37003">
        <ele>87</ele>
        <time>2024-04-06T14:26:32Z</time>
      </trkpt>
      <trkpt lat="48.40131" lon="2.37028">
        <ele>86.2</ele>
        <time>2024-04-06T14:26:35Z</time>
      </trkpt>
      <trkpt lat="48.40139" lon="2.37045">
        <ele>85.8</ele>
        <time>2024-04-06T14:26:37Z</time>
      </trkpt>
      <trkpt lat="48.40157" lon="2.3709">
        <ele>84.8</ele>
        <time>2024-04-06T14:26:42Z</time>
      </trkpt>
      <trkpt lat="48.40169" lon="2.37116">
        <ele>83.4</ele>
        <time>2024-04-06T14:26:45Z</time>
      </trkpt>
      <trkpt lat="48.4018" lon="2.37129">
        <ele>83.2</ele>
        <time>2024-04-06T14:26:47Z</time>
      </trkpt>
      <trkpt lat="48.4019" lon="2.37144">
        <ele>83</ele>
        <time>2024-04-06T14:26:49Z</time>
      </trkpt>
      <trkpt lat="48.40199" lon="2.3716">
        <ele>82.4</ele>
        <time>2024-04-06T14:26:51Z</time>
      </trkpt>
      <trkpt lat="48.40223" lon="2.37215">
        <ele>81.4</ele>
        <time>2024-04-06T14:26:57Z</time>
      </trkpt>
      <trkpt lat="48.40231" lon="2.37234">
        <ele>81</ele>
        <time>2024-04-06T14:26:59Z</time>
      </trkpt>
      <trkpt lat="48.40241" lon="2.37262">
        <ele>80.2</ele>
        <time>2024-04-06T14:27:02Z</time>
      </trkpt>
      <trkpt lat="48.40248" lon="2.3728">
        <ele>79.6</ele>
        <time>2024-04-06T14:27:04Z</time>
      </trkpt>
      <trkpt lat="48.40256" lon="2.37297">
        <ele>79.2</ele>
        <time>2024-04-06T14:27:06Z</time>
      </trkpt>
      <trkpt lat="48.40277" lon="2.3734">
        <ele>77.8</ele>
        <time>2024-04-06T14:27:11Z</time>
      </trkpt>
      <trkpt lat="48.4029" lon="2.3738">
        <ele>76.8</ele>
        <time>2024-04-06T14:27:15Z</time>
      </trkpt>
      <trkpt lat="48.40296" lon="2.374">
        <ele>76.6</ele>
        <time>2024-04-06T14:27:17Z</time>
      </trkpt>
      <trkpt lat="48.40303" lon="2.37417">
        <ele>75.4</ele>
        <time>2024-04-06T14:27:19Z</time>
      </trkpt>
      <trkpt lat="48.40308" lon="2.37423">
        <ele>75</ele>
        <time>2024-04-06T14:27:20Z</time>
      </trkpt>
      <trkpt lat="48.40314" lon="2.37426">
        <ele>74.4</ele>
        <time>2024-04-06T14:27:21Z</time>
      </trkpt>
      <trkpt lat="48.40326" lon="2.37428">
        <ele>73.6</ele>
        <time>2024-04-06T14:27:23Z</time>
      </trkpt>
      <trkpt lat="48.40333" lon="2.37429">
        <ele>73.4</ele>
        <time>2024-04-06T14:27:24Z</time>
      </trkpt>
      <trkpt lat="48.40339" lon="2.37431">
        <ele>73.4</ele>
        <time>2024-04-06T14:27:25Z</time>
      </trkpt>
      <trkpt lat="48.4035" lon="2.37442">
        <ele>73.2</ele>
        <time>2024-04-06T14:27:27Z</time>
      </trkpt>
      <trkpt lat="48.40357" lon="2.37471">
        <ele>73</ele>
        <time>2024-04-06T14:27:30Z</time>
      </trkpt>
      <trkpt lat="48.40357" lon="2.37503">
        <ele>72.8</ele>
        <time>2024-04-06T14:27:33Z</time>
      </trkpt>
      <trkpt lat="48.40357" lon="2.37513">
        <ele>72.8</ele>
        <time>2024-04-06T14:27:34Z</time>
      </trkpt>
      <trkpt lat="48.40355" lon="2.37554">
        <ele>72</ele>
        <time>2024-04-06T14:27:38Z</time>
      </trkpt>
      <trkpt lat="48.40355" lon="2.37566">
        <ele>71.6</ele>
        <time>2024-04-06T14:27:39Z</time>
      </trkpt>
      <trkpt lat="48.40355" lon="2.37598">
        <ele>71</ele>
        <time>2024-04-06T14:27:42Z</time>
      </trkpt>
      <trkpt lat="48.40352" lon="2.3762">
        <ele>70.8</ele>
        <time>2024-04-06T14:27:44Z</time>
      </trkpt>
      <trkpt lat="48.40348" lon="2.3765">
        <ele>69.8</ele>
        <time>2024-04-06T14:27:47Z</time>
      </trkpt>
      <trkpt lat="48.40342" lon="2.3768">
        <ele>69.6</ele>
        <time>2024-04-06T14:27:50Z</time>
      </trkpt>
      <trkpt lat="48.40333" lon="2.37717">
        <ele>69</ele>
        <time>2024-04-06T14:27:54Z</time>
      </trkpt>
      <trkpt lat="48.40329" lon="2.37725">
        <ele>69</ele>
        <time>2024-04-06T14:27:55Z</time>
      </trkpt>
      <trkpt lat="48.4032" lon="2.37738">
        <ele>68.8</ele>
        <time>2024-04-06T14:27:57Z</time>
      </trkpt>
      <trkpt lat="48.40315" lon="2.37744">
        <ele>68.8</ele>
        <time>2024-04-06T14:27:58Z</time>
      </trkpt>
      <trkpt lat="48.40309" lon="2.3775">
        <ele>68.6</ele>
        <time>2024-04-06T14:27:59Z</time>
      </trkpt>
      <trkpt lat="48.40287" lon="2.37781">
        <ele>68.4</ele>
        <time>2024-04-06T14:28:04Z</time>
      </trkpt>
      <trkpt lat="48.40267" lon="2.37821">
        <ele>68.6</ele>
        <time>2024-04-06T14:28:11Z</time>
      </trkpt>
      <trkpt lat="48.40254" lon="2.37848">
        <ele>68.6</ele>
        <time>2024-04-06T14:28:17Z</time>
      </trkpt>
      <trkpt lat="48.40253" lon="2.3786">
        <ele>68.8</ele>
        <time>2024-04-06T14:28:19Z</time>
      </trkpt>
      <trkpt lat="48.40254" lon="2.37876">
        <ele>68.8</ele>
        <time>2024-04-06T14:28:21Z</time>
      </trkpt>
      <trkpt lat="48.40261" lon="2.37909">
        <ele>68.8</ele>
        <time>2024-04-06T14:28:25Z</time>
      </trkpt>
      <trkpt lat="48.40256" lon="2.37935">
        <ele>68.6</ele>
        <time>2024-04-06T14:28:28Z</time>
      </trkpt>
      <trkpt lat="48.40254" lon="2.37943">
        <ele>68.4</ele>
        <time>2024-04-06T14:28:29Z</time>
      </trkpt>
      <trkpt lat="48.40246" lon="2.3797">
        <ele>67.4</ele>
        <time>2024-04-06T14:28:32Z</time>
      </trkpt>
      <trkpt lat="48.40236" lon="2.38007">
        <ele>66.2</ele>
        <time>2024-04-06T14:28:36Z</time>
      </trkpt>
      <trkpt lat="48.40223" lon="2.38055">
        <ele>65.2</ele>
        <time>2024-04-06T14:28:41Z</time>
      </trkpt>
      <trkpt lat="48.40221" lon="2.38065">
        <ele>65.2</ele>
        <time>2024-04-06T14:28:42Z</time>
      </trkpt>
      <trkpt lat="48.40207" lon="2.38119">
        <ele>64.6</ele>
        <time>2024-04-06T14:28:48Z</time>
      </trkpt>
      <trkpt lat="48.40202" lon="2.38134">
        <ele>64.6</ele>
        <time>2024-04-06T14:28:50Z</time>
      </trkpt>
      <trkpt lat="48.40193" lon="2.3814">
        <ele>64.6</ele>
        <time>2024-04-06T14:28:52Z</time>
      </trkpt>
      <trkpt lat="48.40175" lon="2.38137">
        <ele>64.4</ele>
        <time>2024-04-06T14:28:55Z</time>
      </trkpt>
      <trkpt lat="48.40168" lon="2.38135">
        <ele>64.2</ele>
        <time>2024-04-06T14:28:56Z</time>
      </trkpt>
      <trkpt lat="48.40155" lon="2.38131">
        <ele>64.2</ele>
        <time>2024-04-06T14:28:58Z</time>
      </trkpt>
      <trkpt lat="48.40123" lon="2.38122">
        <ele>63.6</ele>
        <time>2024-04-06T14:29:03Z</time>
      </trkpt>
      <trkpt lat="48.40111" lon="2.38118">
        <ele>63.2</ele>
        <time>2024-04-06T14:29:05Z</time>
      </trkpt>
      <trkpt lat="48.40067" lon="2.38106">
        <ele>62.8</ele>
        <time>2024-04-06T14:29:12Z</time>
      </trkpt>
      <trkpt lat="48.40037" lon="2.38099">
        <ele>62.8</ele>
        <time>2024-04-06T14:29:17Z</time>
      </trkpt>
      <trkpt lat="48.40031" lon="2.38098">
        <ele>62.8</ele>
        <time>2024-04-06T14:29:18Z</time>
      </trkpt>
      <trkpt lat="48.39982" lon="2.38091">
        <ele>63.8</ele>
        <time>2024-04-06T14:29:26Z</time>
      </trkpt>
      <trkpt lat="48.39958" lon="2.38088">
        <ele>64.2</ele>
        <time>2024-04-06T14:29:30Z</time>
      </trkpt>
      <trkpt lat="48.39934" lon="2.38086">
        <ele>65</ele>
        <time>2024-04-06T14:29:34Z</time>
      </trkpt>
      <trkpt lat="48.39928" lon="2.38086">
        <ele>65.2</ele>
        <time>2024-04-06T14:29:35Z</time>
      </trkpt>
      <trkpt lat="48.39892" lon="2.3809">
        <ele>66</ele>
        <time>2024-04-06T14:29:41Z</time>
      </trkpt>
      <trkpt lat="48.39881" lon="2.38094">
        <ele>66.4</ele>
        <time>2024-04-06T14:29:43Z</time>
      </trkpt>
      <trkpt lat="48.39862" lon="2.38101">
        <ele>66.4</ele>
        <time>2024-04-06T14:29:46Z</time>
      </trkpt>
      <trkpt lat="48.39825" lon="2.38109">
        <ele>66.6</ele>
        <time>2024-04-06T14:29:52Z</time>
      </trkpt>
      <trkpt lat="48.39813" lon="2.3811">
        <ele>66.4</ele>
        <time>2024-04-06T14:29:54Z</time>
      </trkpt>
      <trkpt lat="48.39796" lon="2.38108">
        <ele>66</ele>
        <time>2024-04-06T14:29:57Z</time>
      </trkpt>
      <trkpt lat="48.39791" lon="2.3811">
        <ele>66</ele>
        <time>2024-04-06T14:29:58Z</time>
      </trkpt>
      <trkpt lat="48.39784" lon="2.38121">
        <ele>65.8</ele>
        <time>2024-04-06T14:30:00Z</time>
      </trkpt>
      <trkpt lat="48.39782" lon="2.38142">
        <ele>65.6</ele>
        <time>2024-04-06T14:30:02Z</time>
      </trkpt>
      <trkpt lat="48.39782" lon="2.38152">
        <ele>65.6</ele>
        <time>2024-04-06T14:30:03Z</time>
      </trkpt>
      <trkpt lat="48.3978" lon="2.38192">
        <ele>65.2</ele>
        <time>2024-04-06T14:30:08Z</time>
      </trkpt>
      <trkpt lat="48.39781" lon="2.38193">
        <ele>65.4</ele>
        <time>2024-04-06T14:30:13Z</time>
      </trkpt>
      <trkpt lat="48.39781" lon="2.38192">
        <ele>65.2</ele>
        <time>2024-04-06T14:30:21Z</time>
      </trkpt>
      <trkpt lat="48.39782" lon="2.38191">
        <ele>65.4</ele>
        <time>2024-04-06T14:30:25Z</time>
      </trkpt>
      <trkpt lat="48.39782" lon="2.38182">
        <ele>65.2</ele>
        <time>2024-04-06T14:30:28Z</time>
      </trkpt>
      <trkpt lat="48.39784" lon="2.3815">
        <ele>65.2</ele>
        <time>2024-04-06T14:30:34Z</time>
      </trkpt>
      <trkpt lat="48.39784" lon="2.38122">
        <ele>65</ele>
        <time>2024-04-06T14:30:38Z</time>
      </trkpt>
      <trkpt lat="48.39784" lon="2.38116">
        <ele>65</ele>
        <time>2024-04-06T14:30:39Z</time>
      </trkpt>
      <trkpt lat="48.39781" lon="2.38104">
        <ele>65</ele>
        <time>2024-04-06T14:30:41Z</time>
      </trkpt>
      <trkpt lat="48.39771" lon="2.38088">
        <ele>65</ele>
        <time>2024-04-06T14:30:44Z</time>
      </trkpt>
      <trkpt lat="48.3974" lon="2.3805">
        <ele>65.8</ele>
        <time>2024-04-06T14:30:51Z</time>
      </trkpt>
      <trkpt lat="48.39705" lon="2.3802">
        <ele>65.8</ele>
        <time>2024-04-06T14:30:58Z</time>
      </trkpt>
      <trkpt lat="48.39664" lon="2.37987">
        <ele>65.4</ele>
        <time>2024-04-06T14:31:06Z</time>
      </trkpt>
      <trkpt lat="48.39651" lon="2.37996">
        <ele>65.4</ele>
        <time>2024-04-06T14:31:09Z</time>
      </trkpt>
      <trkpt lat="48.39649" lon="2.38013">
        <ele>65.4</ele>
        <time>2024-04-06T14:31:11Z</time>
      </trkpt>
      <trkpt lat="48.39648" lon="2.38032">
        <ele>65.4</ele>
        <time>2024-04-06T14:31:13Z</time>
      </trkpt>
      <trkpt lat="48.39644" lon="2.38115">
        <ele>65.2</ele>
        <time>2024-04-06T14:31:21Z</time>
      </trkpt>
      <trkpt lat="48.39642" lon="2.38148">
        <ele>64.4</ele>
        <time>2024-04-06T14:31:24Z</time>
      </trkpt>
      <trkpt lat="48.3964" lon="2.38191">
        <ele>63.2</ele>
        <time>2024-04-06T14:31:28Z</time>
      </trkpt>
      <trkpt lat="48.39639" lon="2.38212">
        <ele>62.6</ele>
        <time>2024-04-06T14:31:30Z</time>
      </trkpt>
      <trkpt lat="48.39637" lon="2.38254">
        <ele>62.2</ele>
        <time>2024-04-06T14:31:34Z</time>
      </trkpt>
      <trkpt lat="48.39634" lon="2.38292">
        <ele>61.4</ele>
        <time>2024-04-06T14:31:38Z</time>
      </trkpt>
      <trkpt lat="48.39631" lon="2.38339">
        <ele>61.2</ele>
        <time>2024-04-06T14:31:43Z</time>
      </trkpt>
      <trkpt lat="48.39629" lon="2.38346">
        <ele>61.2</ele>
        <time>2024-04-06T14:31:44Z</time>
      </trkpt>
      <trkpt lat="48.39615" lon="2.38353">
        <ele>61.2</ele>
        <time>2024-04-06T14:31:47Z</time>
      </trkpt>
      <trkpt lat="48.3961" lon="2.38353">
        <ele>61.2</ele>
        <time>2024-04-06T14:31:48Z</time>
      </trkpt>
      <trkpt lat="48.39586" lon="2.38356">
        <ele>61.2</ele>
        <time>2024-04-06T14:31:52Z</time>
      </trkpt>
      <trkpt lat="48.3955" lon="2.38359">
        <ele>61.2</ele>
        <time>2024-04-06T14:31:58Z</time>
      </trkpt>
      <trkpt lat="48.3952" lon="2.38361">
        <ele>61.2</ele>
        <time>2024-04-06T14:32:03Z</time>
      </trkpt>
      <trkpt lat="48.39482" lon="2.38361">
        <ele>61.2</ele>
        <time>2024-04-06T14:32:09Z</time>
      </trkpt>
      <trkpt lat="48.39477" lon="2.38359">
        <ele>61.2</ele>
        <time>2024-04-06T14:32:10Z</time>
      </trkpt>
      <trkpt lat="48.3947" lon="2.38349">
        <ele>61.2</ele>
        <time>2024-04-06T14:32:12Z</time>
      </trkpt>
      <trkpt lat="48.39447" lon="2.38318">
        <ele>61.4</ele>
        <time>2024-04-06T14:32:18Z</time>
      </trkpt>
      <trkpt lat="48.39444" lon="2.38316">
        <ele>61.4</ele>
        <time>2024-04-06T14:32:19Z</time>
      </trkpt>
      <trkpt lat="48.39438" lon="2.38319">
        <ele>61.6</ele>
        <time>2024-04-06T14:32:21Z</time>
      </trkpt>
      <trkpt lat="48.39437" lon="2.3833">
        <ele>61.6</ele>
        <time>2024-04-06T14:32:23Z</time>
      </trkpt>
      <trkpt lat="48.39436" lon="2.38337">
        <ele>62</ele>
        <time>2024-04-06T14:32:24Z</time>
      </trkpt>
      <trkpt lat="48.39432" lon="2.38391">
        <ele>62.6</ele>
        <time>2024-04-06T14:32:31Z</time>
      </trkpt>
      <trkpt lat="48.39425" lon="2.3846">
        <ele>62.4</ele>
        <time>2024-04-06T14:32:39Z</time>
      </trkpt>
      <trkpt lat="48.39423" lon="2.38468">
        <ele>62.2</ele>
        <time>2024-04-06T14:32:40Z</time>
      </trkpt>
      <trkpt lat="48.3941" lon="2.38499">
        <ele>62</ele>
        <time>2024-04-06T14:32:44Z</time>
      </trkpt>
      <trkpt lat="48.39401" lon="2.38524">
        <ele>62</ele>
        <time>2024-04-06T14:32:47Z</time>
      </trkpt>
      <trkpt lat="48.39392" lon="2.3855">
        <ele>61.8</ele>
        <time>2024-04-06T14:32:50Z</time>
      </trkpt>
      <trkpt lat="48.39369" lon="2.38613">
        <ele>61.4</ele>
        <time>2024-04-06T14:32:57Z</time>
      </trkpt>
      <trkpt lat="48.39346" lon="2.38692">
        <ele>61.4</ele>
        <time>2024-04-06T14:33:06Z</time>
      </trkpt>
      <trkpt lat="48.39344" lon="2.38701">
        <ele>61.4</ele>
        <time>2024-04-06T14:33:07Z</time>
      </trkpt>
      <trkpt lat="48.39328" lon="2.38768">
        <ele>61.4</ele>
        <time>2024-04-06T14:33:14Z</time>
      </trkpt>
      <trkpt lat="48.39325" lon="2.38787">
        <ele>61.4</ele>
        <time>2024-04-06T14:33:16Z</time>
      </trkpt>
      <trkpt lat="48.39309" lon="2.38864">
        <ele>61</ele>
        <time>2024-04-06T14:33:24Z</time>
      </trkpt>
      <trkpt lat="48.39294" lon="2.38935">
        <ele>60.8</ele>
        <time>2024-04-06T14:33:31Z</time>
      </trkpt>
      <trkpt lat="48.39277" lon="2.39013">
        <ele>60.6</ele>
        <time>2024-04-06T14:33:39Z</time>
      </trkpt>
      <trkpt lat="48.39263" lon="2.39089">
        <ele>60.6</ele>
        <time>2024-04-06T14:33:47Z</time>
      </trkpt>
      <trkpt lat="48.39251" lon="2.39149">
        <ele>61.4</ele>
        <time>2024-04-06T14:33:54Z</time>
      </trkpt>
      <trkpt lat="48.39251" lon="2.39158">
        <ele>61.6</ele>
        <time>2024-04-06T14:33:55Z</time>
      </trkpt>
      <trkpt lat="48.39251" lon="2.39186">
        <ele>61.8</ele>
        <time>2024-04-06T14:33:58Z</time>
      </trkpt>
      <trkpt lat="48.39248" lon="2.39233">
        <ele>61.8</ele>
        <time>2024-04-06T14:34:03Z</time>
      </trkpt>
      <trkpt lat="48.39246" lon="2.39242">
        <ele>61.8</ele>
        <time>2024-04-06T14:34:04Z</time>
      </trkpt>
      <trkpt lat="48.39244" lon="2.39251">
        <ele>61.8</ele>
        <time>2024-04-06T14:34:05Z</time>
      </trkpt>
      <trkpt lat="48.39244" lon="2.3928">
        <ele>62</ele>
        <time>2024-04-06T14:34:08Z</time>
      </trkpt>
      <trkpt lat="48.39245" lon="2.3929">
        <ele>62</ele>
        <time>2024-04-06T14:34:09Z</time>
      </trkpt>
      <trkpt lat="48.39253" lon="2.39355">
        <ele>61.6</ele>
        <time>2024-04-06T14:34:16Z</time>
      </trkpt>
      <trkpt lat="48.39267" lon="2.39407">
        <ele>62</ele>
        <time>2024-04-06T14:34:22Z</time>
      </trkpt>
      <trkpt lat="48.39288" lon="2.39477">
        <ele>62.4</ele>
        <time>2024-04-06T14:34:30Z</time>
      </trkpt>
      <trkpt lat="48.39299" lon="2.39521">
        <ele>62.8</ele>
        <time>2024-04-06T14:34:35Z</time>
      </trkpt>
      <trkpt lat="48.39298" lon="2.39529">
        <ele>62.8</ele>
        <time>2024-04-06T14:34:36Z</time>
      </trkpt>
      <trkpt lat="48.3929" lon="2.39536">
        <ele>62.8</ele>
        <time>2024-04-06T14:34:38Z</time>
      </trkpt>
      <trkpt lat="48.39277" lon="2.39525">
        <ele>63</ele>
        <time>2024-04-06T14:34:41Z</time>
      </trkpt>
      <trkpt lat="48.39261" lon="2.39499">
        <ele>63.2</ele>
        <time>2024-04-06T14:34:45Z</time>
      </trkpt>
      <trkpt lat="48.39257" lon="2.39491">
        <ele>63.2</ele>
        <time>2024-04-06T14:34:46Z</time>
      </trkpt>
      <trkpt lat="48.39247" lon="2.39467">
        <ele>63.2</ele>
        <time>2024-04-06T14:34:49Z</time>
      </trkpt>
      <trkpt lat="48.39245" lon="2.39461">
        <ele>63.2</ele>
        <time>2024-04-06T14:34:50Z</time>
      </trkpt>
      <trkpt lat="48.39243" lon="2.3946">
        <ele>63.4</ele>
        <time>2024-04-06T14:34:53Z</time>
      </trkpt>
      <trkpt lat="48.39244" lon="2.39463">
        <ele>63.4</ele>
        <time>2024-04-06T14:34:54Z</time>
      </trkpt>
      <trkpt lat="48.39246" lon="2.39471">
        <ele>63.6</ele>
        <time>2024-04-06T14:34:57Z</time>
      </trkpt>
      <trkpt lat="48.39242" lon="2.39474">
        <ele>63.8</ele>
        <time>2024-04-06T14:35:00Z</time>
      </trkpt>
      <trkpt lat="48.3924" lon="2.39475">
        <ele>64</ele>
        <time>2024-04-06T14:35:01Z</time>
      </trkpt>
      <trkpt lat="48.39237" lon="2.39474">
        <ele>64.2</ele>
        <time>2024-04-06T14:35:03Z</time>
      </trkpt>
      <trkpt lat="48.39235" lon="2.39469">
        <ele>64.4</ele>
        <time>2024-04-06T14:35:05Z</time>
      </trkpt>
      <trkpt lat="48.3923" lon="2.39467">
        <ele>64.4</ele>
        <time>2024-04-06T14:35:08Z</time>
      </trkpt>
      <trkpt lat="48.39227" lon="2.39469">
        <ele>64.8</ele>
        <time>2024-04-06T14:35:10Z</time>
      </trkpt>
      <trkpt lat="48.39221" lon="2.39474">
        <ele>65</ele>
        <time>2024-04-06T14:35:13Z</time>
      </trkpt>
      <trkpt lat="48.39216" lon="2.39481">
        <ele>65.2</ele>
        <time>2024-04-06T14:35:17Z</time>
      </trkpt>
      <trkpt lat="48.39215" lon="2.39484">
        <ele>65.4</ele>
        <time>2024-04-06T14:35:18Z</time>
      </trkpt>
      <trkpt lat="48.39211" lon="2.3949">
        <ele>66.6</ele>
        <time>2024-04-06T14:35:21Z</time>
      </trkpt>
      <trkpt lat="48.39208" lon="2.39497">
        <ele>67.8</ele>
        <time>2024-04-06T14:35:24Z</time>
      </trkpt>
      <trkpt lat="48.39206" lon="2.39503">
        <ele>69.2</ele>
        <time>2024-04-06T14:35:27Z</time>
      </trkpt>
      <trkpt lat="48.39204" lon="2.3951">
        <ele>70</ele>
        <time>2024-04-06T14:35:29Z</time>
      </trkpt>
      <trkpt lat="48.39204" lon="2.39516">
        <ele>70.4</ele>
        <time>2024-04-06T14:35:30Z</time>
      </trkpt>
      <trkpt lat="48.39206" lon="2.39528">
        <ele>70.4</ele>
        <time>2024-04-06T14:35:32Z</time>
      </trkpt>
      <trkpt lat="48.39214" lon="2.39544">
        <ele>70.4</ele>
        <time>2024-04-06T14:35:35Z</time>
      </trkpt>
      <trkpt lat="48.39218" lon="2.3955">
        <ele>70.4</ele>
        <time>2024-04-06T14:35:36Z</time>
      </trkpt>
      <trkpt lat="48.39229" lon="2.39574">
        <ele>69.4</ele>
        <time>2024-04-06T14:35:41Z</time>
      </trkpt>
      <trkpt lat="48.39229" lon="2.39578">
        <ele>68.8</ele>
        <time>2024-04-06T14:35:42Z</time>
      </trkpt>
      <trkpt lat="48.39233" lon="2.39594">
        <ele>68</ele>
        <time>2024-04-06T14:35:47Z</time>
      </trkpt>
      <trkpt lat="48.39233" lon="2.39608">
        <ele>68</ele>
        <time>2024-04-06T14:35:52Z</time>
      </trkpt>
      <trkpt lat="48.39232" lon="2.39612">
        <ele>68.2</ele>
        <time>2024-04-06T14:35:53Z</time>
      </trkpt>
      <trkpt lat="48.39231" lon="2.39614">
        <ele>68.4</ele>
        <time>2024-04-06T14:35:54Z</time>
      </trkpt>
      <trkpt lat="48.39229" lon="2.39618">
        <ele>70</ele>
        <time>2024-04-06T14:35:56Z</time>
      </trkpt>
      <trkpt lat="48.39228" lon="2.3962">
        <ele>70.6</ele>
        <time>2024-04-06T14:35:57Z</time>
      </trkpt>
      <trkpt lat="48.39228" lon="2.39626">
        <ele>71</ele>
        <time>2024-04-06T14:35:59Z</time>
      </trkpt>
      <trkpt lat="48.39231" lon="2.39632">
        <ele>71.2</ele>
        <time>2024-04-06T14:36:01Z</time>
      </trkpt>
      <trkpt lat="48.39234" lon="2.39647">
        <ele>72.4</ele>
        <time>2024-04-06T14:36:04Z</time>
      </trkpt>
      <trkpt lat="48.39235" lon="2.39651">
        <ele>72.6</ele>
        <time>2024-04-06T14:36:05Z</time>
      </trkpt>
      <trkpt lat="48.39238" lon="2.39669">
        <ele>72.8</ele>
        <time>2024-04-06T14:36:08Z</time>
      </trkpt>
      <trkpt lat="48.39239" lon="2.39676">
        <ele>72.8</ele>
        <time>2024-04-06T14:36:09Z</time>
      </trkpt>
      <trkpt lat="48.39239" lon="2.39698">
        <ele>72.8</ele>
        <time>2024-04-06T14:36:13Z</time>
      </trkpt>
      <trkpt lat="48.39238" lon="2.39703">
        <ele>72.8</ele>
        <time>2024-04-06T14:36:14Z</time>
      </trkpt>
      <trkpt lat="48.39241" lon="2.39725">
        <ele>72.8</ele>
        <time>2024-04-06T14:36:18Z</time>
      </trkpt>
      <trkpt lat="48.39246" lon="2.39755">
        <ele>72.6</ele>
        <time>2024-04-06T14:36:23Z</time>
      </trkpt>
      <trkpt lat="48.39251" lon="2.39781">
        <ele>72</ele>
        <time>2024-04-06T14:36:27Z</time>
      </trkpt>
      <trkpt lat="48.39257" lon="2.39813">
        <ele>72</ele>
        <time>2024-04-06T14:36:32Z</time>
      </trkpt>
      <trkpt lat="48.39248" lon="2.39826">
        <ele>71.2</ele>
        <time>2024-04-06T14:36:36Z</time>
      </trkpt>
      <trkpt lat="48.39244" lon="2.39845">
        <ele>71.2</ele>
        <time>2024-04-06T14:36:40Z</time>
      </trkpt>
      <trkpt lat="48.39241" lon="2.39881">
        <ele>72.4</ele>
        <time>2024-04-06T14:36:47Z</time>
      </trkpt>
      <trkpt lat="48.39238" lon="2.39905">
        <ele>73.6</ele>
        <time>2024-04-06T14:36:51Z</time>
      </trkpt>
      <trkpt lat="48.39236" lon="2.39925">
        <ele>74</ele>
        <time>2024-04-06T14:36:54Z</time>
      </trkpt>
      <trkpt lat="48.39239" lon="2.39949">
        <ele>74.4</ele>
        <time>2024-04-06T14:36:59Z</time>
      </trkpt>
      <trkpt lat="48.39253" lon="2.39948">
        <ele>74.4</ele>
        <time>2024-04-06T14:37:02Z</time>
      </trkpt>
      <trkpt lat="48.39272" lon="2.39953">
        <ele>74.4</ele>
        <time>2024-04-06T14:37:07Z</time>
      </trkpt>
      <trkpt lat="48.39286" lon="2.39959">
        <ele>73</ele>
        <time>2024-04-06T14:37:11Z</time>
      </trkpt>
      <trkpt lat="48.39301" lon="2.39963">
        <ele>72.6</ele>
        <time>2024-04-06T14:37:15Z</time>
      </trkpt>
      <trkpt lat="48.39313" lon="2.39971">
        <ele>72.2</ele>
        <time>2024-04-06T14:37:18Z</time>
      </trkpt>
      <trkpt lat="48.39318" lon="2.39972">
        <ele>72.2</ele>
        <time>2024-04-06T14:37:19Z</time>
      </trkpt>
      <trkpt lat="48.39337" lon="2.39982">
        <ele>72</ele>
        <time>2024-04-06T14:37:23Z</time>
      </trkpt>
      <trkpt lat="48.3935" lon="2.39983">
        <ele>71.6</ele>
        <time>2024-04-06T14:37:26Z</time>
      </trkpt>
      <trkpt lat="48.39355" lon="2.39988">
        <ele>71</ele>
        <time>2024-04-06T14:37:28Z</time>
      </trkpt>
      <trkpt lat="48.39356" lon="2.39992">
        <ele>70.8</ele>
        <time>2024-04-06T14:37:29Z</time>
      </trkpt>
      <trkpt lat="48.39356" lon="2.40003">
        <ele>70.2</ele>
        <time>2024-04-06T14:37:31Z</time>
      </trkpt>
      <trkpt lat="48.39356" lon="2.40009">
        <ele>69.8</ele>
        <time>2024-04-06T14:37:32Z</time>
      </trkpt>
      <trkpt lat="48.39356" lon="2.40021">
        <ele>69.4</ele>
        <time>2024-04-06T14:37:34Z</time>
      </trkpt>
      <trkpt lat="48.39359" lon="2.40054">
        <ele>69.4</ele>
        <time>2024-04-06T14:37:40Z</time>
      </trkpt>
      <trkpt lat="48.39359" lon="2.40081">
        <ele>70.4</ele>
        <time>2024-04-06T14:37:47Z</time>
      </trkpt>
      <trkpt lat="48.39358" lon="2.40084">
        <ele>70.8</ele>
        <time>2024-04-06T14:37:48Z</time>
      </trkpt>
      <trkpt lat="48.39355" lon="2.40096">
        <ele>72.2</ele>
        <time>2024-04-06T14:37:51Z</time>
      </trkpt>
      <trkpt lat="48.39352" lon="2.40102">
        <ele>72.8</ele>
        <time>2024-04-06T14:37:53Z</time>
      </trkpt>
      <trkpt lat="48.3935" lon="2.40105">
        <ele>73.4</ele>
        <time>2024-04-06T14:37:54Z</time>
      </trkpt>
      <trkpt lat="48.39344" lon="2.40111">
        <ele>74.6</ele>
        <time>2024-04-06T14:37:57Z</time>
      </trkpt>
      <trkpt lat="48.3934" lon="2.40117">
        <ele>75</ele>
        <time>2024-04-06T14:37:59Z</time>
      </trkpt>
      <trkpt lat="48.39335" lon="2.40122">
        <ele>75.6</ele>
        <time>2024-04-06T14:38:01Z</time>
      </trkpt>
      <trkpt lat="48.39323" lon="2.40137">
        <ele>77</ele>
        <time>2024-04-06T14:38:07Z</time>
      </trkpt>
      <trkpt lat="48.39317" lon="2.40148">
        <ele>78.4</ele>
        <time>2024-04-06T14:38:12Z</time>
      </trkpt>
      <trkpt lat="48.39314" lon="2.40152">
        <ele>79.4</ele>
        <time>2024-04-06T14:38:14Z</time>
      </trkpt>
      <trkpt lat="48.39311" lon="2.40159">
        <ele>80.8</ele>
        <time>2024-04-06T14:38:17Z</time>
      </trkpt>
      <trkpt lat="48.39309" lon="2.40162">
        <ele>81.6</ele>
        <time>2024-04-06T14:38:19Z</time>
      </trkpt>
      <trkpt lat="48.39307" lon="2.40164">
        <ele>82.2</ele>
        <time>2024-04-06T14:38:20Z</time>
      </trkpt>
      <trkpt lat="48.39305" lon="2.40169">
        <ele>83.2</ele>
        <time>2024-04-06T14:38:22Z</time>
      </trkpt>
      <trkpt lat="48.39302" lon="2.40173">
        <ele>84.4</ele>
        <time>2024-04-06T14:38:24Z</time>
      </trkpt>
      <trkpt lat="48.39299" lon="2.40177">
        <ele>84.8</ele>
        <time>2024-04-06T14:38:26Z</time>
      </trkpt>
      <trkpt lat="48.39298" lon="2.40178">
        <ele>85.4</ele>
        <time>2024-04-06T14:38:27Z</time>
      </trkpt>
      <trkpt lat="48.39293" lon="2.40184">
        <ele>87</ele>
        <time>2024-04-06T14:38:30Z</time>
      </trkpt>
      <trkpt lat="48.3929" lon="2.40188">
        <ele>87.6</ele>
        <time>2024-04-06T14:38:32Z</time>
      </trkpt>
      <trkpt lat="48.39288" lon="2.40192">
        <ele>88.2</ele>
        <time>2024-04-06T14:38:34Z</time>
      </trkpt>
      <trkpt lat="48.39283" lon="2.40198">
        <ele>89.6</ele>
        <time>2024-04-06T14:38:38Z</time>
      </trkpt>
      <trkpt lat="48.39282" lon="2.402">
        <ele>90</ele>
        <time>2024-04-06T14:38:39Z</time>
      </trkpt>
      <trkpt lat="48.39281" lon="2.40202">
        <ele>90.4</ele>
        <time>2024-04-06T14:38:40Z</time>
      </trkpt>
      <trkpt lat="48.39279" lon="2.40204">
        <ele>90.8</ele>
        <time>2024-04-06T14:38:41Z</time>
      </trkpt>
      <trkpt lat="48.39275" lon="2.4021">
        <ele>92.2</ele>
        <time>2024-04-06T14:38:45Z</time>
      </trkpt>
      <trkpt lat="48.39269" lon="2.40217">
        <ele>93.4</ele>
        <time>2024-04-06T14:38:49Z</time>
      </trkpt>
      <trkpt lat="48.39266" lon="2.40221">
        <ele>94</ele>
        <time>2024-04-06T14:38:52Z</time>
      </trkpt>
      <trkpt lat="48.39265" lon="2.40223">
        <ele>94.4</ele>
        <time>2024-04-06T14:38:53Z</time>
      </trkpt>
      <trkpt lat="48.39261" lon="2.40231">
        <ele>95.4</ele>
        <time>2024-04-06T14:38:57Z</time>
      </trkpt>
      <trkpt lat="48.39259" lon="2.4024">
        <ele>96.2</ele>
        <time>2024-04-06T14:39:00Z</time>
      </trkpt>
      <trkpt lat="48.39258" lon="2.40245">
        <ele>96.6</ele>
        <time>2024-04-06T14:39:02Z</time>
      </trkpt>
      <trkpt lat="48.39259" lon="2.40258">
        <ele>97.6</ele>
        <time>2024-04-06T14:39:06Z</time>
      </trkpt>
      <trkpt lat="48.3926" lon="2.40262">
        <ele>97.6</ele>
        <time>2024-04-06T14:39:07Z</time>
      </trkpt>
      <trkpt lat="48.39261" lon="2.40289">
        <ele>98.2</ele>
        <time>2024-04-06T14:39:14Z</time>
      </trkpt>
      <trkpt lat="48.39265" lon="2.40318">
        <ele>98.4</ele>
        <time>2024-04-06T14:39:21Z</time>
      </trkpt>
      <trkpt lat="48.39267" lon="2.40326">
        <ele>98.6</ele>
        <time>2024-04-06T14:39:23Z</time>
      </trkpt>
      <trkpt lat="48.39269" lon="2.4034">
        <ele>99</ele>
        <time>2024-04-06T14:39:26Z</time>
      </trkpt>
      <trkpt lat="48.39274" lon="2.40367">
        <ele>99.4</ele>
        <time>2024-04-06T14:39:31Z</time>
      </trkpt>
      <trkpt lat="48.39275" lon="2.40376">
        <ele>99.6</ele>
        <time>2024-04-06T14:39:33Z</time>
      </trkpt>
      <trkpt lat="48.39278" lon="2.40398">
        <ele>100.2</ele>
        <time>2024-04-06T14:39:37Z</time>
      </trkpt>
      <trkpt lat="48.39281" lon="2.40415">
        <ele>100.8</ele>
        <time>2024-04-06T14:39:40Z</time>
      </trkpt>
      <trkpt lat="48.3928" lon="2.40432">
        <ele>101</ele>
        <time>2024-04-06T14:39:43Z</time>
      </trkpt>
      <trkpt lat="48.39277" lon="2.40466">
        <ele>101.8</ele>
        <time>2024-04-06T14:39:49Z</time>
      </trkpt>
      <trkpt lat="48.39276" lon="2.40478">
        <ele>102</ele>
        <time>2024-04-06T14:39:51Z</time>
      </trkpt>
      <trkpt lat="48.39272" lon="2.40505">
        <ele>103</ele>
        <time>2024-04-06T14:39:56Z</time>
      </trkpt>
      <trkpt lat="48.39264" lon="2.4053">
        <ele>104</ele>
        <time>2024-04-06T14:40:01Z</time>
      </trkpt>
      <trkpt lat="48.39261" lon="2.40535">
        <ele>104.2</ele>
        <time>2024-04-06T14:40:02Z</time>
      </trkpt>
      <trkpt lat="48.39243" lon="2.40564">
        <ele>105.2</ele>
        <time>2024-04-06T14:40:09Z</time>
      </trkpt>
      <trkpt lat="48.39225" lon="2.40593">
        <ele>105.8</ele>
        <time>2024-04-06T14:40:16Z</time>
      </trkpt>
      <trkpt lat="48.39214" lon="2.40612">
        <ele>106.2</ele>
        <time>2024-04-06T14:40:20Z</time>
      </trkpt>
      <trkpt lat="48.3921" lon="2.40617">
        <ele>106.4</ele>
        <time>2024-04-06T14:40:21Z</time>
      </trkpt>
      <trkpt lat="48.39201" lon="2.40644">
        <ele>107</ele>
        <time>2024-04-06T14:40:26Z</time>
      </trkpt>
      <trkpt lat="48.39199" lon="2.40648">
        <ele>107.2</ele>
        <time>2024-04-06T14:40:27Z</time>
      </trkpt>
      <trkpt lat="48.39192" lon="2.40678">
        <ele>108.2</ele>
        <time>2024-04-06T14:40:32Z</time>
      </trkpt>
      <trkpt lat="48.39189" lon="2.40716">
        <ele>109.2</ele>
        <time>2024-04-06T14:40:38Z</time>
      </trkpt>
      <trkpt lat="48.39187" lon="2.40722">
        <ele>109.4</ele>
        <time>2024-04-06T14:40:39Z</time>
      </trkpt>
      <trkpt lat="48.39186" lon="2.40755">
        <ele>110</ele>
        <time>2024-04-06T14:40:44Z</time>
      </trkpt>
      <trkpt lat="48.39193" lon="2.40785">
        <ele>110.6</ele>
        <time>2024-04-06T14:40:48Z</time>
      </trkpt>
      <trkpt lat="48.39194" lon="2.40792">
        <ele>110.8</ele>
        <time>2024-04-06T14:40:49Z</time>
      </trkpt>
      <trkpt lat="48.39205" lon="2.40822">
        <ele>111.6</ele>
        <time>2024-04-06T14:40:53Z</time>
      </trkpt>
      <trkpt lat="48.39212" lon="2.40843">
        <ele>111.8</ele>
        <time>2024-04-06T14:40:56Z</time>
      </trkpt>
      <trkpt lat="48.39224" lon="2.40888">
        <ele>112.8</ele>
        <time>2024-04-06T14:41:02Z</time>
      </trkpt>
      <trkpt lat="48.39226" lon="2.40895">
        <ele>113</ele>
        <time>2024-04-06T14:41:03Z</time>
      </trkpt>
      <trkpt lat="48.3924" lon="2.40922">
        <ele>113.8</ele>
        <time>2024-04-06T14:41:07Z</time>
      </trkpt>
      <trkpt lat="48.39243" lon="2.40928">
        <ele>114</ele>
        <time>2024-04-06T14:41:08Z</time>
      </trkpt>
      <trkpt lat="48.39262" lon="2.4095">
        <ele>115</ele>
        <time>2024-04-06T14:41:13Z</time>
      </trkpt>
      <trkpt lat="48.39268" lon="2.40958">
        <ele>115.4</ele>
        <time>2024-04-06T14:41:15Z</time>
      </trkpt>
      <trkpt lat="48.39277" lon="2.40972">
        <ele>116</ele>
        <time>2024-04-06T14:41:18Z</time>
      </trkpt>
      <trkpt lat="48.39279" lon="2.40978">
        <ele>116.2</ele>
        <time>2024-04-06T14:41:19Z</time>
      </trkpt>
      <trkpt lat="48.39282" lon="2.4099">
        <ele>117.2</ele>
        <time>2024-04-06T14:41:21Z</time>
      </trkpt>
      <trkpt lat="48.39283" lon="2.40996">
        <ele>117.6</ele>
        <time>2024-04-06T14:41:22Z</time>
      </trkpt>
      <trkpt lat="48.39288" lon="2.41007">
        <ele>118.4</ele>
        <time>2024-04-06T14:41:24Z</time>
      </trkpt>
      <trkpt lat="48.39291" lon="2.41012">
        <ele>118.6</ele>
        <time>2024-04-06T14:41:25Z</time>
      </trkpt>
      <trkpt lat="48.39303" lon="2.41032">
        <ele>119.8</ele>
        <time>2024-04-06T14:41:29Z</time>
      </trkpt>
      <trkpt lat="48.39306" lon="2.41037">
        <ele>120</ele>
        <time>2024-04-06T14:41:30Z</time>
      </trkpt>
      <trkpt lat="48.39328" lon="2.41068">
        <ele>120.6</ele>
        <time>2024-04-06T14:41:36Z</time>
      </trkpt>
      <trkpt lat="48.39332" lon="2.41073">
        <ele>120.8</ele>
        <time>2024-04-06T14:41:37Z</time>
      </trkpt>
      <trkpt lat="48.39348" lon="2.41093">
        <ele>121.4</ele>
        <time>2024-04-06T14:41:41Z</time>
      </trkpt>
      <trkpt lat="48.39351" lon="2.41097">
        <ele>121.4</ele>
        <time>2024-04-06T14:41:42Z</time>
      </trkpt>
      <trkpt lat="48.39362" lon="2.4111">
        <ele>121.4</ele>
        <time>2024-04-06T14:41:45Z</time>
      </trkpt>
      <trkpt lat="48.39371" lon="2.41118">
        <ele>121.6</ele>
        <time>2024-04-06T14:41:47Z</time>
      </trkpt>
      <trkpt lat="48.39388" lon="2.41136">
        <ele>122</ele>
        <time>2024-04-06T14:41:51Z</time>
      </trkpt>
      <trkpt lat="48.39397" lon="2.41146">
        <ele>122.2</ele>
        <time>2024-04-06T14:41:53Z</time>
      </trkpt>
      <trkpt lat="48.39406" lon="2.41157">
        <ele>122.4</ele>
        <time>2024-04-06T14:41:55Z</time>
      </trkpt>
      <trkpt lat="48.39418" lon="2.41173">
        <ele>123</ele>
        <time>2024-04-06T14:41:58Z</time>
      </trkpt>
      <trkpt lat="48.39423" lon="2.41178">
        <ele>123</ele>
        <time>2024-04-06T14:41:59Z</time>
      </trkpt>
      <trkpt lat="48.39454" lon="2.41204">
        <ele>123.8</ele>
        <time>2024-04-06T14:42:05Z</time>
      </trkpt>
      <trkpt lat="48.39487" lon="2.41239">
        <ele>124</ele>
        <time>2024-04-06T14:42:12Z</time>
      </trkpt>
      <trkpt lat="48.39523" lon="2.41273">
        <ele>123.8</ele>
        <time>2024-04-06T14:42:19Z</time>
      </trkpt>
      <trkpt lat="48.39573" lon="2.41315">
        <ele>123.2</ele>
        <time>2024-04-06T14:42:28Z</time>
      </trkpt>
      <trkpt lat="48.39597" lon="2.41336">
        <ele>122.8</ele>
        <time>2024-04-06T14:42:32Z</time>
      </trkpt>
      <trkpt lat="48.39605" lon="2.41349">
        <ele>122.6</ele>
        <time>2024-04-06T14:42:34Z</time>
      </trkpt>
      <trkpt lat="48.39607" lon="2.41374">
        <ele>122.2</ele>
        <time>2024-04-06T14:42:37Z</time>
      </trkpt>
      <trkpt lat="48.39604" lon="2.41383">
        <ele>122</ele>
        <time>2024-04-06T14:42:38Z</time>
      </trkpt>
      <trkpt lat="48.39602" lon="2.41391">
        <ele>121.8</ele>
        <time>2024-04-06T14:42:39Z</time>
      </trkpt>
      <trkpt lat="48.39596" lon="2.41418">
        <ele>121.6</ele>
        <time>2024-04-06T14:42:42Z</time>
      </trkpt>
      <trkpt lat="48.39593" lon="2.41436">
        <ele>121.6</ele>
        <time>2024-04-06T14:42:44Z</time>
      </trkpt>
      <trkpt lat="48.39591" lon="2.41462">
        <ele>121.6</ele>
        <time>2024-04-06T14:42:47Z</time>
      </trkpt>
      <trkpt lat="48.39591" lon="2.41521">
        <ele>122.4</ele>
        <time>2024-04-06T14:42:54Z</time>
      </trkpt>
      <trkpt lat="48.39592" lon="2.41579">
        <ele>123.2</ele>
        <time>2024-04-06T14:43:01Z</time>
      </trkpt>
      <trkpt lat="48.39592" lon="2.41595">
        <ele>123.4</ele>
        <time>2024-04-06T14:43:03Z</time>
      </trkpt>
      <trkpt lat="48.39592" lon="2.41647">
        <ele>124.4</ele>
        <time>2024-04-06T14:43:10Z</time>
      </trkpt>
      <trkpt lat="48.39596" lon="2.4169">
        <ele>125.2</ele>
        <time>2024-04-06T14:43:16Z</time>
      </trkpt>
      <trkpt lat="48.39597" lon="2.41698">
        <ele>125.6</ele>
        <time>2024-04-06T14:43:17Z</time>
      </trkpt>
      <trkpt lat="48.39599" lon="2.41746">
        <ele>126.2</ele>
        <time>2024-04-06T14:43:24Z</time>
      </trkpt>
      <trkpt lat="48.39603" lon="2.4179">
        <ele>126.6</ele>
        <time>2024-04-06T14:43:30Z</time>
      </trkpt>
      <trkpt lat="48.39604" lon="2.41796">
        <ele>126.8</ele>
        <time>2024-04-06T14:43:31Z</time>
      </trkpt>
      <trkpt lat="48.3961" lon="2.41851">
        <ele>127.4</ele>
        <time>2024-04-06T14:43:39Z</time>
      </trkpt>
      <trkpt lat="48.39613" lon="2.41865">
        <ele>127.8</ele>
        <time>2024-04-06T14:43:41Z</time>
      </trkpt>
      <trkpt lat="48.39622" lon="2.41925">
        <ele>128</ele>
        <time>2024-04-06T14:43:49Z</time>
      </trkpt>
      <trkpt lat="48.39636" lon="2.42009">
        <ele>128</ele>
        <time>2024-04-06T14:43:59Z</time>
      </trkpt>
      <trkpt lat="48.39648" lon="2.42091">
        <ele>128.2</ele>
        <time>2024-04-06T14:44:08Z</time>
      </trkpt>
      <trkpt lat="48.39651" lon="2.4211">
        <ele>128.2</ele>
        <time>2024-04-06T14:44:10Z</time>
      </trkpt>
      <trkpt lat="48.39663" lon="2.42199">
        <ele>128.2</ele>
        <time>2024-04-06T14:44:19Z</time>
      </trkpt>
      <trkpt lat="48.39657" lon="2.42226">
        <ele>128.2</ele>
        <time>2024-04-06T14:44:22Z</time>
      </trkpt>
      <trkpt lat="48.3965" lon="2.4226">
        <ele>128</ele>
        <time>2024-04-06T14:44:26Z</time>
      </trkpt>
      <trkpt lat="48.39654" lon="2.42279">
        <ele>127.8</ele>
        <time>2024-04-06T14:44:29Z</time>
      </trkpt>
      <trkpt lat="48.39665" lon="2.42282">
        <ele>127.6</ele>
        <time>2024-04-06T14:44:32Z</time>
      </trkpt>
      <trkpt lat="48.3967" lon="2.42281">
        <ele>127.6</ele>
        <time>2024-04-06T14:44:33Z</time>
      </trkpt>
      <trkpt lat="48.39682" lon="2.42277">
        <ele>127.4</ele>
        <time>2024-04-06T14:44:35Z</time>
      </trkpt>
      <trkpt lat="48.39693" lon="2.4227">
        <ele>127.2</ele>
        <time>2024-04-06T14:44:37Z</time>
      </trkpt>
      <trkpt lat="48.39716" lon="2.42254">
        <ele>127</ele>
        <time>2024-04-06T14:44:41Z</time>
      </trkpt>
      <trkpt lat="48.39747" lon="2.42247">
        <ele>126.6</ele>
        <time>2024-04-06T14:44:46Z</time>
      </trkpt>
      <trkpt lat="48.39753" lon="2.42246">
        <ele>126.6</ele>
        <time>2024-04-06T14:44:47Z</time>
      </trkpt>
      <trkpt lat="48.39796" lon="2.42237">
        <ele>126.4</ele>
        <time>2024-04-06T14:44:54Z</time>
      </trkpt>
      <trkpt lat="48.39833" lon="2.42226">
        <ele>126.4</ele>
        <time>2024-04-06T14:45:01Z</time>
      </trkpt>
      <trkpt lat="48.39839" lon="2.42225">
        <ele>126.4</ele>
        <time>2024-04-06T14:45:02Z</time>
      </trkpt>
      <trkpt lat="48.39867" lon="2.42215">
        <ele>126.4</ele>
        <time>2024-04-06T14:45:07Z</time>
      </trkpt>
      <trkpt lat="48.39896" lon="2.42192">
        <ele>126</ele>
        <time>2024-04-06T14:45:13Z</time>
      </trkpt>
      <trkpt lat="48.39929" lon="2.42157">
        <ele>125.8</ele>
        <time>2024-04-06T14:45:20Z</time>
      </trkpt>
      <trkpt lat="48.39945" lon="2.42137">
        <ele>125.8</ele>
        <time>2024-04-06T14:45:24Z</time>
      </trkpt>
      <trkpt lat="48.39951" lon="2.42126">
        <ele>125.8</ele>
        <time>2024-04-06T14:45:26Z</time>
      </trkpt>
      <trkpt lat="48.3996" lon="2.42111">
        <ele>125.6</ele>
        <time>2024-04-06T14:45:29Z</time>
      </trkpt>
      <trkpt lat="48.39965" lon="2.42102">
        <ele>125.6</ele>
        <time>2024-04-06T14:45:31Z</time>
      </trkpt>
      <trkpt lat="48.39967" lon="2.42097">
        <ele>125.6</ele>
        <time>2024-04-06T14:45:32Z</time>
      </trkpt>
      <trkpt lat="48.39974" lon="2.42086">
        <ele>125.6</ele>
        <time>2024-04-06T14:45:35Z</time>
      </trkpt>
      <trkpt lat="48.39974" lon="2.42082">
        <ele>125.6</ele>
        <time>2024-04-06T14:45:36Z</time>
      </trkpt>
      <trkpt lat="48.39968" lon="2.42081">
        <ele>125.8</ele>
        <time>2024-04-06T14:45:39Z</time>
      </trkpt>
      <trkpt lat="48.39965" lon="2.4209">
        <ele>125.8</ele>
        <time>2024-04-06T14:45:41Z</time>
      </trkpt>
      <trkpt lat="48.39961" lon="2.42101">
        <ele>125.8</ele>
        <time>2024-04-06T14:45:43Z</time>
      </trkpt>
      <trkpt lat="48.39943" lon="2.42135">
        <ele>126</ele>
        <time>2024-04-06T14:45:49Z</time>
      </trkpt>
      <trkpt lat="48.39939" lon="2.4214">
        <ele>126</ele>
        <time>2024-04-06T14:45:50Z</time>
      </trkpt>
      <trkpt lat="48.39905" lon="2.42177">
        <ele>125.8</ele>
        <time>2024-04-06T14:45:58Z</time>
      </trkpt>
      <trkpt lat="48.39871" lon="2.42205">
        <ele>125.8</ele>
        <time>2024-04-06T14:46:05Z</time>
      </trkpt>
      <trkpt lat="48.39843" lon="2.42217">
        <ele>126</ele>
        <time>2024-04-06T14:46:10Z</time>
      </trkpt>
      <trkpt lat="48.39837" lon="2.42219">
        <ele>126</ele>
        <time>2024-04-06T14:46:11Z</time>
      </trkpt>
      <trkpt lat="48.39817" lon="2.42227">
        <ele>126.2</ele>
        <time>2024-04-06T14:46:16Z</time>
      </trkpt>
      <trkpt lat="48.398" lon="2.42231">
        <ele>126.2</ele>
        <time>2024-04-06T14:46:20Z</time>
      </trkpt>
      <trkpt lat="48.39789" lon="2.42232">
        <ele>126.8</ele>
        <time>2024-04-06T14:46:22Z</time>
      </trkpt>
      <trkpt lat="48.39772" lon="2.42233">
        <ele>127.2</ele>
        <time>2024-04-06T14:46:25Z</time>
      </trkpt>
      <trkpt lat="48.39727" lon="2.42239">
        <ele>127</ele>
        <time>2024-04-06T14:46:33Z</time>
      </trkpt>
      <trkpt lat="48.39704" lon="2.42238">
        <ele>127</ele>
        <time>2024-04-06T14:46:38Z</time>
      </trkpt>
      <trkpt lat="48.39694" lon="2.42232">
        <ele>126.8</ele>
        <time>2024-04-06T14:46:42Z</time>
      </trkpt>
      <trkpt lat="48.39678" lon="2.42224">
        <ele>127.2</ele>
        <time>2024-04-06T14:46:46Z</time>
      </trkpt>
      <trkpt lat="48.39674" lon="2.42224">
        <ele>127.2</ele>
        <time>2024-04-06T14:46:47Z</time>
      </trkpt>
      <trkpt lat="48.39662" lon="2.42235">
        <ele>127.6</ele>
        <time>2024-04-06T14:46:50Z</time>
      </trkpt>
      <trkpt lat="48.39656" lon="2.42249">
        <ele>127.8</ele>
        <time>2024-04-06T14:46:52Z</time>
      </trkpt>
      <trkpt lat="48.39654" lon="2.42256">
        <ele>127.8</ele>
        <time>2024-04-06T14:46:53Z</time>
      </trkpt>
      <trkpt lat="48.39653" lon="2.42264">
        <ele>127.8</ele>
        <time>2024-04-06T14:46:54Z</time>
      </trkpt>
      <trkpt lat="48.39662" lon="2.42286">
        <ele>127.8</ele>
        <time>2024-04-06T14:46:57Z</time>
      </trkpt>
      <trkpt lat="48.39671" lon="2.42311">
        <ele>127.8</ele>
        <time>2024-04-06T14:47:00Z</time>
      </trkpt>
      <trkpt lat="48.39672" lon="2.42331">
        <ele>127.8</ele>
        <time>2024-04-06T14:47:02Z</time>
      </trkpt>
      <trkpt lat="48.39674" lon="2.42363">
        <ele>127.8</ele>
        <time>2024-04-06T14:47:05Z</time>
      </trkpt>
      <trkpt lat="48.39683" lon="2.4245">
        <ele>126.4</ele>
        <time>2024-04-06T14:47:13Z</time>
      </trkpt>
      <trkpt lat="48.39684" lon="2.42472">
        <ele>126</ele>
        <time>2024-04-06T14:47:15Z</time>
      </trkpt>
      <trkpt lat="48.39691" lon="2.42561">
        <ele>125.6</ele>
        <time>2024-04-06T14:47:23Z</time>
      </trkpt>
      <trkpt lat="48.39692" lon="2.42572">
        <ele>125.6</ele>
        <time>2024-04-06T14:47:24Z</time>
      </trkpt>
      <trkpt lat="48.39697" lon="2.4264">
        <ele>125</ele>
        <time>2024-04-06T14:47:30Z</time>
      </trkpt>
      <trkpt lat="48.39699" lon="2.42674">
        <ele>124.4</ele>
        <time>2024-04-06T14:47:33Z</time>
      </trkpt>
      <trkpt lat="48.39702" lon="2.42719">
        <ele>123.8</ele>
        <time>2024-04-06T14:47:37Z</time>
      </trkpt>
      <trkpt lat="48.39706" lon="2.42775">
        <ele>123.4</ele>
        <time>2024-04-06T14:47:42Z</time>
      </trkpt>
      <trkpt lat="48.39705" lon="2.42867">
        <ele>123</ele>
        <time>2024-04-06T14:47:50Z</time>
      </trkpt>
      <trkpt lat="48.39702" lon="2.4289">
        <ele>122.8</ele>
        <time>2024-04-06T14:47:52Z</time>
      </trkpt>
      <trkpt lat="48.39691" lon="2.42946">
        <ele>122.6</ele>
        <time>2024-04-06T14:47:57Z</time>
      </trkpt>
      <trkpt lat="48.3967" lon="2.43008">
        <ele>122</ele>
        <time>2024-04-06T14:48:03Z</time>
      </trkpt>
      <trkpt lat="48.39665" lon="2.43018">
        <ele>121.8</ele>
        <time>2024-04-06T14:48:04Z</time>
      </trkpt>
      <trkpt lat="48.39638" lon="2.43074">
        <ele>121</ele>
        <time>2024-04-06T14:48:10Z</time>
      </trkpt>
      <trkpt lat="48.39629" lon="2.43092">
        <ele>121</ele>
        <time>2024-04-06T14:48:12Z</time>
      </trkpt>
      <trkpt lat="48.39614" lon="2.4313">
        <ele>120.8</ele>
        <time>2024-04-06T14:48:16Z</time>
      </trkpt>
      <trkpt lat="48.39607" lon="2.4315">
        <ele>120.6</ele>
        <time>2024-04-06T14:48:18Z</time>
      </trkpt>
      <trkpt lat="48.39596" lon="2.43162">
        <ele>120.6</ele>
        <time>2024-04-06T14:48:20Z</time>
      </trkpt>
      <trkpt lat="48.39576" lon="2.43162">
        <ele>120.4</ele>
        <time>2024-04-06T14:48:23Z</time>
      </trkpt>
      <trkpt lat="48.39563" lon="2.43158">
        <ele>120.2</ele>
        <time>2024-04-06T14:48:25Z</time>
      </trkpt>
      <trkpt lat="48.39544" lon="2.43148">
        <ele>119.4</ele>
        <time>2024-04-06T14:48:28Z</time>
      </trkpt>
      <trkpt lat="48.39509" lon="2.43123">
        <ele>118.4</ele>
        <time>2024-04-06T14:48:34Z</time>
      </trkpt>
      <trkpt lat="48.39497" lon="2.43113">
        <ele>118.4</ele>
        <time>2024-04-06T14:48:36Z</time>
      </trkpt>
      <trkpt lat="48.39487" lon="2.43098">
        <ele>118.2</ele>
        <time>2024-04-06T14:48:38Z</time>
      </trkpt>
      <trkpt lat="48.39479" lon="2.43069">
        <ele>118.2</ele>
        <time>2024-04-06T14:48:41Z</time>
      </trkpt>
      <trkpt lat="48.39476" lon="2.4306">
        <ele>118</ele>
        <time>2024-04-06T14:48:42Z</time>
      </trkpt>
      <trkpt lat="48.39463" lon="2.43049">
        <ele>117.8</ele>
        <time>2024-04-06T14:48:45Z</time>
      </trkpt>
      <trkpt lat="48.3946" lon="2.43061">
        <ele>117.6</ele>
        <time>2024-04-06T14:48:47Z</time>
      </trkpt>
      <trkpt lat="48.39461" lon="2.4309">
        <ele>117.6</ele>
        <time>2024-04-06T14:48:50Z</time>
      </trkpt>
      <trkpt lat="48.39462" lon="2.43101">
        <ele>117.6</ele>
        <time>2024-04-06T14:48:51Z</time>
      </trkpt>
      <trkpt lat="48.39463" lon="2.43112">
        <ele>117.4</ele>
        <time>2024-04-06T14:48:52Z</time>
      </trkpt>
      <trkpt lat="48.39469" lon="2.43182">
        <ele>116.8</ele>
        <time>2024-04-06T14:48:58Z</time>
      </trkpt>
      <trkpt lat="48.39473" lon="2.4322">
        <ele>116</ele>
        <time>2024-04-06T14:49:01Z</time>
      </trkpt>
      <trkpt lat="48.39475" lon="2.43257">
        <ele>115</ele>
        <time>2024-04-06T14:49:04Z</time>
      </trkpt>
      <trkpt lat="48.39477" lon="2.43268">
        <ele>114.6</ele>
        <time>2024-04-06T14:49:05Z</time>
      </trkpt>
      <trkpt lat="48.39484" lon="2.43301">
        <ele>113.4</ele>
        <time>2024-04-06T14:49:08Z</time>
      </trkpt>
      <trkpt lat="48.39487" lon="2.43312">
        <ele>112.8</ele>
        <time>2024-04-06T14:49:09Z</time>
      </trkpt>
      <trkpt lat="48.3949" lon="2.43324">
        <ele>112.4</ele>
        <time>2024-04-06T14:49:10Z</time>
      </trkpt>
      <trkpt lat="48.39499" lon="2.43358">
        <ele>111.2</ele>
        <time>2024-04-06T14:49:13Z</time>
      </trkpt>
      <trkpt lat="48.39505" lon="2.43381">
        <ele>110.6</ele>
        <time>2024-04-06T14:49:15Z</time>
      </trkpt>
      <trkpt lat="48.39514" lon="2.43418">
        <ele>110.2</ele>
        <time>2024-04-06T14:49:18Z</time>
      </trkpt>
      <trkpt lat="48.39524" lon="2.43454">
        <ele>108.8</ele>
        <time>2024-04-06T14:49:21Z</time>
      </trkpt>
      <trkpt lat="48.39528" lon="2.43466">
        <ele>108.6</ele>
        <time>2024-04-06T14:49:22Z</time>
      </trkpt>
      <trkpt lat="48.39535" lon="2.43491">
        <ele>107.8</ele>
        <time>2024-04-06T14:49:24Z</time>
      </trkpt>
      <trkpt lat="48.39546" lon="2.43528">
        <ele>106.8</ele>
        <time>2024-04-06T14:49:27Z</time>
      </trkpt>
      <trkpt lat="48.39549" lon="2.4354">
        <ele>106.4</ele>
        <time>2024-04-06T14:49:28Z</time>
      </trkpt>
      <trkpt lat="48.39557" lon="2.43562">
        <ele>105.2</ele>
        <time>2024-04-06T14:49:30Z</time>
      </trkpt>
      <trkpt lat="48.39562" lon="2.43572">
        <ele>104.2</ele>
        <time>2024-04-06T14:49:31Z</time>
      </trkpt>
      <trkpt lat="48.39567" lon="2.43582">
        <ele>104</ele>
        <time>2024-04-06T14:49:32Z</time>
      </trkpt>
      <trkpt lat="48.3959" lon="2.43604">
        <ele>103.2</ele>
        <time>2024-04-06T14:49:35Z</time>
      </trkpt>
      <trkpt lat="48.39598" lon="2.4361">
        <ele>103</ele>
        <time>2024-04-06T14:49:36Z</time>
      </trkpt>
      <trkpt lat="48.3963" lon="2.43632">
        <ele>101.6</ele>
        <time>2024-04-06T14:49:40Z</time>
      </trkpt>
      <trkpt lat="48.39651" lon="2.43653">
        <ele>100.4</ele>
        <time>2024-04-06T14:49:43Z</time>
      </trkpt>
      <trkpt lat="48.39663" lon="2.4367">
        <ele>100</ele>
        <time>2024-04-06T14:49:45Z</time>
      </trkpt>
      <trkpt lat="48.39675" lon="2.43703">
        <ele>99.6</ele>
        <time>2024-04-06T14:49:48Z</time>
      </trkpt>
      <trkpt lat="48.39678" lon="2.43716">
        <ele>99.2</ele>
        <time>2024-04-06T14:49:49Z</time>
      </trkpt>
      <trkpt lat="48.39683" lon="2.43769">
        <ele>98.4</ele>
        <time>2024-04-06T14:49:53Z</time>
      </trkpt>
      <trkpt lat="48.39683" lon="2.43782">
        <ele>98.2</ele>
        <time>2024-04-06T14:49:54Z</time>
      </trkpt>
      <trkpt lat="48.39685" lon="2.43809">
        <ele>97</ele>
        <time>2024-04-06T14:49:56Z</time>
      </trkpt>
      <trkpt lat="48.3969" lon="2.43849">
        <ele>95.8</ele>
        <time>2024-04-06T14:49:59Z</time>
      </trkpt>
      <trkpt lat="48.39694" lon="2.43861">
        <ele>94.8</ele>
        <time>2024-04-06T14:50:00Z</time>
      </trkpt>
      <trkpt lat="48.39708" lon="2.43894">
        <ele>93.6</ele>
        <time>2024-04-06T14:50:03Z</time>
      </trkpt>
      <trkpt lat="48.39714" lon="2.43904">
        <ele>93.4</ele>
        <time>2024-04-06T14:50:04Z</time>
      </trkpt>
      <trkpt lat="48.39736" lon="2.43944">
        <ele>92.2</ele>
        <time>2024-04-06T14:50:08Z</time>
      </trkpt>
      <trkpt lat="48.39753" lon="2.43975">
        <ele>91.6</ele>
        <time>2024-04-06T14:50:11Z</time>
      </trkpt>
      <trkpt lat="48.39765" lon="2.43996">
        <ele>91</ele>
        <time>2024-04-06T14:50:13Z</time>
      </trkpt>
      <trkpt lat="48.39793" lon="2.44049">
        <ele>89.6</ele>
        <time>2024-04-06T14:50:18Z</time>
      </trkpt>
      <trkpt lat="48.39798" lon="2.44061">
        <ele>89</ele>
        <time>2024-04-06T14:50:19Z</time>
      </trkpt>
      <trkpt lat="48.39806" lon="2.44085">
        <ele>88.6</ele>
        <time>2024-04-06T14:50:21Z</time>
      </trkpt>
      <trkpt lat="48.39812" lon="2.44111">
        <ele>87.4</ele>
        <time>2024-04-06T14:50:23Z</time>
      </trkpt>
      <trkpt lat="48.39815" lon="2.44148">
        <ele>86.2</ele>
        <time>2024-04-06T14:50:26Z</time>
      </trkpt>
      <trkpt lat="48.39816" lon="2.44161">
        <ele>85.8</ele>
        <time>2024-04-06T14:50:27Z</time>
      </trkpt>
      <trkpt lat="48.3982" lon="2.442">
        <ele>85</ele>
        <time>2024-04-06T14:50:30Z</time>
      </trkpt>
      <trkpt lat="48.39823" lon="2.44251">
        <ele>83.8</ele>
        <time>2024-04-06T14:50:34Z</time>
      </trkpt>
      <trkpt lat="48.39827" lon="2.44299">
        <ele>82.6</ele>
        <time>2024-04-06T14:50:38Z</time>
      </trkpt>
      <trkpt lat="48.39829" lon="2.44325">
        <ele>82</ele>
        <time>2024-04-06T14:50:40Z</time>
      </trkpt>
      <trkpt lat="48.3983" lon="2.44352">
        <ele>81.4</ele>
        <time>2024-04-06T14:50:42Z</time>
      </trkpt>
      <trkpt lat="48.39833" lon="2.44391">
        <ele>80.4</ele>
        <time>2024-04-06T14:50:45Z</time>
      </trkpt>
      <trkpt lat="48.39837" lon="2.4443">
        <ele>79</ele>
        <time>2024-04-06T14:50:48Z</time>
      </trkpt>
      <trkpt lat="48.39841" lon="2.4447">
        <ele>78</ele>
        <time>2024-04-06T14:50:51Z</time>
      </trkpt>
      <trkpt lat="48.39844" lon="2.44511">
        <ele>76.8</ele>
        <time>2024-04-06T14:50:54Z</time>
      </trkpt>
      <trkpt lat="48.39846" lon="2.44524">
        <ele>76.6</ele>
        <time>2024-04-06T14:50:55Z</time>
      </trkpt>
      <trkpt lat="48.3985" lon="2.44548">
        <ele>76.2</ele>
        <time>2024-04-06T14:50:57Z</time>
      </trkpt>
      <trkpt lat="48.39852" lon="2.44559">
        <ele>75.6</ele>
        <time>2024-04-06T14:50:58Z</time>
      </trkpt>
      <trkpt lat="48.39855" lon="2.44569">
        <ele>75.2</ele>
        <time>2024-04-06T14:50:59Z</time>
      </trkpt>
      <trkpt lat="48.39858" lon="2.44579">
        <ele>74.8</ele>
        <time>2024-04-06T14:51:00Z</time>
      </trkpt>
      <trkpt lat="48.39862" lon="2.44587">
        <ele>74.4</ele>
        <time>2024-04-06T14:51:01Z</time>
      </trkpt>
      <trkpt lat="48.39872" lon="2.44604">
        <ele>73.8</ele>
        <time>2024-04-06T14:51:03Z</time>
      </trkpt>
      <trkpt lat="48.39887" lon="2.44635">
        <ele>73.2</ele>
        <time>2024-04-06T14:51:06Z</time>
      </trkpt>
      <trkpt lat="48.39891" lon="2.44644">
        <ele>73.2</ele>
        <time>2024-04-06T14:51:07Z</time>
      </trkpt>
      <trkpt lat="48.39913" lon="2.44688">
        <ele>72.2</ele>
        <time>2024-04-06T14:51:12Z</time>
      </trkpt>
      <trkpt lat="48.39917" lon="2.44697">
        <ele>71.6</ele>
        <time>2024-04-06T14:51:13Z</time>
      </trkpt>
      <trkpt lat="48.39936" lon="2.44733">
        <ele>71</ele>
        <time>2024-04-06T14:51:17Z</time>
      </trkpt>
      <trkpt lat="48.39944" lon="2.4475">
        <ele>70.6</ele>
        <time>2024-04-06T14:51:19Z</time>
      </trkpt>
      <trkpt lat="48.39952" lon="2.44766">
        <ele>69.8</ele>
        <time>2024-04-06T14:51:21Z</time>
      </trkpt>
      <trkpt lat="48.39968" lon="2.44797">
        <ele>68.8</ele>
        <time>2024-04-06T14:51:25Z</time>
      </trkpt>
      <trkpt lat="48.39971" lon="2.44805">
        <ele>68.6</ele>
        <time>2024-04-06T14:51:26Z</time>
      </trkpt>
      <trkpt lat="48.39988" lon="2.44838">
        <ele>67.4</ele>
        <time>2024-04-06T14:51:31Z</time>
      </trkpt>
      <trkpt lat="48.39991" lon="2.44845">
        <ele>67.2</ele>
        <time>2024-04-06T14:51:32Z</time>
      </trkpt>
      <trkpt lat="48.4001" lon="2.44884">
        <ele>66.6</ele>
        <time>2024-04-06T14:51:38Z</time>
      </trkpt>
      <trkpt lat="48.40027" lon="2.44919">
        <ele>66.4</ele>
        <time>2024-04-06T14:51:43Z</time>
      </trkpt>
      <trkpt lat="48.4003" lon="2.44933">
        <ele>66.4</ele>
        <time>2024-04-06T14:51:45Z</time>
      </trkpt>
      <trkpt lat="48.40044" lon="2.44966">
        <ele>66.2</ele>
        <time>2024-04-06T14:51:50Z</time>
      </trkpt>
      <trkpt lat="48.40047" lon="2.44972">
        <ele>66.2</ele>
        <time>2024-04-06T14:51:51Z</time>
      </trkpt>
      <trkpt lat="48.40061" lon="2.44998">
        <ele>66.2</ele>
        <time>2024-04-06T14:51:55Z</time>
      </trkpt>
      <trkpt lat="48.40068" lon="2.4501">
        <ele>66.2</ele>
        <time>2024-04-06T14:51:57Z</time>
      </trkpt>
      <trkpt lat="48.40078" lon="2.45031">
        <ele>66.2</ele>
        <time>2024-04-06T14:52:00Z</time>
      </trkpt>
      <trkpt lat="48.40082" lon="2.45047">
        <ele>66.2</ele>
        <time>2024-04-06T14:52:02Z</time>
      </trkpt>
      <trkpt lat="48.4008" lon="2.45073">
        <ele>66.2</ele>
        <time>2024-04-06T14:52:06Z</time>
      </trkpt>
      <trkpt lat="48.40075" lon="2.45084">
        <ele>66.2</ele>
        <time>2024-04-06T14:52:08Z</time>
      </trkpt>
      <trkpt lat="48.40073" lon="2.45091">
        <ele>66.2</ele>
        <time>2024-04-06T14:52:09Z</time>
      </trkpt>
      <trkpt lat="48.40072" lon="2.451">
        <ele>66.2</ele>
        <time>2024-04-06T14:52:10Z</time>
      </trkpt>
      <trkpt lat="48.40076" lon="2.45125">
        <ele>66.2</ele>
        <time>2024-04-06T14:52:13Z</time>
      </trkpt>
      <trkpt lat="48.40079" lon="2.45132">
        <ele>66.2</ele>
        <time>2024-04-06T14:52:14Z</time>
      </trkpt>
      <trkpt lat="48.40095" lon="2.45172">
        <ele>66</ele>
        <time>2024-04-06T14:52:19Z</time>
      </trkpt>
      <trkpt lat="48.40097" lon="2.4518">
        <ele>65.8</ele>
        <time>2024-04-06T14:52:20Z</time>
      </trkpt>
      <trkpt lat="48.40101" lon="2.45197">
        <ele>65.6</ele>
        <time>2024-04-06T14:52:22Z</time>
      </trkpt>
      <trkpt lat="48.4011" lon="2.4522">
        <ele>65.4</ele>
        <time>2024-04-06T14:52:25Z</time>
      </trkpt>
      <trkpt lat="48.40112" lon="2.45228">
        <ele>65.4</ele>
        <time>2024-04-06T14:52:26Z</time>
      </trkpt>
      <trkpt lat="48.40114" lon="2.45236">
        <ele>65.4</ele>
        <time>2024-04-06T14:52:27Z</time>
      </trkpt>
      <trkpt lat="48.40118" lon="2.45262">
        <ele>65</ele>
        <time>2024-04-06T14:52:30Z</time>
      </trkpt>
      <trkpt lat="48.40119" lon="2.45271">
        <ele>65</ele>
        <time>2024-04-06T14:52:31Z</time>
      </trkpt>
      <trkpt lat="48.40121" lon="2.45305">
        <ele>64.6</ele>
        <time>2024-04-06T14:52:35Z</time>
      </trkpt>
      <trkpt lat="48.40121" lon="2.45322">
        <ele>64.6</ele>
        <time>2024-04-06T14:52:37Z</time>
      </trkpt>
      <trkpt lat="48.4012" lon="2.45372">
        <ele>64</ele>
        <time>2024-04-06T14:52:43Z</time>
      </trkpt>
      <trkpt lat="48.40117" lon="2.45403">
        <ele>64</ele>
        <time>2024-04-06T14:52:48Z</time>
      </trkpt>
      <trkpt lat="48.40106" lon="2.45401">
        <ele>64.2</ele>
        <time>2024-04-06T14:52:51Z</time>
      </trkpt>
      <trkpt lat="48.401" lon="2.45398">
        <ele>64.2</ele>
        <time>2024-04-06T14:52:52Z</time>
      </trkpt>
      <trkpt lat="48.4009" lon="2.45391">
        <ele>64.2</ele>
        <time>2024-04-06T14:52:54Z</time>
      </trkpt>
      <trkpt lat="48.40083" lon="2.45389">
        <ele>64.2</ele>
        <time>2024-04-06T14:52:55Z</time>
      </trkpt>
      <trkpt lat="48.40044" lon="2.45382">
        <ele>64.2</ele>
        <time>2024-04-06T14:53:01Z</time>
      </trkpt>
      <trkpt lat="48.40001" lon="2.45379">
        <ele>64.2</ele>
        <time>2024-04-06T14:53:08Z</time>
      </trkpt>
      <trkpt lat="48.39963" lon="2.45377">
        <ele>64.6</ele>
        <time>2024-04-06T14:53:14Z</time>
      </trkpt>
      <trkpt lat="48.39957" lon="2.45378">
        <ele>64.6</ele>
        <time>2024-04-06T14:53:15Z</time>
      </trkpt>
      <trkpt lat="48.39914" lon="2.45395">
        <ele>64.6</ele>
        <time>2024-04-06T14:53:22Z</time>
      </trkpt>
      <trkpt lat="48.3987" lon="2.45406">
        <ele>65</ele>
        <time>2024-04-06T14:53:29Z</time>
      </trkpt>
      <trkpt lat="48.39864" lon="2.45407">
        <ele>65</ele>
        <time>2024-04-06T14:53:30Z</time>
      </trkpt>
      <trkpt lat="48.39838" lon="2.45413">
        <ele>65.2</ele>
        <time>2024-04-06T14:53:34Z</time>
      </trkpt>
      <trkpt lat="48.39795" lon="2.45418">
        <ele>65.2</ele>
        <time>2024-04-06T14:53:41Z</time>
      </trkpt>
      <trkpt lat="48.3975" lon="2.45431">
        <ele>65.4</ele>
        <time>2024-04-06T14:53:48Z</time>
      </trkpt>
      <trkpt lat="48.39725" lon="2.45438">
        <ele>65.8</ele>
        <time>2024-04-06T14:53:52Z</time>
      </trkpt>
      <trkpt lat="48.39671" lon="2.45451">
        <ele>66</ele>
        <time>2024-04-06T14:54:01Z</time>
      </trkpt>
      <trkpt lat="48.39651" lon="2.45454">
        <ele>66</ele>
        <time>2024-04-06T14:54:05Z</time>
      </trkpt>
      <trkpt lat="48.39647" lon="2.45455">
        <ele>66</ele>
        <time>2024-04-06T14:54:06Z</time>
      </trkpt>
      <trkpt lat="48.39642" lon="2.45456">
        <ele>66</ele>
        <time>2024-04-06T14:54:07Z</time>
      </trkpt>
      <trkpt lat="48.39628" lon="2.45453">
        <ele>66.4</ele>
        <time>2024-04-06T14:54:10Z</time>
      </trkpt>
      <trkpt lat="48.39623" lon="2.45452">
        <ele>66.8</ele>
        <time>2024-04-06T14:54:11Z</time>
      </trkpt>
      <trkpt lat="48.39587" lon="2.45438">
        <ele>67.2</ele>
        <time>2024-04-06T14:54:17Z</time>
      </trkpt>
      <trkpt lat="48.39542" lon="2.45422">
        <ele>67.2</ele>
        <time>2024-04-06T14:54:24Z</time>
      </trkpt>
      <trkpt lat="48.39507" lon="2.45408">
        <ele>67.8</ele>
        <time>2024-04-06T14:54:30Z</time>
      </trkpt>
      <trkpt lat="48.39502" lon="2.45406">
        <ele>68</ele>
        <time>2024-04-06T14:54:31Z</time>
      </trkpt>
      <trkpt lat="48.39493" lon="2.45412">
        <ele>68.2</ele>
        <time>2024-04-06T14:54:33Z</time>
      </trkpt>
      <trkpt lat="48.39488" lon="2.45434">
        <ele>68.6</ele>
        <time>2024-04-06T14:54:36Z</time>
      </trkpt>
      <trkpt lat="48.3949" lon="2.45451">
        <ele>69</ele>
        <time>2024-04-06T14:54:38Z</time>
      </trkpt>
      <trkpt lat="48.39491" lon="2.45459">
        <ele>69.2</ele>
        <time>2024-04-06T14:54:39Z</time>
      </trkpt>
      <trkpt lat="48.39492" lon="2.45467">
        <ele>69.2</ele>
        <time>2024-04-06T14:54:40Z</time>
      </trkpt>
      <trkpt lat="48.395" lon="2.45519">
        <ele>69.4</ele>
        <time>2024-04-06T14:54:46Z</time>
      </trkpt>
      <trkpt lat="48.3951" lon="2.45563">
        <ele>69.6</ele>
        <time>2024-04-06T14:54:51Z</time>
      </trkpt>
      <trkpt lat="48.39513" lon="2.45571">
        <ele>69.6</ele>
        <time>2024-04-06T14:54:52Z</time>
      </trkpt>
      <trkpt lat="48.39536" lon="2.45624">
        <ele>69.4</ele>
        <time>2024-04-06T14:54:59Z</time>
      </trkpt>
      <trkpt lat="48.39553" lon="2.45661">
        <ele>69.4</ele>
        <time>2024-04-06T14:55:04Z</time>
      </trkpt>
      <trkpt lat="48.39561" lon="2.45676">
        <ele>69.4</ele>
        <time>2024-04-06T14:55:06Z</time>
      </trkpt>
      <trkpt lat="48.39565" lon="2.45691">
        <ele>69.4</ele>
        <time>2024-04-06T14:55:08Z</time>
      </trkpt>
      <trkpt lat="48.39563" lon="2.45704">
        <ele>69.4</ele>
        <time>2024-04-06T14:55:11Z</time>
      </trkpt>
      <trkpt lat="48.39555" lon="2.45709">
        <ele>69.4</ele>
        <time>2024-04-06T14:55:14Z</time>
      </trkpt>
      <trkpt lat="48.39552" lon="2.4571">
        <ele>69.4</ele>
        <time>2024-04-06T14:55:15Z</time>
      </trkpt>
      <trkpt lat="48.39545" lon="2.45715">
        <ele>70.6</ele>
        <time>2024-04-06T14:55:17Z</time>
      </trkpt>
      <trkpt lat="48.39538" lon="2.45718">
        <ele>71.8</ele>
        <time>2024-04-06T14:55:19Z</time>
      </trkpt>
      <trkpt lat="48.39532" lon="2.45722">
        <ele>72.8</ele>
        <time>2024-04-06T14:55:21Z</time>
      </trkpt>
      <trkpt lat="48.39529" lon="2.45725">
        <ele>73</ele>
        <time>2024-04-06T14:55:22Z</time>
      </trkpt>
      <trkpt lat="48.3952" lon="2.45733">
        <ele>74.2</ele>
        <time>2024-04-06T14:55:25Z</time>
      </trkpt>
      <trkpt lat="48.39517" lon="2.45734">
        <ele>74.6</ele>
        <time>2024-04-06T14:55:26Z</time>
      </trkpt>
      <trkpt lat="48.39513" lon="2.45735">
        <ele>75.2</ele>
        <time>2024-04-06T14:55:28Z</time>
      </trkpt>
      <trkpt lat="48.39504" lon="2.45739">
        <ele>76.6</ele>
        <time>2024-04-06T14:55:32Z</time>
      </trkpt>
      <trkpt lat="48.39501" lon="2.45741">
        <ele>76.8</ele>
        <time>2024-04-06T14:55:33Z</time>
      </trkpt>
      <trkpt lat="48.39495" lon="2.45744">
        <ele>77.6</ele>
        <time>2024-04-06T14:55:35Z</time>
      </trkpt>
      <trkpt lat="48.39488" lon="2.45749">
        <ele>78.8</ele>
        <time>2024-04-06T14:55:39Z</time>
      </trkpt>
      <trkpt lat="48.39484" lon="2.45752">
        <ele>79.6</ele>
        <time>2024-04-06T14:55:45Z</time>
      </trkpt>
      <trkpt lat="48.39484" lon="2.45752">
        <ele>81</ele>
        <time>2024-04-06T14:55:47Z</time>
      </trkpt>
      <trkpt lat="48.39483" lon="2.45751">
        <ele>81.4</ele>
        <time>2024-04-06T14:55:49Z</time>
      </trkpt>
      <trkpt lat="48.39475" lon="2.45754">
        <ele>81.6</ele>
        <time>2024-04-06T14:55:56Z</time>
      </trkpt>
      <trkpt lat="48.39473" lon="2.45756">
        <ele>81.6</ele>
        <time>2024-04-06T14:55:57Z</time>
      </trkpt>
      <trkpt lat="48.39467" lon="2.45767">
        <ele>81.6</ele>
        <time>2024-04-06T14:56:01Z</time>
      </trkpt>
      <trkpt lat="48.39462" lon="2.45784">
        <ele>82.2</ele>
        <time>2024-04-06T14:56:06Z</time>
      </trkpt>
      <trkpt lat="48.39462" lon="2.45787">
        <ele>82.4</ele>
        <time>2024-04-06T14:56:07Z</time>
      </trkpt>
      <trkpt lat="48.39462" lon="2.45791">
        <ele>82.6</ele>
        <time>2024-04-06T14:56:08Z</time>
      </trkpt>
      <trkpt lat="48.3947" lon="2.45799">
        <ele>83.4</ele>
        <time>2024-04-06T14:56:12Z</time>
      </trkpt>
      <trkpt lat="48.39473" lon="2.45801">
        <ele>83.4</ele>
        <time>2024-04-06T14:56:13Z</time>
      </trkpt>
      <trkpt lat="48.39475" lon="2.45802">
        <ele>83.8</ele>
        <time>2024-04-06T14:56:17Z</time>
      </trkpt>
      <trkpt lat="48.39476" lon="2.45809">
        <ele>83.8</ele>
        <time>2024-04-06T14:56:21Z</time>
      </trkpt>
      <trkpt lat="48.39476" lon="2.45817">
        <ele>83.8</ele>
        <time>2024-04-06T14:56:23Z</time>
      </trkpt>
      <trkpt lat="48.39479" lon="2.45836">
        <ele>83.6</ele>
        <time>2024-04-06T14:56:26Z</time>
      </trkpt>
      <trkpt lat="48.39481" lon="2.45844">
        <ele>83.6</ele>
        <time>2024-04-06T14:56:27Z</time>
      </trkpt>
      <trkpt lat="48.39481" lon="2.45877">
        <ele>82.8</ele>
        <time>2024-04-06T14:56:30Z</time>
      </trkpt>
      <trkpt lat="48.3948" lon="2.45888">
        <ele>82.2</ele>
        <time>2024-04-06T14:56:31Z</time>
      </trkpt>
      <trkpt lat="48.39479" lon="2.45899">
        <ele>82</ele>
        <time>2024-04-06T14:56:32Z</time>
      </trkpt>
      <trkpt lat="48.39478" lon="2.45911">
        <ele>81.8</ele>
        <time>2024-04-06T14:56:33Z</time>
      </trkpt>
      <trkpt lat="48.39477" lon="2.45921">
        <ele>81.2</ele>
        <time>2024-04-06T14:56:34Z</time>
      </trkpt>
      <trkpt lat="48.39477" lon="2.45931">
        <ele>80</ele>
        <time>2024-04-06T14:56:35Z</time>
      </trkpt>
      <trkpt lat="48.39476" lon="2.45941">
        <ele>78.4</ele>
        <time>2024-04-06T14:56:36Z</time>
      </trkpt>
      <trkpt lat="48.39476" lon="2.4595">
        <ele>76.8</ele>
        <time>2024-04-06T14:56:37Z</time>
      </trkpt>
      <trkpt lat="48.39474" lon="2.4596">
        <ele>75</ele>
        <time>2024-04-06T14:56:38Z</time>
      </trkpt>
      <trkpt lat="48.39472" lon="2.45968">
        <ele>73.8</ele>
        <time>2024-04-06T14:56:39Z</time>
      </trkpt>
      <trkpt lat="48.39462" lon="2.45986">
        <ele>72.4</ele>
        <time>2024-04-06T14:56:42Z</time>
      </trkpt>
      <trkpt lat="48.39458" lon="2.45989">
        <ele>72.4</ele>
        <time>2024-04-06T14:56:43Z</time>
      </trkpt>
      <trkpt lat="48.39455" lon="2.45993">
        <ele>72.4</ele>
        <time>2024-04-06T14:56:44Z</time>
      </trkpt>
      <trkpt lat="48.3945" lon="2.46001">
        <ele>72.2</ele>
        <time>2024-04-06T14:56:47Z</time>
      </trkpt>
      <trkpt lat="48.39436" lon="2.46024">
        <ele>73.4</ele>
        <time>2024-04-06T14:56:54Z</time>
      </trkpt>
      <trkpt lat="48.39425" lon="2.46041">
        <ele>73.8</ele>
        <time>2024-04-06T14:56:58Z</time>
      </trkpt>
      <trkpt lat="48.39421" lon="2.46044">
        <ele>74</ele>
        <time>2024-04-06T14:56:59Z</time>
      </trkpt>
      <trkpt lat="48.39404" lon="2.46037">
        <ele>74.4</ele>
        <time>2024-04-06T14:57:04Z</time>
      </trkpt>
      <trkpt lat="48.39401" lon="2.46035">
        <ele>74.4</ele>
        <time>2024-04-06T14:57:05Z</time>
      </trkpt>
      <trkpt lat="48.394" lon="2.46032">
        <ele>74.4</ele>
        <time>2024-04-06T14:57:06Z</time>
      </trkpt>
      <trkpt lat="48.39393" lon="2.46029">
        <ele>74.6</ele>
        <time>2024-04-06T14:57:09Z</time>
      </trkpt>
      <trkpt lat="48.39378" lon="2.46023">
        <ele>75.8</ele>
        <time>2024-04-06T14:57:14Z</time>
      </trkpt>
      <trkpt lat="48.39376" lon="2.46022">
        <ele>76.6</ele>
        <time>2024-04-06T14:57:15Z</time>
      </trkpt>
      <trkpt lat="48.39373" lon="2.46022">
        <ele>77.2</ele>
        <time>2024-04-06T14:57:16Z</time>
      </trkpt>
      <trkpt lat="48.39371" lon="2.46023">
        <ele>77.6</ele>
        <time>2024-04-06T14:57:17Z</time>
      </trkpt>
      <trkpt lat="48.39368" lon="2.4603">
        <ele>78.4</ele>
        <time>2024-04-06T14:57:19Z</time>
      </trkpt>
      <trkpt lat="48.39363" lon="2.46049">
        <ele>79.6</ele>
        <time>2024-04-06T14:57:23Z</time>
      </trkpt>
      <trkpt lat="48.39361" lon="2.46061">
        <ele>80.2</ele>
        <time>2024-04-06T14:57:26Z</time>
      </trkpt>
      <trkpt lat="48.39357" lon="2.46067">
        <ele>80.4</ele>
        <time>2024-04-06T14:57:28Z</time>
      </trkpt>
      <trkpt lat="48.39353" lon="2.46078">
        <ele>80.4</ele>
        <time>2024-04-06T14:57:31Z</time>
      </trkpt>
      <trkpt lat="48.39345" lon="2.46096">
        <ele>80.4</ele>
        <time>2024-04-06T14:57:35Z</time>
      </trkpt>
      <trkpt lat="48.39342" lon="2.461">
        <ele>80.4</ele>
        <time>2024-04-06T14:57:36Z</time>
      </trkpt>
      <trkpt lat="48.39337" lon="2.46105">
        <ele>80.4</ele>
        <time>2024-04-06T14:57:37Z</time>
      </trkpt>
      <trkpt lat="48.39323" lon="2.46115">
        <ele>79.8</ele>
        <time>2024-04-06T14:57:40Z</time>
      </trkpt>
      <trkpt lat="48.39311" lon="2.46126">
        <ele>78.2</ele>
        <time>2024-04-06T14:57:43Z</time>
      </trkpt>
      <trkpt lat="48.39307" lon="2.46132">
        <ele>78</ele>
        <time>2024-04-06T14:57:44Z</time>
      </trkpt>
      <trkpt lat="48.39303" lon="2.46137">
        <ele>77.6</ele>
        <time>2024-04-06T14:57:45Z</time>
      </trkpt>
      <trkpt lat="48.3929" lon="2.46141">
        <ele>77.4</ele>
        <time>2024-04-06T14:57:49Z</time>
      </trkpt>
      <trkpt lat="48.39285" lon="2.46136">
        <ele>77.4</ele>
        <time>2024-04-06T14:57:53Z</time>
      </trkpt>
      <trkpt lat="48.39285" lon="2.46134">
        <ele>77.4</ele>
        <time>2024-04-06T14:57:54Z</time>
      </trkpt>
      <trkpt lat="48.3928" lon="2.46127">
        <ele>78.4</ele>
        <time>2024-04-06T14:57:58Z</time>
      </trkpt>
      <trkpt lat="48.39278" lon="2.46125">
        <ele>79</ele>
        <time>2024-04-06T14:57:59Z</time>
      </trkpt>
      <trkpt lat="48.39277" lon="2.4612">
        <ele>80.4</ele>
        <time>2024-04-06T14:58:01Z</time>
      </trkpt>
      <trkpt lat="48.39276" lon="2.4611">
        <ele>81.8</ele>
        <time>2024-04-06T14:58:04Z</time>
      </trkpt>
      <trkpt lat="48.39275" lon="2.46106">
        <ele>82.2</ele>
        <time>2024-04-06T14:58:05Z</time>
      </trkpt>
      <trkpt lat="48.39269" lon="2.461">
        <ele>83</ele>
        <time>2024-04-06T14:58:08Z</time>
      </trkpt>
      <trkpt lat="48.3926" lon="2.46095">
        <ele>83.4</ele>
        <time>2024-04-06T14:58:12Z</time>
      </trkpt>
      <trkpt lat="48.39256" lon="2.46091">
        <ele>84</ele>
        <time>2024-04-06T14:58:14Z</time>
      </trkpt>
      <trkpt lat="48.39253" lon="2.46086">
        <ele>84</ele>
        <time>2024-04-06T14:58:16Z</time>
      </trkpt>
      <trkpt lat="48.39254" lon="2.46084">
        <ele>84</ele>
        <time>2024-04-06T14:58:17Z</time>
      </trkpt>
      <trkpt lat="48.39256" lon="2.46078">
        <ele>84.2</ele>
        <time>2024-04-06T14:58:19Z</time>
      </trkpt>
      <trkpt lat="48.39257" lon="2.46074">
        <ele>84.2</ele>
        <time>2024-04-06T14:58:20Z</time>
      </trkpt>
      <trkpt lat="48.39263" lon="2.46058">
        <ele>84.4</ele>
        <time>2024-04-06T14:58:24Z</time>
      </trkpt>
      <trkpt lat="48.39272" lon="2.46051">
        <ele>84.8</ele>
        <time>2024-04-06T14:58:28Z</time>
      </trkpt>
      <trkpt lat="48.39277" lon="2.46043">
        <ele>85.2</ele>
        <time>2024-04-06T14:58:33Z</time>
      </trkpt>
      <trkpt lat="48.39277" lon="2.46041">
        <ele>85.4</ele>
        <time>2024-04-06T14:58:34Z</time>
      </trkpt>
      <trkpt lat="48.39281" lon="2.46031">
        <ele>86.8</ele>
        <time>2024-04-06T14:58:38Z</time>
      </trkpt>
      <trkpt lat="48.39284" lon="2.46026">
        <ele>88</ele>
        <time>2024-04-06T14:58:40Z</time>
      </trkpt>
      <trkpt lat="48.39287" lon="2.46026">
        <ele>89.4</ele>
        <time>2024-04-06T14:58:42Z</time>
      </trkpt>
      <trkpt lat="48.39288" lon="2.4603">
        <ele>90</ele>
        <time>2024-04-06T14:58:46Z</time>
      </trkpt>
      <trkpt lat="48.39289" lon="2.46043">
        <ele>90.2</ele>
        <time>2024-04-06T14:58:51Z</time>
      </trkpt>
      <trkpt lat="48.39302" lon="2.46045">
        <ele>90</ele>
        <time>2024-04-06T14:58:55Z</time>
      </trkpt>
      <trkpt lat="48.39306" lon="2.46044">
        <ele>90</ele>
        <time>2024-04-06T14:58:56Z</time>
      </trkpt>
      <trkpt lat="48.39318" lon="2.46033">
        <ele>87.8</ele>
        <time>2024-04-06T14:59:00Z</time>
      </trkpt>
      <trkpt lat="48.39322" lon="2.46025">
        <ele>86.6</ele>
        <time>2024-04-06T14:59:02Z</time>
      </trkpt>
      <trkpt lat="48.39326" lon="2.46013">
        <ele>85.6</ele>
        <time>2024-04-06T14:59:05Z</time>
      </trkpt>
      <trkpt lat="48.3933" lon="2.45986">
        <ele>85.2</ele>
        <time>2024-04-06T14:59:10Z</time>
      </trkpt>
      <trkpt lat="48.39332" lon="2.45982">
        <ele>84.8</ele>
        <time>2024-04-06T14:59:11Z</time>
      </trkpt>
      <trkpt lat="48.39339" lon="2.45979">
        <ele>84.6</ele>
        <time>2024-04-06T14:59:13Z</time>
      </trkpt>
      <trkpt lat="48.39343" lon="2.45979">
        <ele>84.4</ele>
        <time>2024-04-06T14:59:14Z</time>
      </trkpt>
      <trkpt lat="48.39351" lon="2.45972">
        <ele>83.4</ele>
        <time>2024-04-06T14:59:17Z</time>
      </trkpt>
      <trkpt lat="48.39352" lon="2.45967">
        <ele>83.4</ele>
        <time>2024-04-06T14:59:18Z</time>
      </trkpt>
      <trkpt lat="48.39353" lon="2.45954">
        <ele>83.2</ele>
        <time>2024-04-06T14:59:21Z</time>
      </trkpt>
      <trkpt lat="48.39353" lon="2.45944">
        <ele>83.2</ele>
        <time>2024-04-06T14:59:23Z</time>
      </trkpt>
      <trkpt lat="48.39353" lon="2.4594">
        <ele>83.2</ele>
        <time>2024-04-06T14:59:24Z</time>
      </trkpt>
      <trkpt lat="48.39354" lon="2.45933">
        <ele>83.2</ele>
        <time>2024-04-06T14:59:26Z</time>
      </trkpt>
      <trkpt lat="48.39361" lon="2.45927">
        <ele>83.4</ele>
        <time>2024-04-06T14:59:30Z</time>
      </trkpt>
      <trkpt lat="48.39364" lon="2.45926">
        <ele>83.8</ele>
        <time>2024-04-06T14:59:31Z</time>
      </trkpt>
      <trkpt lat="48.3937" lon="2.45923">
        <ele>84.6</ele>
        <time>2024-04-06T14:59:33Z</time>
      </trkpt>
      <trkpt lat="48.39372" lon="2.45924">
        <ele>85</ele>
        <time>2024-04-06T14:59:34Z</time>
      </trkpt>
      <trkpt lat="48.39378" lon="2.45927">
        <ele>85.6</ele>
        <time>2024-04-06T14:59:36Z</time>
      </trkpt>
      <trkpt lat="48.39384" lon="2.45934">
        <ele>86.2</ele>
        <time>2024-04-06T14:59:39Z</time>
      </trkpt>
      <trkpt lat="48.39386" lon="2.45935">
        <ele>86.4</ele>
        <time>2024-04-06T14:59:40Z</time>
      </trkpt>
      <trkpt lat="48.39393" lon="2.4593">
        <ele>86.8</ele>
        <time>2024-04-06T14:59:43Z</time>
      </trkpt>
      <trkpt lat="48.39398" lon="2.45925">
        <ele>87.8</ele>
        <time>2024-04-06T14:59:46Z</time>
      </trkpt>
      <trkpt lat="48.39398" lon="2.45922">
        <ele>88.4</ele>
        <time>2024-04-06T14:59:47Z</time>
      </trkpt>
      <trkpt lat="48.39399" lon="2.45919">
        <ele>88.8</ele>
        <time>2024-04-06T14:59:48Z</time>
      </trkpt>
      <trkpt lat="48.39404" lon="2.45917">
        <ele>89.6</ele>
        <time>2024-04-06T14:59:51Z</time>
      </trkpt>
      <trkpt lat="48.39412" lon="2.45925">
        <ele>90.4</ele>
        <time>2024-04-06T14:59:56Z</time>
      </trkpt>
      <trkpt lat="48.39419" lon="2.45915">
        <ele>90.4</ele>
        <time>2024-04-06T15:00:00Z</time>
      </trkpt>
      <trkpt lat="48.39423" lon="2.45901">
        <ele>90.2</ele>
        <time>2024-04-06T15:00:04Z</time>
      </trkpt>
      <trkpt lat="48.39423" lon="2.45899">
        <ele>90</ele>
        <time>2024-04-06T15:00:05Z</time>
      </trkpt>
      <trkpt lat="48.39423" lon="2.45896">
        <ele>89.8</ele>
        <time>2024-04-06T15:00:09Z</time>
      </trkpt>
      <trkpt lat="48.39425" lon="2.459">
        <ele>90</ele>
        <time>2024-04-06T15:00:17Z</time>
      </trkpt>
      <trkpt lat="48.39426" lon="2.459">
        <ele>89.8</ele>
        <time>2024-04-06T15:00:25Z</time>
      </trkpt>
      <trkpt lat="48.39426" lon="2.45899">
        <ele>89.8</ele>
        <time>2024-04-06T15:00:39Z</time>
      </trkpt>
      <trkpt lat="48.39426" lon="2.45899">
        <ele>89.6</ele>
        <time>2024-04-06T15:00:58Z</time>
      </trkpt>
      <trkpt lat="48.39426" lon="2.45898">
        <ele>89.4</ele>
        <time>2024-04-06T15:01:17Z</time>
      </trkpt>
      <trkpt lat="48.39425" lon="2.459">
        <ele>89.6</ele>
        <time>2024-04-06T15:01:30Z</time>
      </trkpt>
      <trkpt lat="48.39426" lon="2.45892">
        <ele>89.6</ele>
        <time>2024-04-06T15:01:39Z</time>
      </trkpt>
      <trkpt lat="48.39424" lon="2.45882">
        <ele>89.6</ele>
        <time>2024-04-06T15:01:43Z</time>
      </trkpt>
      <trkpt lat="48.39423" lon="2.4588">
        <ele>89.6</ele>
        <time>2024-04-06T15:01:44Z</time>
      </trkpt>
      <trkpt lat="48.39419" lon="2.45882">
        <ele>89.8</ele>
        <time>2024-04-06T15:01:47Z</time>
      </trkpt>
      <trkpt lat="48.39418" lon="2.45883">
        <ele>90</ele>
        <time>2024-04-06T15:01:48Z</time>
      </trkpt>
      <trkpt lat="48.39415" lon="2.45885">
        <ele>90.4</ele>
        <time>2024-04-06T15:01:50Z</time>
      </trkpt>
      <trkpt lat="48.39408" lon="2.45889">
        <ele>91.2</ele>
        <time>2024-04-06T15:01:53Z</time>
      </trkpt>
      <trkpt lat="48.39405" lon="2.45891">
        <ele>91.4</ele>
        <time>2024-04-06T15:01:54Z</time>
      </trkpt>
      <trkpt lat="48.39397" lon="2.45895">
        <ele>91.4</ele>
        <time>2024-04-06T15:01:57Z</time>
      </trkpt>
      <trkpt lat="48.39396" lon="2.45892">
        <ele>91.4</ele>
        <time>2024-04-06T15:01:58Z</time>
      </trkpt>
      <trkpt lat="48.39397" lon="2.4588">
        <ele>91.4</ele>
        <time>2024-04-06T15:02:01Z</time>
      </trkpt>
      <trkpt lat="48.39397" lon="2.45865">
        <ele>90</ele>
        <time>2024-04-06T15:02:05Z</time>
      </trkpt>
      <trkpt lat="48.39397" lon="2.45861">
        <ele>90</ele>
        <time>2024-04-06T15:02:06Z</time>
      </trkpt>
      <trkpt lat="48.39396" lon="2.45845">
        <ele>90</ele>
        <time>2024-04-06T15:02:10Z</time>
      </trkpt>
      <trkpt lat="48.39397" lon="2.45842">
        <ele>90</ele>
        <time>2024-04-06T15:02:11Z</time>
      </trkpt>
      <trkpt lat="48.39399" lon="2.45828">
        <ele>90.6</ele>
        <time>2024-04-06T15:02:15Z</time>
      </trkpt>
      <trkpt lat="48.394" lon="2.45809">
        <ele>90.6</ele>
        <time>2024-04-06T15:02:19Z</time>
      </trkpt>
      <trkpt lat="48.39404" lon="2.45788">
        <ele>90.4</ele>
        <time>2024-04-06T15:02:24Z</time>
      </trkpt>
      <trkpt lat="48.39403" lon="2.45782">
        <ele>90.4</ele>
        <time>2024-04-06T15:02:26Z</time>
      </trkpt>
      <trkpt lat="48.39401" lon="2.45782">
        <ele>90.2</ele>
        <time>2024-04-06T15:02:27Z</time>
      </trkpt>
      <trkpt lat="48.39392" lon="2.45781">
        <ele>89.2</ele>
        <time>2024-04-06T15:02:31Z</time>
      </trkpt>
      <trkpt lat="48.39389" lon="2.45777">
        <ele>89</ele>
        <time>2024-04-06T15:02:32Z</time>
      </trkpt>
      <trkpt lat="48.39377" lon="2.45769">
        <ele>88.4</ele>
        <time>2024-04-06T15:02:35Z</time>
      </trkpt>
      <trkpt lat="48.39369" lon="2.45768">
        <ele>88.2</ele>
        <time>2024-04-06T15:02:37Z</time>
      </trkpt>
      <trkpt lat="48.39366" lon="2.45765">
        <ele>87.8</ele>
        <time>2024-04-06T15:02:38Z</time>
      </trkpt>
      <trkpt lat="48.39364" lon="2.45762">
        <ele>87.2</ele>
        <time>2024-04-06T15:02:39Z</time>
      </trkpt>
      <trkpt lat="48.39363" lon="2.45758">
        <ele>86.6</ele>
        <time>2024-04-06T15:02:40Z</time>
      </trkpt>
      <trkpt lat="48.39368" lon="2.45748">
        <ele>84.8</ele>
        <time>2024-04-06T15:02:42Z</time>
      </trkpt>
      <trkpt lat="48.39372" lon="2.45739">
        <ele>83.2</ele>
        <time>2024-04-06T15:02:44Z</time>
      </trkpt>
      <trkpt lat="48.3938" lon="2.4573">
        <ele>82.8</ele>
        <time>2024-04-06T15:02:46Z</time>
      </trkpt>
      <trkpt lat="48.39384" lon="2.45725">
        <ele>82.6</ele>
        <time>2024-04-06T15:02:47Z</time>
      </trkpt>
      <trkpt lat="48.39388" lon="2.45721">
        <ele>82.2</ele>
        <time>2024-04-06T15:02:48Z</time>
      </trkpt>
      <trkpt lat="48.394" lon="2.45705">
        <ele>81</ele>
        <time>2024-04-06T15:02:51Z</time>
      </trkpt>
      <trkpt lat="48.39419" lon="2.45693">
        <ele>80.2</ele>
        <time>2024-04-06T15:02:55Z</time>
      </trkpt>
      <trkpt lat="48.39428" lon="2.45687">
        <ele>79.8</ele>
        <time>2024-04-06T15:02:58Z</time>
      </trkpt>
      <trkpt lat="48.39429" lon="2.45683">
        <ele>79.6</ele>
        <time>2024-04-06T15:02:59Z</time>
      </trkpt>
      <trkpt lat="48.39434" lon="2.45658">
        <ele>78.8</ele>
        <time>2024-04-06T15:03:04Z</time>
      </trkpt>
      <trkpt lat="48.39437" lon="2.45651">
        <ele>78.8</ele>
        <time>2024-04-06T15:03:05Z</time>
      </trkpt>
      <trkpt lat="48.39447" lon="2.45634">
        <ele>78.4</ele>
        <time>2024-04-06T15:03:08Z</time>
      </trkpt>
      <trkpt lat="48.39451" lon="2.456">
        <ele>77.6</ele>
        <time>2024-04-06T15:03:12Z</time>
      </trkpt>
      <trkpt lat="48.39456" lon="2.45587">
        <ele>76.2</ele>
        <time>2024-04-06T15:03:15Z</time>
      </trkpt>
      <trkpt lat="48.39459" lon="2.45578">
        <ele>75.2</ele>
        <time>2024-04-06T15:03:17Z</time>
      </trkpt>
      <trkpt lat="48.39459" lon="2.45562">
        <ele>74.4</ele>
        <time>2024-04-06T15:03:20Z</time>
      </trkpt>
      <trkpt lat="48.39458" lon="2.45557">
        <ele>74</ele>
        <time>2024-04-06T15:03:21Z</time>
      </trkpt>
      <trkpt lat="48.3945" lon="2.45548">
        <ele>73.8</ele>
        <time>2024-04-06T15:03:24Z</time>
      </trkpt>
      <trkpt lat="48.39444" lon="2.45548">
        <ele>73.6</ele>
        <time>2024-04-06T15:03:27Z</time>
      </trkpt>
      <trkpt lat="48.39443" lon="2.45549">
        <ele>73.8</ele>
        <time>2024-04-06T15:03:28Z</time>
      </trkpt>
      <trkpt lat="48.39431" lon="2.45549">
        <ele>74.8</ele>
        <time>2024-04-06T15:03:33Z</time>
      </trkpt>
      <trkpt lat="48.39428" lon="2.45548">
        <ele>75.2</ele>
        <time>2024-04-06T15:03:34Z</time>
      </trkpt>
      <trkpt lat="48.39422" lon="2.45548">
        <ele>76</ele>
        <time>2024-04-06T15:03:36Z</time>
      </trkpt>
      <trkpt lat="48.3942" lon="2.4555">
        <ele>76.4</ele>
        <time>2024-04-06T15:03:37Z</time>
      </trkpt>
      <trkpt lat="48.39418" lon="2.45552">
        <ele>77</ele>
        <time>2024-04-06T15:03:38Z</time>
      </trkpt>
      <trkpt lat="48.39415" lon="2.45556">
        <ele>77.6</ele>
        <time>2024-04-06T15:03:40Z</time>
      </trkpt>
      <trkpt lat="48.39413" lon="2.45561">
        <ele>77.8</ele>
        <time>2024-04-06T15:03:42Z</time>
      </trkpt>
      <trkpt lat="48.39412" lon="2.45564">
        <ele>78.2</ele>
        <time>2024-04-06T15:03:43Z</time>
      </trkpt>
      <trkpt lat="48.3941" lon="2.45569">
        <ele>78.6</ele>
        <time>2024-04-06T15:03:45Z</time>
      </trkpt>
      <trkpt lat="48.39408" lon="2.45577">
        <ele>79.6</ele>
        <time>2024-04-06T15:03:48Z</time>
      </trkpt>
      <trkpt lat="48.39406" lon="2.4558">
        <ele>79.8</ele>
        <time>2024-04-06T15:03:49Z</time>
      </trkpt>
      <trkpt lat="48.39405" lon="2.45582">
        <ele>80</ele>
        <time>2024-04-06T15:03:50Z</time>
      </trkpt>
      <trkpt lat="48.39401" lon="2.45588">
        <ele>80.6</ele>
        <time>2024-04-06T15:03:52Z</time>
      </trkpt>
      <trkpt lat="48.39397" lon="2.45589">
        <ele>80.8</ele>
        <time>2024-04-06T15:03:53Z</time>
      </trkpt>
      <trkpt lat="48.39383" lon="2.4559">
        <ele>81</ele>
        <time>2024-04-06T15:03:56Z</time>
      </trkpt>
      <trkpt lat="48.39369" lon="2.45603">
        <ele>81.2</ele>
        <time>2024-04-06T15:03:59Z</time>
      </trkpt>
      <trkpt lat="48.39364" lon="2.4561">
        <ele>81.2</ele>
        <time>2024-04-06T15:04:00Z</time>
      </trkpt>
      <trkpt lat="48.39359" lon="2.45615">
        <ele>81.2</ele>
        <time>2024-04-06T15:04:01Z</time>
      </trkpt>
      <trkpt lat="48.39354" lon="2.45618">
        <ele>80.2</ele>
        <time>2024-04-06T15:04:02Z</time>
      </trkpt>
      <trkpt lat="48.39351" lon="2.45619">
        <ele>79.2</ele>
        <time>2024-04-06T15:04:03Z</time>
      </trkpt>
      <trkpt lat="48.39344" lon="2.45623">
        <ele>78.4</ele>
        <time>2024-04-06T15:04:06Z</time>
      </trkpt>
      <trkpt lat="48.39335" lon="2.45636">
        <ele>78.4</ele>
        <time>2024-04-06T15:04:11Z</time>
      </trkpt>
      <trkpt lat="48.39334" lon="2.45638">
        <ele>78.4</ele>
        <time>2024-04-06T15:04:12Z</time>
      </trkpt>
      <trkpt lat="48.3933" lon="2.45646">
        <ele>79.8</ele>
        <time>2024-04-06T15:04:15Z</time>
      </trkpt>
      <trkpt lat="48.39329" lon="2.4565">
        <ele>80.8</ele>
        <time>2024-04-06T15:04:17Z</time>
      </trkpt>
      <trkpt lat="48.39328" lon="2.45655">
        <ele>81.4</ele>
        <time>2024-04-06T15:04:19Z</time>
      </trkpt>
      <trkpt lat="48.39327" lon="2.45657">
        <ele>81.6</ele>
        <time>2024-04-06T15:04:20Z</time>
      </trkpt>
      <trkpt lat="48.39325" lon="2.45658">
        <ele>82</ele>
        <time>2024-04-06T15:04:21Z</time>
      </trkpt>
      <trkpt lat="48.39319" lon="2.45656">
        <ele>83</ele>
        <time>2024-04-06T15:04:24Z</time>
      </trkpt>
      <trkpt lat="48.39311" lon="2.45661">
        <ele>84.4</ele>
        <time>2024-04-06T15:04:29Z</time>
      </trkpt>
      <trkpt lat="48.3931" lon="2.45662">
        <ele>84.4</ele>
        <time>2024-04-06T15:04:30Z</time>
      </trkpt>
      <trkpt lat="48.39301" lon="2.45667">
        <ele>85.4</ele>
        <time>2024-04-06T15:04:36Z</time>
      </trkpt>
      <trkpt lat="48.39298" lon="2.45667">
        <ele>86.2</ele>
        <time>2024-04-06T15:04:38Z</time>
      </trkpt>
      <trkpt lat="48.39298" lon="2.45667">
        <ele>86.6</ele>
        <time>2024-04-06T15:04:39Z</time>
      </trkpt>
      <trkpt lat="48.39294" lon="2.45664">
        <ele>87.4</ele>
        <time>2024-04-06T15:04:41Z</time>
      </trkpt>
      <trkpt lat="48.39293" lon="2.45661">
        <ele>87.6</ele>
        <time>2024-04-06T15:04:42Z</time>
      </trkpt>
      <trkpt lat="48.39287" lon="2.45655">
        <ele>88.4</ele>
        <time>2024-04-06T15:04:45Z</time>
      </trkpt>
      <trkpt lat="48.39285" lon="2.45654">
        <ele>88.6</ele>
        <time>2024-04-06T15:04:46Z</time>
      </trkpt>
      <trkpt lat="48.39284" lon="2.45654">
        <ele>88.8</ele>
        <time>2024-04-06T15:04:47Z</time>
      </trkpt>
      <trkpt lat="48.39276" lon="2.45648">
        <ele>88.8</ele>
        <time>2024-04-06T15:04:50Z</time>
      </trkpt>
      <trkpt lat="48.3927" lon="2.45646">
        <ele>89</ele>
        <time>2024-04-06T15:04:52Z</time>
      </trkpt>
      <trkpt lat="48.39263" lon="2.4564">
        <ele>89</ele>
        <time>2024-04-06T15:04:54Z</time>
      </trkpt>
      <trkpt lat="48.39256" lon="2.45619">
        <ele>88.8</ele>
        <time>2024-04-06T15:04:58Z</time>
      </trkpt>
      <trkpt lat="48.39249" lon="2.45595">
        <ele>88.2</ele>
        <time>2024-04-06T15:05:03Z</time>
      </trkpt>
      <trkpt lat="48.39243" lon="2.4559">
        <ele>87.6</ele>
        <time>2024-04-06T15:05:05Z</time>
      </trkpt>
      <trkpt lat="48.39238" lon="2.45586">
        <ele>87.4</ele>
        <time>2024-04-06T15:05:07Z</time>
      </trkpt>
      <trkpt lat="48.39235" lon="2.45585">
        <ele>87.2</ele>
        <time>2024-04-06T15:05:08Z</time>
      </trkpt>
      <trkpt lat="48.3923" lon="2.45582">
        <ele>86</ele>
        <time>2024-04-06T15:05:10Z</time>
      </trkpt>
      <trkpt lat="48.39227" lon="2.4558">
        <ele>85.2</ele>
        <time>2024-04-06T15:05:11Z</time>
      </trkpt>
      <trkpt lat="48.39223" lon="2.45571">
        <ele>84.4</ele>
        <time>2024-04-06T15:05:13Z</time>
      </trkpt>
      <trkpt lat="48.39218" lon="2.45558">
        <ele>83.8</ele>
        <time>2024-04-06T15:05:15Z</time>
      </trkpt>
      <trkpt lat="48.39213" lon="2.4555">
        <ele>83.4</ele>
        <time>2024-04-06T15:05:17Z</time>
      </trkpt>
      <trkpt lat="48.39211" lon="2.45546">
        <ele>81.6</ele>
        <time>2024-04-06T15:05:21Z</time>
      </trkpt>
      <trkpt lat="48.3921" lon="2.45541">
        <ele>80.8</ele>
        <time>2024-04-06T15:05:23Z</time>
      </trkpt>
      <trkpt lat="48.39209" lon="2.45539">
        <ele>80.6</ele>
        <time>2024-04-06T15:05:24Z</time>
      </trkpt>
      <trkpt lat="48.39206" lon="2.45531">
        <ele>79.8</ele>
        <time>2024-04-06T15:05:28Z</time>
      </trkpt>
      <trkpt lat="48.39205" lon="2.45526">
        <ele>79.6</ele>
        <time>2024-04-06T15:05:30Z</time>
      </trkpt>
      <trkpt lat="48.39201" lon="2.45523">
        <ele>79.6</ele>
        <time>2024-04-06T15:05:33Z</time>
      </trkpt>
      <trkpt lat="48.39199" lon="2.45523">
        <ele>79.6</ele>
        <time>2024-04-06T15:05:35Z</time>
      </trkpt>
      <trkpt lat="48.39197" lon="2.45524">
        <ele>79.4</ele>
        <time>2024-04-06T15:05:36Z</time>
      </trkpt>
      <trkpt lat="48.39191" lon="2.45524">
        <ele>79.4</ele>
        <time>2024-04-06T15:05:39Z</time>
      </trkpt>
      <trkpt lat="48.39183" lon="2.45529">
        <ele>79.4</ele>
        <time>2024-04-06T15:05:44Z</time>
      </trkpt>
      <trkpt lat="48.39176" lon="2.45519">
        <ele>80</ele>
        <time>2024-04-06T15:05:48Z</time>
      </trkpt>
      <trkpt lat="48.39174" lon="2.45514">
        <ele>80</ele>
        <time>2024-04-06T15:05:49Z</time>
      </trkpt>
      <trkpt lat="48.39165" lon="2.455">
        <ele>80.2</ele>
        <time>2024-04-06T15:05:52Z</time>
      </trkpt>
      <trkpt lat="48.3915" lon="2.45491">
        <ele>80.4</ele>
        <time>2024-04-06T15:05:56Z</time>
      </trkpt>
      <trkpt lat="48.39147" lon="2.4549">
        <ele>80.6</ele>
        <time>2024-04-06T15:05:57Z</time>
      </trkpt>
      <trkpt lat="48.39132" lon="2.4548">
        <ele>80.8</ele>
        <time>2024-04-06T15:06:03Z</time>
      </trkpt>
      <trkpt lat="48.39124" lon="2.45474">
        <ele>81.6</ele>
        <time>2024-04-06T15:06:07Z</time>
      </trkpt>
      <trkpt lat="48.3912" lon="2.45467">
        <ele>82.6</ele>
        <time>2024-04-06T15:06:10Z</time>
      </trkpt>
      <trkpt lat="48.39118" lon="2.45465">
        <ele>83</ele>
        <time>2024-04-06T15:06:11Z</time>
      </trkpt>
      <trkpt lat="48.39106" lon="2.4545">
        <ele>83.8</ele>
        <time>2024-04-06T15:06:15Z</time>
      </trkpt>
      <trkpt lat="48.39101" lon="2.45446">
        <ele>83.8</ele>
        <time>2024-04-06T15:06:16Z</time>
      </trkpt>
      <trkpt lat="48.39083" lon="2.45432">
        <ele>84</ele>
        <time>2024-04-06T15:06:20Z</time>
      </trkpt>
      <trkpt lat="48.3906" lon="2.45415">
        <ele>83.8</ele>
        <time>2024-04-06T15:06:26Z</time>
      </trkpt>
      <trkpt lat="48.3904" lon="2.45405">
        <ele>83.8</ele>
        <time>2024-04-06T15:06:31Z</time>
      </trkpt>
      <trkpt lat="48.3902" lon="2.45391">
        <ele>84</ele>
        <time>2024-04-06T15:06:36Z</time>
      </trkpt>
      <trkpt lat="48.39015" lon="2.45389">
        <ele>83.8</ele>
        <time>2024-04-06T15:06:37Z</time>
      </trkpt>
      <trkpt lat="48.3901" lon="2.45389">
        <ele>83.8</ele>
        <time>2024-04-06T15:06:38Z</time>
      </trkpt>
      <trkpt lat="48.39007" lon="2.45392">
        <ele>83.8</ele>
        <time>2024-04-06T15:06:39Z</time>
      </trkpt>
      <trkpt lat="48.38997" lon="2.45404">
        <ele>84.2</ele>
        <time>2024-04-06T15:06:44Z</time>
      </trkpt>
      <trkpt lat="48.38984" lon="2.45415">
        <ele>85.2</ele>
        <time>2024-04-06T15:06:49Z</time>
      </trkpt>
      <trkpt lat="48.38979" lon="2.45422">
        <ele>86.4</ele>
        <time>2024-04-06T15:06:51Z</time>
      </trkpt>
      <trkpt lat="48.38975" lon="2.45432">
        <ele>87.4</ele>
        <time>2024-04-06T15:06:53Z</time>
      </trkpt>
      <trkpt lat="48.38967" lon="2.45449">
        <ele>88</ele>
        <time>2024-04-06T15:06:57Z</time>
      </trkpt>
      <trkpt lat="48.38959" lon="2.45465">
        <ele>88.6</ele>
        <time>2024-04-06T15:07:01Z</time>
      </trkpt>
      <trkpt lat="48.38958" lon="2.45469">
        <ele>88.8</ele>
        <time>2024-04-06T15:07:02Z</time>
      </trkpt>
      <trkpt lat="48.3895" lon="2.45486">
        <ele>89.6</ele>
        <time>2024-04-06T15:07:07Z</time>
      </trkpt>
      <trkpt lat="48.38947" lon="2.45492">
        <ele>90</ele>
        <time>2024-04-06T15:07:09Z</time>
      </trkpt>
      <trkpt lat="48.38941" lon="2.455">
        <ele>91</ele>
        <time>2024-04-06T15:07:12Z</time>
      </trkpt>
      <trkpt lat="48.38937" lon="2.4551">
        <ele>92</ele>
        <time>2024-04-06T15:07:15Z</time>
      </trkpt>
      <trkpt lat="48.38927" lon="2.4553">
        <ele>93.2</ele>
        <time>2024-04-06T15:07:21Z</time>
      </trkpt>
      <trkpt lat="48.38916" lon="2.45549">
        <ele>94.4</ele>
        <time>2024-04-06T15:07:27Z</time>
      </trkpt>
      <trkpt lat="48.38908" lon="2.45562">
        <ele>95.4</ele>
        <time>2024-04-06T15:07:31Z</time>
      </trkpt>
      <trkpt lat="48.38901" lon="2.45569">
        <ele>95.8</ele>
        <time>2024-04-06T15:07:34Z</time>
      </trkpt>
      <trkpt lat="48.38893" lon="2.45576">
        <ele>96.6</ele>
        <time>2024-04-06T15:07:37Z</time>
      </trkpt>
      <trkpt lat="48.38886" lon="2.45583">
        <ele>97.8</ele>
        <time>2024-04-06T15:07:41Z</time>
      </trkpt>
      <trkpt lat="48.38879" lon="2.45589">
        <ele>99</ele>
        <time>2024-04-06T15:07:45Z</time>
      </trkpt>
      <trkpt lat="48.38874" lon="2.45592">
        <ele>99.6</ele>
        <time>2024-04-06T15:07:48Z</time>
      </trkpt>
      <trkpt lat="48.38871" lon="2.45594">
        <ele>100.4</ele>
        <time>2024-04-06T15:07:50Z</time>
      </trkpt>
      <trkpt lat="48.38865" lon="2.45599">
        <ele>101.4</ele>
        <time>2024-04-06T15:07:55Z</time>
      </trkpt>
      <trkpt lat="48.38857" lon="2.45602">
        <ele>102.6</ele>
        <time>2024-04-06T15:08:00Z</time>
      </trkpt>
      <trkpt lat="48.38854" lon="2.45604">
        <ele>103.2</ele>
        <time>2024-04-06T15:08:02Z</time>
      </trkpt>
      <trkpt lat="48.38851" lon="2.45607">
        <ele>104</ele>
        <time>2024-04-06T15:08:04Z</time>
      </trkpt>
      <trkpt lat="48.38846" lon="2.45608">
        <ele>105</ele>
        <time>2024-04-06T15:08:07Z</time>
      </trkpt>
      <trkpt lat="48.38844" lon="2.4561">
        <ele>105.6</ele>
        <time>2024-04-06T15:08:09Z</time>
      </trkpt>
      <trkpt lat="48.38842" lon="2.45612">
        <ele>106</ele>
        <time>2024-04-06T15:08:10Z</time>
      </trkpt>
      <trkpt lat="48.38836" lon="2.45616">
        <ele>107.2</ele>
        <time>2024-04-06T15:08:14Z</time>
      </trkpt>
      <trkpt lat="48.38832" lon="2.45618">
        <ele>107.8</ele>
        <time>2024-04-06T15:08:16Z</time>
      </trkpt>
      <trkpt lat="48.38828" lon="2.45619">
        <ele>108.2</ele>
        <time>2024-04-06T15:08:18Z</time>
      </trkpt>
      <trkpt lat="48.38825" lon="2.4562">
        <ele>109.2</ele>
        <time>2024-04-06T15:08:21Z</time>
      </trkpt>
      <trkpt lat="48.38821" lon="2.4562">
        <ele>109.6</ele>
        <time>2024-04-06T15:08:23Z</time>
      </trkpt>
      <trkpt lat="48.38818" lon="2.45618">
        <ele>110.2</ele>
        <time>2024-04-06T15:08:25Z</time>
      </trkpt>
      <trkpt lat="48.38811" lon="2.45613">
        <ele>111.4</ele>
        <time>2024-04-06T15:08:30Z</time>
      </trkpt>
      <trkpt lat="48.38809" lon="2.456">
        <ele>112.2</ele>
        <time>2024-04-06T15:08:34Z</time>
      </trkpt>
      <trkpt lat="48.38808" lon="2.45576">
        <ele>112.2</ele>
        <time>2024-04-06T15:08:37Z</time>
      </trkpt>
      <trkpt lat="48.38807" lon="2.45566">
        <ele>112.2</ele>
        <time>2024-04-06T15:08:38Z</time>
      </trkpt>
      <trkpt lat="48.38805" lon="2.45528">
        <ele>112</ele>
        <time>2024-04-06T15:08:42Z</time>
      </trkpt>
      <trkpt lat="48.38802" lon="2.45518">
        <ele>111.2</ele>
        <time>2024-04-06T15:08:43Z</time>
      </trkpt>
      <trkpt lat="48.388" lon="2.45511">
        <ele>110</ele>
        <time>2024-04-06T15:08:44Z</time>
      </trkpt>
      <trkpt lat="48.38796" lon="2.45504">
        <ele>108.4</ele>
        <time>2024-04-06T15:08:45Z</time>
      </trkpt>
      <trkpt lat="48.38791" lon="2.45499">
        <ele>107.4</ele>
        <time>2024-04-06T15:08:46Z</time>
      </trkpt>
      <trkpt lat="48.38787" lon="2.45496">
        <ele>106.6</ele>
        <time>2024-04-06T15:08:47Z</time>
      </trkpt>
      <trkpt lat="48.38783" lon="2.45493">
        <ele>104.4</ele>
        <time>2024-04-06T15:08:48Z</time>
      </trkpt>
      <trkpt lat="48.38773" lon="2.45489">
        <ele>103.4</ele>
        <time>2024-04-06T15:08:51Z</time>
      </trkpt>
      <trkpt lat="48.38769" lon="2.45486">
        <ele>103.4</ele>
        <time>2024-04-06T15:08:52Z</time>
      </trkpt>
      <trkpt lat="48.38756" lon="2.45478">
        <ele>103.2</ele>
        <time>2024-04-06T15:08:57Z</time>
      </trkpt>
      <trkpt lat="48.38749" lon="2.4547">
        <ele>104.4</ele>
        <time>2024-04-06T15:09:00Z</time>
      </trkpt>
      <trkpt lat="48.38746" lon="2.45465">
        <ele>104.8</ele>
        <time>2024-04-06T15:09:01Z</time>
      </trkpt>
      <trkpt lat="48.38742" lon="2.45461">
        <ele>104.8</ele>
        <time>2024-04-06T15:09:02Z</time>
      </trkpt>
      <trkpt lat="48.38726" lon="2.4545">
        <ele>105</ele>
        <time>2024-04-06T15:09:05Z</time>
      </trkpt>
      <trkpt lat="48.3872" lon="2.4545">
        <ele>105</ele>
        <time>2024-04-06T15:09:06Z</time>
      </trkpt>
      <trkpt lat="48.38709" lon="2.45452">
        <ele>105</ele>
        <time>2024-04-06T15:09:08Z</time>
      </trkpt>
      <trkpt lat="48.38704" lon="2.45454">
        <ele>105</ele>
        <time>2024-04-06T15:09:10Z</time>
      </trkpt>
      <trkpt lat="48.387" lon="2.45452">
        <ele>104</ele>
        <time>2024-04-06T15:09:11Z</time>
      </trkpt>
      <trkpt lat="48.38693" lon="2.45446">
        <ele>103.2</ele>
        <time>2024-04-06T15:09:13Z</time>
      </trkpt>
      <trkpt lat="48.38685" lon="2.45436">
        <ele>101.8</ele>
        <time>2024-04-06T15:09:16Z</time>
      </trkpt>
      <trkpt lat="48.38672" lon="2.45423">
        <ele>101.2</ele>
        <time>2024-04-06T15:09:20Z</time>
      </trkpt>
      <trkpt lat="48.38667" lon="2.45421">
        <ele>100.8</ele>
        <time>2024-04-06T15:09:21Z</time>
      </trkpt>
      <trkpt lat="48.3865" lon="2.45412">
        <ele>100</ele>
        <time>2024-04-06T15:09:25Z</time>
      </trkpt>
      <trkpt lat="48.38647" lon="2.45409">
        <ele>99.2</ele>
        <time>2024-04-06T15:09:26Z</time>
      </trkpt>
      <trkpt lat="48.38642" lon="2.45399">
        <ele>97.8</ele>
        <time>2024-04-06T15:09:28Z</time>
      </trkpt>
      <trkpt lat="48.38641" lon="2.45393">
        <ele>97.4</ele>
        <time>2024-04-06T15:09:29Z</time>
      </trkpt>
      <trkpt lat="48.38643" lon="2.45364">
        <ele>96.6</ele>
        <time>2024-04-06T15:09:33Z</time>
      </trkpt>
      <trkpt lat="48.38644" lon="2.45357">
        <ele>96.4</ele>
        <time>2024-04-06T15:09:34Z</time>
      </trkpt>
      <trkpt lat="48.38643" lon="2.45336">
        <ele>96</ele>
        <time>2024-04-06T15:09:37Z</time>
      </trkpt>
      <trkpt lat="48.38641" lon="2.4533">
        <ele>95.6</ele>
        <time>2024-04-06T15:09:38Z</time>
      </trkpt>
      <trkpt lat="48.38635" lon="2.45317">
        <ele>94.4</ele>
        <time>2024-04-06T15:09:40Z</time>
      </trkpt>
      <trkpt lat="48.38631" lon="2.4531">
        <ele>93.8</ele>
        <time>2024-04-06T15:09:41Z</time>
      </trkpt>
      <trkpt lat="48.38621" lon="2.45296">
        <ele>93.2</ele>
        <time>2024-04-06T15:09:43Z</time>
      </trkpt>
      <trkpt lat="48.38616" lon="2.45292">
        <ele>92.6</ele>
        <time>2024-04-06T15:09:44Z</time>
      </trkpt>
      <trkpt lat="48.38611" lon="2.45288">
        <ele>91.8</ele>
        <time>2024-04-06T15:09:45Z</time>
      </trkpt>
      <trkpt lat="48.38605" lon="2.45282">
        <ele>90.8</ele>
        <time>2024-04-06T15:09:47Z</time>
      </trkpt>
      <trkpt lat="48.38604" lon="2.45278">
        <ele>90.2</ele>
        <time>2024-04-06T15:09:48Z</time>
      </trkpt>
      <trkpt lat="48.38605" lon="2.45267">
        <ele>88.2</ele>
        <time>2024-04-06T15:09:50Z</time>
      </trkpt>
      <trkpt lat="48.38606" lon="2.45255">
        <ele>86.6</ele>
        <time>2024-04-06T15:09:52Z</time>
      </trkpt>
      <trkpt lat="48.38612" lon="2.45246">
        <ele>85.4</ele>
        <time>2024-04-06T15:09:54Z</time>
      </trkpt>
      <trkpt lat="48.38616" lon="2.45227">
        <ele>84.8</ele>
        <time>2024-04-06T15:09:57Z</time>
      </trkpt>
      <trkpt lat="48.38617" lon="2.4522">
        <ele>84.2</ele>
        <time>2024-04-06T15:09:58Z</time>
      </trkpt>
      <trkpt lat="48.38617" lon="2.45213">
        <ele>83.8</ele>
        <time>2024-04-06T15:09:59Z</time>
      </trkpt>
      <trkpt lat="48.3862" lon="2.45196">
        <ele>83.2</ele>
        <time>2024-04-06T15:10:01Z</time>
      </trkpt>
      <trkpt lat="48.38622" lon="2.45187">
        <ele>83</ele>
        <time>2024-04-06T15:10:02Z</time>
      </trkpt>
      <trkpt lat="48.3863" lon="2.45146">
        <ele>82</ele>
        <time>2024-04-06T15:10:07Z</time>
      </trkpt>
      <trkpt lat="48.38631" lon="2.45138">
        <ele>81.8</ele>
        <time>2024-04-06T15:10:08Z</time>
      </trkpt>
      <trkpt lat="48.38632" lon="2.45129">
        <ele>81.4</ele>
        <time>2024-04-06T15:10:09Z</time>
      </trkpt>
      <trkpt lat="48.38632" lon="2.4512">
        <ele>80.8</ele>
        <time>2024-04-06T15:10:10Z</time>
      </trkpt>
      <trkpt lat="48.38627" lon="2.45098">
        <ele>80.2</ele>
        <time>2024-04-06T15:10:13Z</time>
      </trkpt>
      <trkpt lat="48.38614" lon="2.45074">
        <ele>79.8</ele>
        <time>2024-04-06T15:10:17Z</time>
      </trkpt>
      <trkpt lat="48.38611" lon="2.45068">
        <ele>79.8</ele>
        <time>2024-04-06T15:10:18Z</time>
      </trkpt>
      <trkpt lat="48.38596" lon="2.45037">
        <ele>80.4</ele>
        <time>2024-04-06T15:10:23Z</time>
      </trkpt>
      <trkpt lat="48.38593" lon="2.45031">
        <ele>80.4</ele>
        <time>2024-04-06T15:10:24Z</time>
      </trkpt>
      <trkpt lat="48.38579" lon="2.45007">
        <ele>80.6</ele>
        <time>2024-04-06T15:10:28Z</time>
      </trkpt>
      <trkpt lat="48.38575" lon="2.45001">
        <ele>80.8</ele>
        <time>2024-04-06T15:10:29Z</time>
      </trkpt>
      <trkpt lat="48.38571" lon="2.44995">
        <ele>80.8</ele>
        <time>2024-04-06T15:10:30Z</time>
      </trkpt>
      <trkpt lat="48.38561" lon="2.44977">
        <ele>81</ele>
        <time>2024-04-06T15:10:33Z</time>
      </trkpt>
      <trkpt lat="48.38555" lon="2.44965">
        <ele>81.2</ele>
        <time>2024-04-06T15:10:35Z</time>
      </trkpt>
      <trkpt lat="48.3854" lon="2.44944">
        <ele>81.4</ele>
        <time>2024-04-06T15:10:39Z</time>
      </trkpt>
      <trkpt lat="48.38528" lon="2.4493">
        <ele>81.6</ele>
        <time>2024-04-06T15:10:42Z</time>
      </trkpt>
      <trkpt lat="48.38519" lon="2.44921">
        <ele>81.6</ele>
        <time>2024-04-06T15:10:44Z</time>
      </trkpt>
      <trkpt lat="48.38514" lon="2.44916">
        <ele>81.8</ele>
        <time>2024-04-06T15:10:45Z</time>
      </trkpt>
      <trkpt lat="48.38484" lon="2.44882">
        <ele>82.6</ele>
        <time>2024-04-06T15:10:52Z</time>
      </trkpt>
      <trkpt lat="48.38476" lon="2.44873">
        <ele>82.8</ele>
        <time>2024-04-06T15:10:54Z</time>
      </trkpt>
      <trkpt lat="48.38453" lon="2.44848">
        <ele>83.8</ele>
        <time>2024-04-06T15:11:00Z</time>
      </trkpt>
      <trkpt lat="48.38449" lon="2.44844">
        <ele>84</ele>
        <time>2024-04-06T15:11:01Z</time>
      </trkpt>
      <trkpt lat="48.38416" lon="2.44809">
        <ele>85</ele>
        <time>2024-04-06T15:11:09Z</time>
      </trkpt>
      <trkpt lat="48.38383" lon="2.44777">
        <ele>86</ele>
        <time>2024-04-06T15:11:17Z</time>
      </trkpt>
      <trkpt lat="48.38363" lon="2.44757">
        <ele>86.2</ele>
        <time>2024-04-06T15:11:22Z</time>
      </trkpt>
      <trkpt lat="48.38356" lon="2.44747">
        <ele>86.4</ele>
        <time>2024-04-06T15:11:24Z</time>
      </trkpt>
      <trkpt lat="48.38321" lon="2.44706">
        <ele>86.8</ele>
        <time>2024-04-06T15:11:33Z</time>
      </trkpt>
      <trkpt lat="48.38288" lon="2.44674">
        <ele>87.2</ele>
        <time>2024-04-06T15:11:41Z</time>
      </trkpt>
      <trkpt lat="48.38284" lon="2.4467">
        <ele>87.2</ele>
        <time>2024-04-06T15:11:42Z</time>
      </trkpt>
      <trkpt lat="48.38262" lon="2.44651">
        <ele>87.2</ele>
        <time>2024-04-06T15:11:47Z</time>
      </trkpt>
      <trkpt lat="48.38258" lon="2.44648">
        <ele>87.2</ele>
        <time>2024-04-06T15:11:48Z</time>
      </trkpt>
      <trkpt lat="48.38235" lon="2.44619">
        <ele>87.4</ele>
        <time>2024-04-06T15:11:54Z</time>
      </trkpt>
      <trkpt lat="48.38232" lon="2.44613">
        <ele>87.4</ele>
        <time>2024-04-06T15:11:55Z</time>
      </trkpt>
      <trkpt lat="48.38223" lon="2.44588">
        <ele>87.4</ele>
        <time>2024-04-06T15:11:59Z</time>
      </trkpt>
      <trkpt lat="48.38216" lon="2.44563">
        <ele>87.8</ele>
        <time>2024-04-06T15:12:03Z</time>
      </trkpt>
      <trkpt lat="48.3821" lon="2.44552">
        <ele>88</ele>
        <time>2024-04-06T15:12:05Z</time>
      </trkpt>
      <trkpt lat="48.38207" lon="2.44547">
        <ele>88</ele>
        <time>2024-04-06T15:12:06Z</time>
      </trkpt>
      <trkpt lat="48.38194" lon="2.44527">
        <ele>88.2</ele>
        <time>2024-04-06T15:12:10Z</time>
      </trkpt>
      <trkpt lat="48.3819" lon="2.44522">
        <ele>88.4</ele>
        <time>2024-04-06T15:12:11Z</time>
      </trkpt>
      <trkpt lat="48.38176" lon="2.44493">
        <ele>88.6</ele>
        <time>2024-04-06T15:12:16Z</time>
      </trkpt>
      <trkpt lat="48.38159" lon="2.44451">
        <ele>88.8</ele>
        <time>2024-04-06T15:12:23Z</time>
      </trkpt>
      <trkpt lat="48.38145" lon="2.44414">
        <ele>89</ele>
        <time>2024-04-06T15:12:29Z</time>
      </trkpt>
      <trkpt lat="48.38137" lon="2.44386">
        <ele>89.2</ele>
        <time>2024-04-06T15:12:34Z</time>
      </trkpt>
      <trkpt lat="48.38129" lon="2.44368">
        <ele>89.2</ele>
        <time>2024-04-06T15:12:39Z</time>
      </trkpt>
      <trkpt lat="48.38122" lon="2.44375">
        <ele>89.4</ele>
        <time>2024-04-06T15:12:43Z</time>
      </trkpt>
      <trkpt lat="48.38115" lon="2.44379">
        <ele>89.6</ele>
        <time>2024-04-06T15:12:46Z</time>
      </trkpt>
      <trkpt lat="48.38111" lon="2.4438">
        <ele>89.8</ele>
        <time>2024-04-06T15:12:48Z</time>
      </trkpt>
      <trkpt lat="48.38108" lon="2.44388">
        <ele>90.4</ele>
        <time>2024-04-06T15:12:51Z</time>
      </trkpt>
      <trkpt lat="48.38105" lon="2.44393">
        <ele>91</ele>
        <time>2024-04-06T15:12:53Z</time>
      </trkpt>
      <trkpt lat="48.38102" lon="2.44395">
        <ele>91.4</ele>
        <time>2024-04-06T15:12:54Z</time>
      </trkpt>
      <trkpt lat="48.381" lon="2.44396">
        <ele>92</ele>
        <time>2024-04-06T15:12:55Z</time>
      </trkpt>
      <trkpt lat="48.38096" lon="2.444">
        <ele>92.8</ele>
        <time>2024-04-06T15:12:57Z</time>
      </trkpt>
      <trkpt lat="48.38095" lon="2.444">
        <ele>93</ele>
        <time>2024-04-06T15:12:58Z</time>
      </trkpt>
      <trkpt lat="48.3809" lon="2.44402">
        <ele>93.2</ele>
        <time>2024-04-06T15:13:00Z</time>
      </trkpt>
      <trkpt lat="48.3808" lon="2.44403">
        <ele>94</ele>
        <time>2024-04-06T15:13:04Z</time>
      </trkpt>
      <trkpt lat="48.38073" lon="2.44401">
        <ele>95.2</ele>
        <time>2024-04-06T15:13:08Z</time>
      </trkpt>
      <trkpt lat="48.38071" lon="2.44402">
        <ele>95.6</ele>
        <time>2024-04-06T15:13:09Z</time>
      </trkpt>
      <trkpt lat="48.38066" lon="2.44404">
        <ele>96.4</ele>
        <time>2024-04-06T15:13:12Z</time>
      </trkpt>
      <trkpt lat="48.38064" lon="2.44409">
        <ele>97.2</ele>
        <time>2024-04-06T15:13:14Z</time>
      </trkpt>
      <trkpt lat="48.38062" lon="2.44411">
        <ele>97.6</ele>
        <time>2024-04-06T15:13:15Z</time>
      </trkpt>
      <trkpt lat="48.3806" lon="2.44417">
        <ele>98.4</ele>
        <time>2024-04-06T15:13:17Z</time>
      </trkpt>
      <trkpt lat="48.38059" lon="2.44419">
        <ele>98.8</ele>
        <time>2024-04-06T15:13:18Z</time>
      </trkpt>
      <trkpt lat="48.38058" lon="2.44422">
        <ele>99.4</ele>
        <time>2024-04-06T15:13:20Z</time>
      </trkpt>
      <trkpt lat="48.38057" lon="2.44428">
        <ele>99.8</ele>
        <time>2024-04-06T15:13:24Z</time>
      </trkpt>
      <trkpt lat="48.38056" lon="2.44431">
        <ele>100</ele>
        <time>2024-04-06T15:13:25Z</time>
      </trkpt>
      <trkpt lat="48.38056" lon="2.44433">
        <ele>100</ele>
        <time>2024-04-06T15:13:26Z</time>
      </trkpt>
      <trkpt lat="48.38055" lon="2.44439">
        <ele>101.2</ele>
        <time>2024-04-06T15:13:29Z</time>
      </trkpt>
      <trkpt lat="48.38053" lon="2.44445">
        <ele>102.2</ele>
        <time>2024-04-06T15:13:31Z</time>
      </trkpt>
      <trkpt lat="48.38053" lon="2.44447">
        <ele>102.6</ele>
        <time>2024-04-06T15:13:32Z</time>
      </trkpt>
      <trkpt lat="48.38054" lon="2.44449">
        <ele>103.2</ele>
        <time>2024-04-06T15:13:33Z</time>
      </trkpt>
      <trkpt lat="48.38052" lon="2.44457">
        <ele>104.4</ele>
        <time>2024-04-06T15:13:36Z</time>
      </trkpt>
      <trkpt lat="48.38051" lon="2.44462">
        <ele>105.2</ele>
        <time>2024-04-06T15:13:38Z</time>
      </trkpt>
      <trkpt lat="48.3805" lon="2.44464">
        <ele>105.6</ele>
        <time>2024-04-06T15:13:39Z</time>
      </trkpt>
      <trkpt lat="48.38048" lon="2.44474">
        <ele>106.6</ele>
        <time>2024-04-06T15:13:43Z</time>
      </trkpt>
      <trkpt lat="48.38044" lon="2.44481">
        <ele>107.6</ele>
        <time>2024-04-06T15:13:47Z</time>
      </trkpt>
      <trkpt lat="48.3804" lon="2.44488">
        <ele>108.8</ele>
        <time>2024-04-06T15:13:51Z</time>
      </trkpt>
      <trkpt lat="48.38039" lon="2.44494">
        <ele>109.6</ele>
        <time>2024-04-06T15:13:54Z</time>
      </trkpt>
      <trkpt lat="48.38038" lon="2.44497">
        <ele>110</ele>
        <time>2024-04-06T15:13:55Z</time>
      </trkpt>
      <trkpt lat="48.38033" lon="2.4451">
        <ele>110.8</ele>
        <time>2024-04-06T15:13:59Z</time>
      </trkpt>
      <trkpt lat="48.38032" lon="2.44513">
        <ele>111.2</ele>
        <time>2024-04-06T15:14:00Z</time>
      </trkpt>
      <trkpt lat="48.3803" lon="2.44516">
        <ele>112.2</ele>
        <time>2024-04-06T15:14:02Z</time>
      </trkpt>
      <trkpt lat="48.38027" lon="2.44518">
        <ele>112.2</ele>
        <time>2024-04-06T15:14:04Z</time>
      </trkpt>
      <trkpt lat="48.38026" lon="2.44519">
        <ele>112.4</ele>
        <time>2024-04-06T15:14:05Z</time>
      </trkpt>
      <trkpt lat="48.38018" lon="2.44522">
        <ele>113.6</ele>
        <time>2024-04-06T15:14:10Z</time>
      </trkpt>
      <trkpt lat="48.38016" lon="2.44524">
        <ele>114.4</ele>
        <time>2024-04-06T15:14:12Z</time>
      </trkpt>
      <trkpt lat="48.38015" lon="2.44525">
        <ele>114.8</ele>
        <time>2024-04-06T15:14:13Z</time>
      </trkpt>
      <trkpt lat="48.38013" lon="2.44527">
        <ele>115.2</ele>
        <time>2024-04-06T15:14:14Z</time>
      </trkpt>
      <trkpt lat="48.3801" lon="2.4453">
        <ele>116</ele>
        <time>2024-04-06T15:14:16Z</time>
      </trkpt>
      <trkpt lat="48.38007" lon="2.44533">
        <ele>117</ele>
        <time>2024-04-06T15:14:20Z</time>
      </trkpt>
      <trkpt lat="48.38007" lon="2.44534">
        <ele>117.2</ele>
        <time>2024-04-06T15:14:21Z</time>
      </trkpt>
      <trkpt lat="48.37999" lon="2.44542">
        <ele>118.2</ele>
        <time>2024-04-06T15:14:32Z</time>
      </trkpt>
      <trkpt lat="48.37998" lon="2.44544">
        <ele>118.2</ele>
        <time>2024-04-06T15:14:33Z</time>
      </trkpt>
      <trkpt lat="48.37994" lon="2.44559">
        <ele>118.2</ele>
        <time>2024-04-06T15:14:39Z</time>
      </trkpt>
      <trkpt lat="48.37994" lon="2.44561">
        <ele>118.2</ele>
        <time>2024-04-06T15:14:40Z</time>
      </trkpt>
      <trkpt lat="48.37991" lon="2.44571">
        <ele>118</ele>
        <time>2024-04-06T15:14:44Z</time>
      </trkpt>
      <trkpt lat="48.3799" lon="2.44583">
        <ele>118</ele>
        <time>2024-04-06T15:14:47Z</time>
      </trkpt>
      <trkpt lat="48.37989" lon="2.44593">
        <ele>117.8</ele>
        <time>2024-04-06T15:14:49Z</time>
      </trkpt>
      <trkpt lat="48.37984" lon="2.44622">
        <ele>117.6</ele>
        <time>2024-04-06T15:14:55Z</time>
      </trkpt>
      <trkpt lat="48.37983" lon="2.44658">
        <ele>117.6</ele>
        <time>2024-04-06T15:15:01Z</time>
      </trkpt>
      <trkpt lat="48.37984" lon="2.44676">
        <ele>117.4</ele>
        <time>2024-04-06T15:15:03Z</time>
      </trkpt>
      <trkpt lat="48.37987" lon="2.4469">
        <ele>117.4</ele>
        <time>2024-04-06T15:15:05Z</time>
      </trkpt>
      <trkpt lat="48.37992" lon="2.44702">
        <ele>116.6</ele>
        <time>2024-04-06T15:15:07Z</time>
      </trkpt>
      <trkpt lat="48.37995" lon="2.44707">
        <ele>116.2</ele>
        <time>2024-04-06T15:15:08Z</time>
      </trkpt>
      <trkpt lat="48.37999" lon="2.44713">
        <ele>115.8</ele>
        <time>2024-04-06T15:15:10Z</time>
      </trkpt>
      <trkpt lat="48.38006" lon="2.44721">
        <ele>115.6</ele>
        <time>2024-04-06T15:15:13Z</time>
      </trkpt>
      <trkpt lat="48.3801" lon="2.44725">
        <ele>115.4</ele>
        <time>2024-04-06T15:15:15Z</time>
      </trkpt>
      <trkpt lat="48.38018" lon="2.4473">
        <ele>115.2</ele>
        <time>2024-04-06T15:15:18Z</time>
      </trkpt>
      <trkpt lat="48.38024" lon="2.44736">
        <ele>115.2</ele>
        <time>2024-04-06T15:15:20Z</time>
      </trkpt>
      <trkpt lat="48.38034" lon="2.44753">
        <ele>115.4</ele>
        <time>2024-04-06T15:15:25Z</time>
      </trkpt>
      <trkpt lat="48.38044" lon="2.44774">
        <ele>115.6</ele>
        <time>2024-04-06T15:15:32Z</time>
      </trkpt>
      <trkpt lat="48.38054" lon="2.44789">
        <ele>116.2</ele>
        <time>2024-04-06T15:15:36Z</time>
      </trkpt>
      <trkpt lat="48.3806" lon="2.44807">
        <ele>116.2</ele>
        <time>2024-04-06T15:15:40Z</time>
      </trkpt>
      <trkpt lat="48.38067" lon="2.44835">
        <ele>115.8</ele>
        <time>2024-04-06T15:15:45Z</time>
      </trkpt>
      <trkpt lat="48.38069" lon="2.4485">
        <ele>115.6</ele>
        <time>2024-04-06T15:15:47Z</time>
      </trkpt>
      <trkpt lat="48.3807" lon="2.44862">
        <ele>115.4</ele>
        <time>2024-04-06T15:15:49Z</time>
      </trkpt>
      <trkpt lat="48.38076" lon="2.44885">
        <ele>114.8</ele>
        <time>2024-04-06T15:15:54Z</time>
      </trkpt>
      <trkpt lat="48.38086" lon="2.44908">
        <ele>115.4</ele>
        <time>2024-04-06T15:16:00Z</time>
      </trkpt>
      <trkpt lat="48.38093" lon="2.4491">
        <ele>116.6</ele>
        <time>2024-04-06T15:16:04Z</time>
      </trkpt>
      <trkpt lat="48.38093" lon="2.44911">
        <ele>117</ele>
        <time>2024-04-06T15:16:05Z</time>
      </trkpt>
      <trkpt lat="48.38096" lon="2.44912">
        <ele>118</ele>
        <time>2024-04-06T15:16:07Z</time>
      </trkpt>
      <trkpt lat="48.381" lon="2.44914">
        <ele>119.2</ele>
        <time>2024-04-06T15:16:12Z</time>
      </trkpt>
      <trkpt lat="48.38101" lon="2.44914">
        <ele>119.2</ele>
        <time>2024-04-06T15:16:13Z</time>
      </trkpt>
      <trkpt lat="48.38113" lon="2.44909">
        <ele>119.4</ele>
        <time>2024-04-06T15:16:23Z</time>
      </trkpt>
      <trkpt lat="48.38118" lon="2.44904">
        <ele>119.4</ele>
        <time>2024-04-06T15:16:25Z</time>
      </trkpt>
      <trkpt lat="48.38122" lon="2.44908">
        <ele>119.4</ele>
        <time>2024-04-06T15:16:27Z</time>
      </trkpt>
      <trkpt lat="48.38127" lon="2.44917">
        <ele>119.4</ele>
        <time>2024-04-06T15:16:30Z</time>
      </trkpt>
      <trkpt lat="48.38131" lon="2.44924">
        <ele>119.4</ele>
        <time>2024-04-06T15:16:32Z</time>
      </trkpt>
      <trkpt lat="48.38142" lon="2.44944">
        <ele>119.4</ele>
        <time>2024-04-06T15:16:38Z</time>
      </trkpt>
      <trkpt lat="48.38144" lon="2.44951">
        <ele>119.8</ele>
        <time>2024-04-06T15:16:40Z</time>
      </trkpt>
      <trkpt lat="48.38144" lon="2.44955">
        <ele>120.2</ele>
        <time>2024-04-06T15:16:41Z</time>
      </trkpt>
      <trkpt lat="48.38144" lon="2.44959">
        <ele>120.6</ele>
        <time>2024-04-06T15:16:42Z</time>
      </trkpt>
      <trkpt lat="48.38149" lon="2.44972">
        <ele>121</ele>
        <time>2024-04-06T15:16:46Z</time>
      </trkpt>
      <trkpt lat="48.38154" lon="2.44985">
        <ele>121.2</ele>
        <time>2024-04-06T15:16:50Z</time>
      </trkpt>
      <trkpt lat="48.38153" lon="2.44989">
        <ele>121.4</ele>
        <time>2024-04-06T15:16:51Z</time>
      </trkpt>
      <trkpt lat="48.3815" lon="2.45001">
        <ele>121.6</ele>
        <time>2024-04-06T15:16:54Z</time>
      </trkpt>
      <trkpt lat="48.38142" lon="2.45015">
        <ele>121.6</ele>
        <time>2024-04-06T15:16:58Z</time>
      </trkpt>
      <trkpt lat="48.38136" lon="2.45034">
        <ele>121.8</ele>
        <time>2024-04-06T15:17:02Z</time>
      </trkpt>
      <trkpt lat="48.38134" lon="2.45038">
        <ele>121.8</ele>
        <time>2024-04-06T15:17:03Z</time>
      </trkpt>
      <trkpt lat="48.38136" lon="2.45055">
        <ele>122</ele>
        <time>2024-04-06T15:17:06Z</time>
      </trkpt>
      <trkpt lat="48.38138" lon="2.45061">
        <ele>122</ele>
        <time>2024-04-06T15:17:07Z</time>
      </trkpt>
      <trkpt lat="48.38143" lon="2.45084">
        <ele>122</ele>
        <time>2024-04-06T15:17:11Z</time>
      </trkpt>
      <trkpt lat="48.38147" lon="2.45113">
        <ele>122</ele>
        <time>2024-04-06T15:17:16Z</time>
      </trkpt>
      <trkpt lat="48.38154" lon="2.45139">
        <ele>122</ele>
        <time>2024-04-06T15:17:21Z</time>
      </trkpt>
      <trkpt lat="48.38154" lon="2.45148">
        <ele>122</ele>
        <time>2024-04-06T15:17:23Z</time>
      </trkpt>
      <trkpt lat="48.38151" lon="2.45148">
        <ele>122</ele>
        <time>2024-04-06T15:17:24Z</time>
      </trkpt>
      <trkpt lat="48.38136" lon="2.45141">
        <ele>122</ele>
        <time>2024-04-06T15:17:28Z</time>
      </trkpt>
      <trkpt lat="48.38103" lon="2.45138">
        <ele>122.2</ele>
        <time>2024-04-06T15:17:35Z</time>
      </trkpt>
      <trkpt lat="48.38073" lon="2.45143">
        <ele>122.4</ele>
        <time>2024-04-06T15:17:41Z</time>
      </trkpt>
      <trkpt lat="48.38059" lon="2.45145">
        <ele>122.4</ele>
        <time>2024-04-06T15:17:44Z</time>
      </trkpt>
      <trkpt lat="48.38018" lon="2.45153">
        <ele>123.2</ele>
        <time>2024-04-06T15:17:52Z</time>
      </trkpt>
      <trkpt lat="48.38013" lon="2.45153">
        <ele>123.2</ele>
        <time>2024-04-06T15:17:53Z</time>
      </trkpt>
      <trkpt lat="48.37998" lon="2.45153">
        <ele>123.4</ele>
        <time>2024-04-06T15:17:56Z</time>
      </trkpt>
      <trkpt lat="48.37977" lon="2.45148">
        <ele>123.6</ele>
        <time>2024-04-06T15:18:00Z</time>
      </trkpt>
      <trkpt lat="48.37973" lon="2.45147">
        <ele>123.6</ele>
        <time>2024-04-06T15:18:01Z</time>
      </trkpt>
      <trkpt lat="48.37929" lon="2.45125">
        <ele>124</ele>
        <time>2024-04-06T15:18:10Z</time>
      </trkpt>
      <trkpt lat="48.37884" lon="2.45104">
        <ele>124.2</ele>
        <time>2024-04-06T15:18:19Z</time>
      </trkpt>
      <trkpt lat="48.37845" lon="2.45085">
        <ele>124.6</ele>
        <time>2024-04-06T15:18:27Z</time>
      </trkpt>
      <trkpt lat="48.37818" lon="2.45066">
        <ele>125.8</ele>
        <time>2024-04-06T15:18:33Z</time>
      </trkpt>
      <trkpt lat="48.37809" lon="2.45058">
        <ele>126</ele>
        <time>2024-04-06T15:18:35Z</time>
      </trkpt>
      <trkpt lat="48.37764" lon="2.45024">
        <ele>126.6</ele>
        <time>2024-04-06T15:18:45Z</time>
      </trkpt>
      <trkpt lat="48.37727" lon="2.44987">
        <ele>126.8</ele>
        <time>2024-04-06T15:18:53Z</time>
      </trkpt>
      <trkpt lat="48.37683" lon="2.44944">
        <ele>126.6</ele>
        <time>2024-04-06T15:19:02Z</time>
      </trkpt>
      <trkpt lat="48.37678" lon="2.44938">
        <ele>126.4</ele>
        <time>2024-04-06T15:19:03Z</time>
      </trkpt>
      <trkpt lat="48.37664" lon="2.44922">
        <ele>126.4</ele>
        <time>2024-04-06T15:19:06Z</time>
      </trkpt>
      <trkpt lat="48.37628" lon="2.44888">
        <ele>126.2</ele>
        <time>2024-04-06T15:19:13Z</time>
      </trkpt>
      <trkpt lat="48.37599" lon="2.4486">
        <ele>126</ele>
        <time>2024-04-06T15:19:19Z</time>
      </trkpt>
      <trkpt lat="48.37574" lon="2.44839">
        <ele>126</ele>
        <time>2024-04-06T15:19:24Z</time>
      </trkpt>
      <trkpt lat="48.37571" lon="2.44833">
        <ele>126</ele>
        <time>2024-04-06T15:19:25Z</time>
      </trkpt>
      <trkpt lat="48.37572" lon="2.4481">
        <ele>125.8</ele>
        <time>2024-04-06T15:19:28Z</time>
      </trkpt>
      <trkpt lat="48.3758" lon="2.44751">
        <ele>125</ele>
        <time>2024-04-06T15:19:35Z</time>
      </trkpt>
      <trkpt lat="48.37582" lon="2.44742">
        <ele>124.6</ele>
        <time>2024-04-06T15:19:36Z</time>
      </trkpt>
      <trkpt lat="48.3759" lon="2.44689">
        <ele>124</ele>
        <time>2024-04-06T15:19:42Z</time>
      </trkpt>
      <trkpt lat="48.37598" lon="2.44633">
        <ele>123.6</ele>
        <time>2024-04-06T15:19:48Z</time>
      </trkpt>
      <trkpt lat="48.376" lon="2.44614">
        <ele>123.4</ele>
        <time>2024-04-06T15:19:50Z</time>
      </trkpt>
      <trkpt lat="48.37606" lon="2.44568">
        <ele>122.6</ele>
        <time>2024-04-06T15:19:55Z</time>
      </trkpt>
      <trkpt lat="48.37612" lon="2.44531">
        <ele>122.2</ele>
        <time>2024-04-06T15:19:59Z</time>
      </trkpt>
      <trkpt lat="48.37621" lon="2.44465">
        <ele>122</ele>
        <time>2024-04-06T15:20:06Z</time>
      </trkpt>
      <trkpt lat="48.37632" lon="2.44401">
        <ele>121.6</ele>
        <time>2024-04-06T15:20:13Z</time>
      </trkpt>
      <trkpt lat="48.37635" lon="2.44383">
        <ele>121.4</ele>
        <time>2024-04-06T15:20:15Z</time>
      </trkpt>
      <trkpt lat="48.37647" lon="2.44295">
        <ele>121</ele>
        <time>2024-04-06T15:20:24Z</time>
      </trkpt>
      <trkpt lat="48.37652" lon="2.44253">
        <ele>120.6</ele>
        <time>2024-04-06T15:20:28Z</time>
      </trkpt>
      <trkpt lat="48.37658" lon="2.44208">
        <ele>119.8</ele>
        <time>2024-04-06T15:20:32Z</time>
      </trkpt>
      <trkpt lat="48.37659" lon="2.44197">
        <ele>119.4</ele>
        <time>2024-04-06T15:20:33Z</time>
      </trkpt>
      <trkpt lat="48.37667" lon="2.44167">
        <ele>118.4</ele>
        <time>2024-04-06T15:20:36Z</time>
      </trkpt>
      <trkpt lat="48.37676" lon="2.44141">
        <ele>117.2</ele>
        <time>2024-04-06T15:20:39Z</time>
      </trkpt>
      <trkpt lat="48.37684" lon="2.44124">
        <ele>116.6</ele>
        <time>2024-04-06T15:20:41Z</time>
      </trkpt>
      <trkpt lat="48.37697" lon="2.44099">
        <ele>116</ele>
        <time>2024-04-06T15:20:44Z</time>
      </trkpt>
      <trkpt lat="48.37714" lon="2.44073">
        <ele>115.6</ele>
        <time>2024-04-06T15:20:47Z</time>
      </trkpt>
      <trkpt lat="48.37742" lon="2.44029">
        <ele>114.4</ele>
        <time>2024-04-06T15:20:52Z</time>
      </trkpt>
      <trkpt lat="48.37747" lon="2.44021">
        <ele>113.8</ele>
        <time>2024-04-06T15:20:53Z</time>
      </trkpt>
      <trkpt lat="48.37752" lon="2.44013">
        <ele>113.4</ele>
        <time>2024-04-06T15:20:54Z</time>
      </trkpt>
      <trkpt lat="48.37762" lon="2.44001">
        <ele>112.8</ele>
        <time>2024-04-06T15:20:56Z</time>
      </trkpt>
      <trkpt lat="48.37767" lon="2.43996">
        <ele>112.8</ele>
        <time>2024-04-06T15:20:57Z</time>
      </trkpt>
      <trkpt lat="48.37783" lon="2.43986">
        <ele>112.8</ele>
        <time>2024-04-06T15:21:00Z</time>
      </trkpt>
      <trkpt lat="48.37794" lon="2.43981">
        <ele>112.8</ele>
        <time>2024-04-06T15:21:02Z</time>
      </trkpt>
      <trkpt lat="48.37805" lon="2.43975">
        <ele>113.2</ele>
        <time>2024-04-06T15:21:04Z</time>
      </trkpt>
      <trkpt lat="48.3782" lon="2.43965">
        <ele>114.6</ele>
        <time>2024-04-06T15:21:07Z</time>
      </trkpt>
      <trkpt lat="48.37836" lon="2.4395">
        <ele>115.2</ele>
        <time>2024-04-06T15:21:10Z</time>
      </trkpt>
      <trkpt lat="48.37846" lon="2.43938">
        <ele>115.2</ele>
        <time>2024-04-06T15:21:12Z</time>
      </trkpt>
      <trkpt lat="48.37871" lon="2.43898">
        <ele>115.6</ele>
        <time>2024-04-06T15:21:18Z</time>
      </trkpt>
      <trkpt lat="48.37874" lon="2.43891">
        <ele>115.6</ele>
        <time>2024-04-06T15:21:19Z</time>
      </trkpt>
      <trkpt lat="48.3789" lon="2.43849">
        <ele>116</ele>
        <time>2024-04-06T15:21:25Z</time>
      </trkpt>
      <trkpt lat="48.37895" lon="2.43835">
        <ele>116.6</ele>
        <time>2024-04-06T15:21:27Z</time>
      </trkpt>
      <trkpt lat="48.37902" lon="2.43813">
        <ele>117.2</ele>
        <time>2024-04-06T15:21:30Z</time>
      </trkpt>
      <trkpt lat="48.37915" lon="2.43773">
        <ele>117.4</ele>
        <time>2024-04-06T15:21:35Z</time>
      </trkpt>
      <trkpt lat="48.37928" lon="2.43747">
        <ele>117.4</ele>
        <time>2024-04-06T15:21:38Z</time>
      </trkpt>
      <trkpt lat="48.37939" lon="2.43732">
        <ele>117.4</ele>
        <time>2024-04-06T15:21:40Z</time>
      </trkpt>
      <trkpt lat="48.37945" lon="2.43725">
        <ele>117</ele>
        <time>2024-04-06T15:21:41Z</time>
      </trkpt>
      <trkpt lat="48.37963" lon="2.43708">
        <ele>115.6</ele>
        <time>2024-04-06T15:21:44Z</time>
      </trkpt>
      <trkpt lat="48.37975" lon="2.43695">
        <ele>114</ele>
        <time>2024-04-06T15:21:46Z</time>
      </trkpt>
      <trkpt lat="48.37984" lon="2.43679">
        <ele>112.8</ele>
        <time>2024-04-06T15:21:48Z</time>
      </trkpt>
      <trkpt lat="48.37988" lon="2.43672">
        <ele>112.6</ele>
        <time>2024-04-06T15:21:49Z</time>
      </trkpt>
      <trkpt lat="48.38014" lon="2.43618">
        <ele>112.4</ele>
        <time>2024-04-06T15:21:56Z</time>
      </trkpt>
      <trkpt lat="48.38038" lon="2.43565">
        <ele>112.4</ele>
        <time>2024-04-06T15:22:03Z</time>
      </trkpt>
      <trkpt lat="48.38061" lon="2.43517">
        <ele>112.6</ele>
        <time>2024-04-06T15:22:10Z</time>
      </trkpt>
      <trkpt lat="48.38089" lon="2.43463">
        <ele>113.6</ele>
        <time>2024-04-06T15:22:19Z</time>
      </trkpt>
      <trkpt lat="48.38094" lon="2.43453">
        <ele>114.2</ele>
        <time>2024-04-06T15:22:21Z</time>
      </trkpt>
      <trkpt lat="48.3811" lon="2.43423">
        <ele>115</ele>
        <time>2024-04-06T15:22:27Z</time>
      </trkpt>
      <trkpt lat="48.38113" lon="2.43417">
        <ele>115</ele>
        <time>2024-04-06T15:22:28Z</time>
      </trkpt>
      <trkpt lat="48.38121" lon="2.434">
        <ele>116</ele>
        <time>2024-04-06T15:22:31Z</time>
      </trkpt>
      <trkpt lat="48.38126" lon="2.43388">
        <ele>116</ele>
        <time>2024-04-06T15:22:33Z</time>
      </trkpt>
      <trkpt lat="48.38137" lon="2.43356">
        <ele>116.2</ele>
        <time>2024-04-06T15:22:38Z</time>
      </trkpt>
      <trkpt lat="48.38142" lon="2.43345">
        <ele>116.4</ele>
        <time>2024-04-06T15:22:40Z</time>
      </trkpt>
      <trkpt lat="48.38155" lon="2.43334">
        <ele>116.4</ele>
        <time>2024-04-06T15:22:43Z</time>
      </trkpt>
      <trkpt lat="48.38163" lon="2.43326">
        <ele>116.2</ele>
        <time>2024-04-06T15:22:45Z</time>
      </trkpt>
      <trkpt lat="48.38166" lon="2.43323">
        <ele>116.4</ele>
        <time>2024-04-06T15:22:46Z</time>
      </trkpt>
      <trkpt lat="48.38174" lon="2.43317">
        <ele>116.4</ele>
        <time>2024-04-06T15:22:48Z</time>
      </trkpt>
      <trkpt lat="48.38186" lon="2.43309">
        <ele>116.4</ele>
        <time>2024-04-06T15:22:52Z</time>
      </trkpt>
      <trkpt lat="48.38187" lon="2.43306">
        <ele>116.6</ele>
        <time>2024-04-06T15:22:53Z</time>
      </trkpt>
      <trkpt lat="48.38187" lon="2.43298">
        <ele>117.2</ele>
        <time>2024-04-06T15:22:55Z</time>
      </trkpt>
      <trkpt lat="48.38185" lon="2.43294">
        <ele>117.2</ele>
        <time>2024-04-06T15:22:56Z</time>
      </trkpt>
      <trkpt lat="48.38181" lon="2.4329">
        <ele>117.6</ele>
        <time>2024-04-06T15:22:57Z</time>
      </trkpt>
      <trkpt lat="48.38163" lon="2.43268">
        <ele>118</ele>
        <time>2024-04-06T15:23:02Z</time>
      </trkpt>
      <trkpt lat="48.38159" lon="2.43264">
        <ele>118.2</ele>
        <time>2024-04-06T15:23:03Z</time>
      </trkpt>
      <trkpt lat="48.38154" lon="2.43248">
        <ele>118.2</ele>
        <time>2024-04-06T15:23:06Z</time>
      </trkpt>
      <trkpt lat="48.38159" lon="2.43236">
        <ele>118.2</ele>
        <time>2024-04-06T15:23:08Z</time>
      </trkpt>
      <trkpt lat="48.38164" lon="2.43222">
        <ele>118.2</ele>
        <time>2024-04-06T15:23:10Z</time>
      </trkpt>
      <trkpt lat="48.38172" lon="2.43201">
        <ele>118.2</ele>
        <time>2024-04-06T15:23:13Z</time>
      </trkpt>
      <trkpt lat="48.38181" lon="2.43182">
        <ele>118.2</ele>
        <time>2024-04-06T15:23:16Z</time>
      </trkpt>
      <trkpt lat="48.38199" lon="2.4314">
        <ele>118.6</ele>
        <time>2024-04-06T15:23:23Z</time>
      </trkpt>
      <trkpt lat="48.38214" lon="2.43107">
        <ele>119.6</ele>
        <time>2024-04-06T15:23:28Z</time>
      </trkpt>
      <trkpt lat="48.3822" lon="2.43093">
        <ele>119.8</ele>
        <time>2024-04-06T15:23:30Z</time>
      </trkpt>
      <trkpt lat="48.3825" lon="2.43022">
        <ele>120.4</ele>
        <time>2024-04-06T15:23:40Z</time>
      </trkpt>
      <trkpt lat="48.38258" lon="2.43001">
        <ele>120.6</ele>
        <time>2024-04-06T15:23:43Z</time>
      </trkpt>
      <trkpt lat="48.38267" lon="2.42981">
        <ele>120.6</ele>
        <time>2024-04-06T15:23:46Z</time>
      </trkpt>
      <trkpt lat="48.38287" lon="2.42926">
        <ele>121</ele>
        <time>2024-04-06T15:23:54Z</time>
      </trkpt>
      <trkpt lat="48.38308" lon="2.42867">
        <ele>121.6</ele>
        <time>2024-04-06T15:24:03Z</time>
      </trkpt>
      <trkpt lat="48.3832" lon="2.42837">
        <ele>122.8</ele>
        <time>2024-04-06T15:24:08Z</time>
      </trkpt>
      <trkpt lat="48.38329" lon="2.42816">
        <ele>123.2</ele>
        <time>2024-04-06T15:24:12Z</time>
      </trkpt>
      <trkpt lat="48.38332" lon="2.4281">
        <ele>123.4</ele>
        <time>2024-04-06T15:24:13Z</time>
      </trkpt>
      <trkpt lat="48.38339" lon="2.42793">
        <ele>124</ele>
        <time>2024-04-06T15:24:16Z</time>
      </trkpt>
      <trkpt lat="48.38346" lon="2.42775">
        <ele>125</ele>
        <time>2024-04-06T15:24:19Z</time>
      </trkpt>
      <trkpt lat="48.38349" lon="2.42768">
        <ele>125.4</ele>
        <time>2024-04-06T15:24:20Z</time>
      </trkpt>
      <trkpt lat="48.38365" lon="2.42728">
        <ele>126</ele>
        <time>2024-04-06T15:24:26Z</time>
      </trkpt>
      <trkpt lat="48.38374" lon="2.4271">
        <ele>126</ele>
        <time>2024-04-06T15:24:29Z</time>
      </trkpt>
      <trkpt lat="48.38383" lon="2.42702">
        <ele>126</ele>
        <time>2024-04-06T15:24:31Z</time>
      </trkpt>
      <trkpt lat="48.38415" lon="2.42687">
        <ele>126.6</ele>
        <time>2024-04-06T15:24:37Z</time>
      </trkpt>
      <trkpt lat="48.3846" lon="2.42673">
        <ele>126.8</ele>
        <time>2024-04-06T15:24:45Z</time>
      </trkpt>
      <trkpt lat="48.3851" lon="2.42655">
        <ele>127.6</ele>
        <time>2024-04-06T15:24:54Z</time>
      </trkpt>
      <trkpt lat="48.38516" lon="2.42653">
        <ele>127.6</ele>
        <time>2024-04-06T15:24:55Z</time>
      </trkpt>
      <trkpt lat="48.38562" lon="2.42635">
        <ele>128</ele>
        <time>2024-04-06T15:25:03Z</time>
      </trkpt>
      <trkpt lat="48.3861" lon="2.42615">
        <ele>128.4</ele>
        <time>2024-04-06T15:25:11Z</time>
      </trkpt>
      <trkpt lat="48.3865" lon="2.42589">
        <ele>128.6</ele>
        <time>2024-04-06T15:25:18Z</time>
      </trkpt>
      <trkpt lat="48.38666" lon="2.42576">
        <ele>128.6</ele>
        <time>2024-04-06T15:25:21Z</time>
      </trkpt>
      <trkpt lat="48.38682" lon="2.42561">
        <ele>128.6</ele>
        <time>2024-04-06T15:25:24Z</time>
      </trkpt>
      <trkpt lat="48.38712" lon="2.42537">
        <ele>128.6</ele>
        <time>2024-04-06T15:25:30Z</time>
      </trkpt>
      <trkpt lat="48.38727" lon="2.42528">
        <ele>128.6</ele>
        <time>2024-04-06T15:25:33Z</time>
      </trkpt>
      <trkpt lat="48.38736" lon="2.4252">
        <ele>129.2</ele>
        <time>2024-04-06T15:25:35Z</time>
      </trkpt>
      <trkpt lat="48.38738" lon="2.42514">
        <ele>129.4</ele>
        <time>2024-04-06T15:25:36Z</time>
      </trkpt>
      <trkpt lat="48.38737" lon="2.42499">
        <ele>129.8</ele>
        <time>2024-04-06T15:25:38Z</time>
      </trkpt>
      <trkpt lat="48.38735" lon="2.42491">
        <ele>129.8</ele>
        <time>2024-04-06T15:25:39Z</time>
      </trkpt>
      <trkpt lat="48.38723" lon="2.42434">
        <ele>129.8</ele>
        <time>2024-04-06T15:25:46Z</time>
      </trkpt>
      <trkpt lat="48.38709" lon="2.42359">
        <ele>129.6</ele>
        <time>2024-04-06T15:25:55Z</time>
      </trkpt>
      <trkpt lat="48.38693" lon="2.42282">
        <ele>129.8</ele>
        <time>2024-04-06T15:26:04Z</time>
      </trkpt>
      <trkpt lat="48.3868" lon="2.42215">
        <ele>129.8</ele>
        <time>2024-04-06T15:26:12Z</time>
      </trkpt>
      <trkpt lat="48.3867" lon="2.42154">
        <ele>129.8</ele>
        <time>2024-04-06T15:26:19Z</time>
      </trkpt>
      <trkpt lat="48.38656" lon="2.42093">
        <ele>129.6</ele>
        <time>2024-04-06T15:26:26Z</time>
      </trkpt>
      <trkpt lat="48.38642" lon="2.42044">
        <ele>129.2</ele>
        <time>2024-04-06T15:26:32Z</time>
      </trkpt>
      <trkpt lat="48.38632" lon="2.42011">
        <ele>128.8</ele>
        <time>2024-04-06T15:26:36Z</time>
      </trkpt>
      <trkpt lat="48.38623" lon="2.41979">
        <ele>128.8</ele>
        <time>2024-04-06T15:26:40Z</time>
      </trkpt>
      <trkpt lat="48.3862" lon="2.41971">
        <ele>128.8</ele>
        <time>2024-04-06T15:26:41Z</time>
      </trkpt>
      <trkpt lat="48.38616" lon="2.41944">
        <ele>128.6</ele>
        <time>2024-04-06T15:26:44Z</time>
      </trkpt>
      <trkpt lat="48.38609" lon="2.41882">
        <ele>128.2</ele>
        <time>2024-04-06T15:26:51Z</time>
      </trkpt>
      <trkpt lat="48.38609" lon="2.41827">
        <ele>128.2</ele>
        <time>2024-04-06T15:26:58Z</time>
      </trkpt>
      <trkpt lat="48.38608" lon="2.41783">
        <ele>129.6</ele>
        <time>2024-04-06T15:27:04Z</time>
      </trkpt>
      <trkpt lat="48.38608" lon="2.41776">
        <ele>129.6</ele>
        <time>2024-04-06T15:27:05Z</time>
      </trkpt>
      <trkpt lat="48.38607" lon="2.41744">
        <ele>130</ele>
        <time>2024-04-06T15:27:09Z</time>
      </trkpt>
      <trkpt lat="48.38607" lon="2.41727">
        <ele>130.2</ele>
        <time>2024-04-06T15:27:11Z</time>
      </trkpt>
      <trkpt lat="48.38608" lon="2.41711">
        <ele>130.4</ele>
        <time>2024-04-06T15:27:13Z</time>
      </trkpt>
      <trkpt lat="48.38612" lon="2.41686">
        <ele>130.6</ele>
        <time>2024-04-06T15:27:16Z</time>
      </trkpt>
      <trkpt lat="48.38625" lon="2.41642">
        <ele>130.8</ele>
        <time>2024-04-06T15:27:22Z</time>
      </trkpt>
      <trkpt lat="48.38642" lon="2.41609">
        <ele>131</ele>
        <time>2024-04-06T15:27:27Z</time>
      </trkpt>
      <trkpt lat="48.38646" lon="2.41603">
        <ele>131.2</ele>
        <time>2024-04-06T15:27:28Z</time>
      </trkpt>
      <trkpt lat="48.3865" lon="2.41598">
        <ele>131.4</ele>
        <time>2024-04-06T15:27:29Z</time>
      </trkpt>
      <trkpt lat="48.38662" lon="2.4158">
        <ele>132</ele>
        <time>2024-04-06T15:27:32Z</time>
      </trkpt>
      <trkpt lat="48.38672" lon="2.41569">
        <ele>132</ele>
        <time>2024-04-06T15:27:34Z</time>
      </trkpt>
      <trkpt lat="48.38717" lon="2.41522">
        <ele>132</ele>
        <time>2024-04-06T15:27:43Z</time>
      </trkpt>
      <trkpt lat="48.3875" lon="2.41484">
        <ele>131.8</ele>
        <time>2024-04-06T15:27:50Z</time>
      </trkpt>
      <trkpt lat="48.38774" lon="2.41453">
        <ele>131.4</ele>
        <time>2024-04-06T15:27:56Z</time>
      </trkpt>
      <trkpt lat="48.38788" lon="2.41433">
        <ele>131.4</ele>
        <time>2024-04-06T15:28:00Z</time>
      </trkpt>
      <trkpt lat="48.38789" lon="2.41427">
        <ele>131.4</ele>
        <time>2024-04-06T15:28:01Z</time>
      </trkpt>
      <trkpt lat="48.38786" lon="2.41408">
        <ele>131.4</ele>
        <time>2024-04-06T15:28:04Z</time>
      </trkpt>
      <trkpt lat="48.38782" lon="2.41394">
        <ele>131.4</ele>
        <time>2024-04-06T15:28:06Z</time>
      </trkpt>
      <trkpt lat="48.38779" lon="2.41371">
        <ele>131.4</ele>
        <time>2024-04-06T15:28:09Z</time>
      </trkpt>
      <trkpt lat="48.38778" lon="2.41363">
        <ele>131.2</ele>
        <time>2024-04-06T15:28:10Z</time>
      </trkpt>
      <trkpt lat="48.38777" lon="2.41354">
        <ele>131.2</ele>
        <time>2024-04-06T15:28:11Z</time>
      </trkpt>
      <trkpt lat="48.3877" lon="2.41311">
        <ele>130.4</ele>
        <time>2024-04-06T15:28:16Z</time>
      </trkpt>
      <trkpt lat="48.38768" lon="2.41302">
        <ele>130.4</ele>
        <time>2024-04-06T15:28:17Z</time>
      </trkpt>
      <trkpt lat="48.38762" lon="2.41259">
        <ele>129.2</ele>
        <time>2024-04-06T15:28:22Z</time>
      </trkpt>
      <trkpt lat="48.38756" lon="2.41226">
        <ele>128.4</ele>
        <time>2024-04-06T15:28:26Z</time>
      </trkpt>
      <trkpt lat="48.38744" lon="2.41168">
        <ele>128.2</ele>
        <time>2024-04-06T15:28:33Z</time>
      </trkpt>
      <trkpt lat="48.38737" lon="2.4112">
        <ele>128</ele>
        <time>2024-04-06T15:28:39Z</time>
      </trkpt>
      <trkpt lat="48.38737" lon="2.41112">
        <ele>128</ele>
        <time>2024-04-06T15:28:40Z</time>
      </trkpt>
      <trkpt lat="48.38729" lon="2.4106">
        <ele>128</ele>
        <time>2024-04-06T15:28:47Z</time>
      </trkpt>
      <trkpt lat="48.38726" lon="2.41036">
        <ele>128</ele>
        <time>2024-04-06T15:28:50Z</time>
      </trkpt>
      <trkpt lat="48.38722" lon="2.41006">
        <ele>128</ele>
        <time>2024-04-06T15:28:54Z</time>
      </trkpt>
      <trkpt lat="48.38709" lon="2.40925">
        <ele>128</ele>
        <time>2024-04-06T15:29:05Z</time>
      </trkpt>
      <trkpt lat="48.387" lon="2.40862">
        <ele>127.8</ele>
        <time>2024-04-06T15:29:14Z</time>
      </trkpt>
      <trkpt lat="48.38693" lon="2.40805">
        <ele>127.6</ele>
        <time>2024-04-06T15:29:22Z</time>
      </trkpt>
      <trkpt lat="48.38693" lon="2.40799">
        <ele>127.6</ele>
        <time>2024-04-06T15:29:23Z</time>
      </trkpt>
      <trkpt lat="48.38697" lon="2.40792">
        <ele>127.6</ele>
        <time>2024-04-06T15:29:25Z</time>
      </trkpt>
      <trkpt lat="48.38713" lon="2.40792">
        <ele>127.6</ele>
        <time>2024-04-06T15:29:29Z</time>
      </trkpt>
      <trkpt lat="48.38744" lon="2.40791">
        <ele>128.6</ele>
        <time>2024-04-06T15:29:36Z</time>
      </trkpt>
      <trkpt lat="48.38784" lon="2.40784">
        <ele>128.8</ele>
        <time>2024-04-06T15:29:44Z</time>
      </trkpt>
      <trkpt lat="48.3883" lon="2.40779">
        <ele>128.8</ele>
        <time>2024-04-06T15:29:53Z</time>
      </trkpt>
      <trkpt lat="48.3886" lon="2.40774">
        <ele>128.4</ele>
        <time>2024-04-06T15:29:59Z</time>
      </trkpt>
      <trkpt lat="48.38901" lon="2.40771">
        <ele>128.2</ele>
        <time>2024-04-06T15:30:07Z</time>
      </trkpt>
      <trkpt lat="48.38935" lon="2.40765">
        <ele>128.2</ele>
        <time>2024-04-06T15:30:14Z</time>
      </trkpt>
      <trkpt lat="48.38939" lon="2.40764">
        <ele>128.2</ele>
        <time>2024-04-06T15:30:15Z</time>
      </trkpt>
      <trkpt lat="48.38946" lon="2.40766">
        <ele>128.2</ele>
        <time>2024-04-06T15:30:18Z</time>
      </trkpt>
      <trkpt lat="48.38949" lon="2.40765">
        <ele>128.2</ele>
        <time>2024-04-06T15:30:21Z</time>
      </trkpt>
      <trkpt lat="48.38951" lon="2.40767">
        <ele>128.2</ele>
        <time>2024-04-06T15:30:22Z</time>
      </trkpt>
      <trkpt lat="48.38953" lon="2.40769">
        <ele>128.2</ele>
        <time>2024-04-06T15:30:23Z</time>
      </trkpt>
      <trkpt lat="48.3896" lon="2.40768">
        <ele>128.2</ele>
        <time>2024-04-06T15:30:26Z</time>
      </trkpt>
      <trkpt lat="48.38971" lon="2.40763">
        <ele>128.2</ele>
        <time>2024-04-06T15:30:30Z</time>
      </trkpt>
      <trkpt lat="48.38985" lon="2.40762">
        <ele>128</ele>
        <time>2024-04-06T15:30:35Z</time>
      </trkpt>
      <trkpt lat="48.39003" lon="2.40755">
        <ele>127.2</ele>
        <time>2024-04-06T15:30:42Z</time>
      </trkpt>
      <trkpt lat="48.39007" lon="2.40753">
        <ele>127</ele>
        <time>2024-04-06T15:30:44Z</time>
      </trkpt>
      <trkpt lat="48.39015" lon="2.40752">
        <ele>127</ele>
        <time>2024-04-06T15:30:47Z</time>
      </trkpt>
      <trkpt lat="48.39017" lon="2.40753">
        <ele>126.8</ele>
        <time>2024-04-06T15:30:48Z</time>
      </trkpt>
      <trkpt lat="48.39021" lon="2.40756">
        <ele>126.8</ele>
        <time>2024-04-06T15:30:50Z</time>
      </trkpt>
      <trkpt lat="48.39023" lon="2.40755">
        <ele>126.8</ele>
        <time>2024-04-06T15:30:51Z</time>
      </trkpt>
      <trkpt lat="48.39033" lon="2.40745">
        <ele>126.4</ele>
        <time>2024-04-06T15:30:55Z</time>
      </trkpt>
      <trkpt lat="48.39036" lon="2.40744">
        <ele>126.6</ele>
        <time>2024-04-06T15:30:56Z</time>
      </trkpt>
      <trkpt lat="48.39054" lon="2.40742">
        <ele>126.2</ele>
        <time>2024-04-06T15:31:01Z</time>
      </trkpt>
      <trkpt lat="48.39059" lon="2.40743">
        <ele>126</ele>
        <time>2024-04-06T15:31:02Z</time>
      </trkpt>
      <trkpt lat="48.39081" lon="2.40749">
        <ele>124.8</ele>
        <time>2024-04-06T15:31:07Z</time>
      </trkpt>
      <trkpt lat="48.3909" lon="2.40751">
        <ele>124.4</ele>
        <time>2024-04-06T15:31:09Z</time>
      </trkpt>
      <trkpt lat="48.39094" lon="2.40748">
        <ele>124.4</ele>
        <time>2024-04-06T15:31:10Z</time>
      </trkpt>
      <trkpt lat="48.39104" lon="2.40731">
        <ele>123.6</ele>
        <time>2024-04-06T15:31:13Z</time>
      </trkpt>
      <trkpt lat="48.39106" lon="2.40724">
        <ele>123.4</ele>
        <time>2024-04-06T15:31:14Z</time>
      </trkpt>
      <trkpt lat="48.39118" lon="2.40692">
        <ele>122</ele>
        <time>2024-04-06T15:31:19Z</time>
      </trkpt>
      <trkpt lat="48.39127" lon="2.40678">
        <ele>121</ele>
        <time>2024-04-06T15:31:21Z</time>
      </trkpt>
      <trkpt lat="48.39135" lon="2.40667">
        <ele>119.8</ele>
        <time>2024-04-06T15:31:23Z</time>
      </trkpt>
      <trkpt lat="48.3914" lon="2.40661">
        <ele>119.6</ele>
        <time>2024-04-06T15:31:24Z</time>
      </trkpt>
      <trkpt lat="48.39154" lon="2.40641">
        <ele>118.8</ele>
        <time>2024-04-06T15:31:27Z</time>
      </trkpt>
      <trkpt lat="48.39168" lon="2.40619">
        <ele>118.6</ele>
        <time>2024-04-06T15:31:30Z</time>
      </trkpt>
      <trkpt lat="48.39197" lon="2.40562">
        <ele>118.2</ele>
        <time>2024-04-06T15:31:38Z</time>
      </trkpt>
      <trkpt lat="48.39206" lon="2.40537">
        <ele>117.8</ele>
        <time>2024-04-06T15:31:41Z</time>
      </trkpt>
      <trkpt lat="48.39211" lon="2.40521">
        <ele>117.6</ele>
        <time>2024-04-06T15:31:43Z</time>
      </trkpt>
      <trkpt lat="48.39217" lon="2.40492">
        <ele>117.6</ele>
        <time>2024-04-06T15:31:47Z</time>
      </trkpt>
      <trkpt lat="48.39224" lon="2.40453">
        <ele>117.4</ele>
        <time>2024-04-06T15:31:51Z</time>
      </trkpt>
      <trkpt lat="48.3923" lon="2.40408">
        <ele>117</ele>
        <time>2024-04-06T15:31:55Z</time>
      </trkpt>
      <trkpt lat="48.3923" lon="2.40396">
        <ele>116.4</ele>
        <time>2024-04-06T15:31:56Z</time>
      </trkpt>
      <trkpt lat="48.39229" lon="2.40374">
        <ele>115</ele>
        <time>2024-04-06T15:31:58Z</time>
      </trkpt>
      <trkpt lat="48.39227" lon="2.40359">
        <ele>113.4</ele>
        <time>2024-04-06T15:32:00Z</time>
      </trkpt>
      <trkpt lat="48.39226" lon="2.40352">
        <ele>112.2</ele>
        <time>2024-04-06T15:32:02Z</time>
      </trkpt>
      <trkpt lat="48.39225" lon="2.4035">
        <ele>112</ele>
        <time>2024-04-06T15:32:03Z</time>
      </trkpt>
      <trkpt lat="48.39222" lon="2.40337">
        <ele>111.8</ele>
        <time>2024-04-06T15:32:07Z</time>
      </trkpt>
      <trkpt lat="48.3922" lon="2.40333">
        <ele>111.8</ele>
        <time>2024-04-06T15:32:08Z</time>
      </trkpt>
      <trkpt lat="48.39217" lon="2.40308">
        <ele>112.6</ele>
        <time>2024-04-06T15:32:13Z</time>
      </trkpt>
      <trkpt lat="48.39212" lon="2.40284">
        <ele>113.2</ele>
        <time>2024-04-06T15:32:18Z</time>
      </trkpt>
      <trkpt lat="48.39211" lon="2.40279">
        <ele>113.2</ele>
        <time>2024-04-06T15:32:19Z</time>
      </trkpt>
      <trkpt lat="48.39205" lon="2.40253">
        <ele>113.8</ele>
        <time>2024-04-06T15:32:25Z</time>
      </trkpt>
      <trkpt lat="48.39201" lon="2.40227">
        <ele>113.8</ele>
        <time>2024-04-06T15:32:30Z</time>
      </trkpt>
      <trkpt lat="48.39195" lon="2.40204">
        <ele>113.8</ele>
        <time>2024-04-06T15:32:34Z</time>
      </trkpt>
      <trkpt lat="48.39186" lon="2.4017">
        <ele>113</ele>
        <time>2024-04-06T15:32:40Z</time>
      </trkpt>
      <trkpt lat="48.39175" lon="2.40147">
        <ele>113</ele>
        <time>2024-04-06T15:32:46Z</time>
      </trkpt>
      <trkpt lat="48.39165" lon="2.40132">
        <ele>113</ele>
        <time>2024-04-06T15:32:50Z</time>
      </trkpt>
      <trkpt lat="48.39154" lon="2.40109">
        <ele>112.8</ele>
        <time>2024-04-06T15:32:54Z</time>
      </trkpt>
      <trkpt lat="48.39147" lon="2.4009">
        <ele>112.2</ele>
        <time>2024-04-06T15:32:58Z</time>
      </trkpt>
      <trkpt lat="48.39145" lon="2.40083">
        <ele>112</ele>
        <time>2024-04-06T15:32:59Z</time>
      </trkpt>
      <trkpt lat="48.39143" lon="2.40061">
        <ele>111.2</ele>
        <time>2024-04-06T15:33:03Z</time>
      </trkpt>
      <trkpt lat="48.3914" lon="2.40033">
        <ele>111</ele>
        <time>2024-04-06T15:33:09Z</time>
      </trkpt>
      <trkpt lat="48.39139" lon="2.40006">
        <ele>110.4</ele>
        <time>2024-04-06T15:33:14Z</time>
      </trkpt>
      <trkpt lat="48.39139" lon="2.40001">
        <ele>110</ele>
        <time>2024-04-06T15:33:15Z</time>
      </trkpt>
      <trkpt lat="48.39138" lon="2.39986">
        <ele>109.8</ele>
        <time>2024-04-06T15:33:19Z</time>
      </trkpt>
      <trkpt lat="48.39137" lon="2.39979">
        <ele>109.8</ele>
        <time>2024-04-06T15:33:21Z</time>
      </trkpt>
      <trkpt lat="48.39133" lon="2.39967">
        <ele>109.8</ele>
        <time>2024-04-06T15:33:24Z</time>
      </trkpt>
      <trkpt lat="48.3913" lon="2.39943">
        <ele>109.2</ele>
        <time>2024-04-06T15:33:28Z</time>
      </trkpt>
      <trkpt lat="48.3913" lon="2.39937">
        <ele>108.8</ele>
        <time>2024-04-06T15:33:29Z</time>
      </trkpt>
      <trkpt lat="48.39128" lon="2.39917">
        <ele>108.4</ele>
        <time>2024-04-06T15:33:33Z</time>
      </trkpt>
      <trkpt lat="48.39125" lon="2.39905">
        <ele>107.4</ele>
        <time>2024-04-06T15:33:35Z</time>
      </trkpt>
      <trkpt lat="48.39124" lon="2.39895">
        <ele>107</ele>
        <time>2024-04-06T15:33:37Z</time>
      </trkpt>
      <trkpt lat="48.39123" lon="2.3989">
        <ele>106.2</ele>
        <time>2024-04-06T15:33:38Z</time>
      </trkpt>
      <trkpt lat="48.39122" lon="2.39885">
        <ele>105.4</ele>
        <time>2024-04-06T15:33:39Z</time>
      </trkpt>
      <trkpt lat="48.39121" lon="2.39879">
        <ele>104.8</ele>
        <time>2024-04-06T15:33:40Z</time>
      </trkpt>
      <trkpt lat="48.39121" lon="2.39873">
        <ele>104.4</ele>
        <time>2024-04-06T15:33:41Z</time>
      </trkpt>
      <trkpt lat="48.39118" lon="2.39859">
        <ele>103.8</ele>
        <time>2024-04-06T15:33:43Z</time>
      </trkpt>
      <trkpt lat="48.39118" lon="2.39847">
        <ele>103.4</ele>
        <time>2024-04-06T15:33:45Z</time>
      </trkpt>
      <trkpt lat="48.39115" lon="2.39831">
        <ele>103.2</ele>
        <time>2024-04-06T15:33:49Z</time>
      </trkpt>
      <trkpt lat="48.39114" lon="2.39817">
        <ele>103.2</ele>
        <time>2024-04-06T15:33:52Z</time>
      </trkpt>
      <trkpt lat="48.39113" lon="2.39808">
        <ele>103.4</ele>
        <time>2024-04-06T15:33:54Z</time>
      </trkpt>
      <trkpt lat="48.39114" lon="2.39782">
        <ele>103.4</ele>
        <time>2024-04-06T15:33:59Z</time>
      </trkpt>
      <trkpt lat="48.39118" lon="2.39764">
        <ele>103.8</ele>
        <time>2024-04-06T15:34:04Z</time>
      </trkpt>
      <trkpt lat="48.39122" lon="2.39745">
        <ele>104.6</ele>
        <time>2024-04-06T15:34:10Z</time>
      </trkpt>
      <trkpt lat="48.39123" lon="2.39743">
        <ele>105</ele>
        <time>2024-04-06T15:34:11Z</time>
      </trkpt>
      <trkpt lat="48.39124" lon="2.3974">
        <ele>105.8</ele>
        <time>2024-04-06T15:34:12Z</time>
      </trkpt>
      <trkpt lat="48.39125" lon="2.39737">
        <ele>106.2</ele>
        <time>2024-04-06T15:34:13Z</time>
      </trkpt>
      <trkpt lat="48.39128" lon="2.39731">
        <ele>107.6</ele>
        <time>2024-04-06T15:34:17Z</time>
      </trkpt>
      <trkpt lat="48.39128" lon="2.3973">
        <ele>107.8</ele>
        <time>2024-04-06T15:34:18Z</time>
      </trkpt>
      <trkpt lat="48.39127" lon="2.39722">
        <ele>108.6</ele>
        <time>2024-04-06T15:34:24Z</time>
      </trkpt>
      <trkpt lat="48.39126" lon="2.39721">
        <ele>108.6</ele>
        <time>2024-04-06T15:34:25Z</time>
      </trkpt>
      <trkpt lat="48.39124" lon="2.39716">
        <ele>109.8</ele>
        <time>2024-04-06T15:34:32Z</time>
      </trkpt>
      <trkpt lat="48.39123" lon="2.39714">
        <ele>111</ele>
        <time>2024-04-06T15:34:36Z</time>
      </trkpt>
      <trkpt lat="48.39122" lon="2.3971">
        <ele>112</ele>
        <time>2024-04-06T15:34:40Z</time>
      </trkpt>
      <trkpt lat="48.39119" lon="2.39704">
        <ele>113.2</ele>
        <time>2024-04-06T15:34:44Z</time>
      </trkpt>
      <trkpt lat="48.39117" lon="2.39701">
        <ele>113.8</ele>
        <time>2024-04-06T15:34:47Z</time>
      </trkpt>
      <trkpt lat="48.39116" lon="2.39698">
        <ele>114.4</ele>
        <time>2024-04-06T15:34:50Z</time>
      </trkpt>
      <trkpt lat="48.39114" lon="2.39693">
        <ele>115</ele>
        <time>2024-04-06T15:34:52Z</time>
      </trkpt>
      <trkpt lat="48.39113" lon="2.39686">
        <ele>115.2</ele>
        <time>2024-04-06T15:34:54Z</time>
      </trkpt>
      <trkpt lat="48.39112" lon="2.39672">
        <ele>115.2</ele>
        <time>2024-04-06T15:35:00Z</time>
      </trkpt>
      <trkpt lat="48.39113" lon="2.39675">
        <ele>115.4</ele>
        <time>2024-04-06T15:35:06Z</time>
      </trkpt>
      <trkpt lat="48.39114" lon="2.39676">
        <ele>115.4</ele>
        <time>2024-04-06T15:35:07Z</time>
      </trkpt>
      <trkpt lat="48.39114" lon="2.39689">
        <ele>115.4</ele>
        <time>2024-04-06T15:35:14Z</time>
      </trkpt>
      <trkpt lat="48.39117" lon="2.39695">
        <ele>115.4</ele>
        <time>2024-04-06T15:35:20Z</time>
      </trkpt>
      <trkpt lat="48.39118" lon="2.39697">
        <ele>115.6</ele>
        <time>2024-04-06T15:35:22Z</time>
      </trkpt>
      <trkpt lat="48.39124" lon="2.39709">
        <ele>115.8</ele>
        <time>2024-04-06T15:35:28Z</time>
      </trkpt>
      <trkpt lat="48.39134" lon="2.39722">
        <ele>115.4</ele>
        <time>2024-04-06T15:35:32Z</time>
      </trkpt>
      <trkpt lat="48.3914" lon="2.39725">
        <ele>114.4</ele>
        <time>2024-04-06T15:35:34Z</time>
      </trkpt>
      <trkpt lat="48.39147" lon="2.39728">
        <ele>113</ele>
        <time>2024-04-06T15:35:36Z</time>
      </trkpt>
      <trkpt lat="48.3915" lon="2.39727">
        <ele>112.2</ele>
        <time>2024-04-06T15:35:37Z</time>
      </trkpt>
      <trkpt lat="48.39153" lon="2.39724">
        <ele>109.4</ele>
        <time>2024-04-06T15:35:38Z</time>
      </trkpt>
      <trkpt lat="48.39157" lon="2.3972">
        <ele>108.2</ele>
        <time>2024-04-06T15:35:39Z</time>
      </trkpt>
      <trkpt lat="48.39163" lon="2.3971">
        <ele>106.8</ele>
        <time>2024-04-06T15:35:41Z</time>
      </trkpt>
      <trkpt lat="48.39164" lon="2.39704">
        <ele>105.6</ele>
        <time>2024-04-06T15:35:42Z</time>
      </trkpt>
      <trkpt lat="48.39165" lon="2.39698">
        <ele>104</ele>
        <time>2024-04-06T15:35:43Z</time>
      </trkpt>
      <trkpt lat="48.39166" lon="2.39693">
        <ele>102</ele>
        <time>2024-04-06T15:35:44Z</time>
      </trkpt>
      <trkpt lat="48.39166" lon="2.39687">
        <ele>100.2</ele>
        <time>2024-04-06T15:35:45Z</time>
      </trkpt>
      <trkpt lat="48.39166" lon="2.39682">
        <ele>98.2</ele>
        <time>2024-04-06T15:35:46Z</time>
      </trkpt>
      <trkpt lat="48.39166" lon="2.39677">
        <ele>96.2</ele>
        <time>2024-04-06T15:35:47Z</time>
      </trkpt>
      <trkpt lat="48.39166" lon="2.39671">
        <ele>94.8</ele>
        <time>2024-04-06T15:35:48Z</time>
      </trkpt>
      <trkpt lat="48.39165" lon="2.3966">
        <ele>93.6</ele>
        <time>2024-04-06T15:35:50Z</time>
      </trkpt>
      <trkpt lat="48.39165" lon="2.39647">
        <ele>93.2</ele>
        <time>2024-04-06T15:35:52Z</time>
      </trkpt>
      <trkpt lat="48.3916" lon="2.39615">
        <ele>93.2</ele>
        <time>2024-04-06T15:35:57Z</time>
      </trkpt>
      <trkpt lat="48.39145" lon="2.3958">
        <ele>93</ele>
        <time>2024-04-06T15:36:04Z</time>
      </trkpt>
      <trkpt lat="48.39147" lon="2.39578">
        <ele>93</ele>
        <time>2024-04-06T15:36:07Z</time>
      </trkpt>
      <trkpt lat="48.39148" lon="2.39577">
        <ele>93</ele>
        <time>2024-04-06T15:36:08Z</time>
      </trkpt>
      <trkpt lat="48.39153" lon="2.3956">
        <ele>93</ele>
        <time>2024-04-06T15:36:12Z</time>
      </trkpt>
      <trkpt lat="48.39155" lon="2.39552">
        <ele>93</ele>
        <time>2024-04-06T15:36:13Z</time>
      </trkpt>
      <trkpt lat="48.39156" lon="2.39545">
        <ele>92.8</ele>
        <time>2024-04-06T15:36:14Z</time>
      </trkpt>
      <trkpt lat="48.39155" lon="2.39532">
        <ele>92.8</ele>
        <time>2024-04-06T15:36:16Z</time>
      </trkpt>
      <trkpt lat="48.39155" lon="2.39525">
        <ele>92.6</ele>
        <time>2024-04-06T15:36:17Z</time>
      </trkpt>
      <trkpt lat="48.39155" lon="2.39517">
        <ele>92.4</ele>
        <time>2024-04-06T15:36:18Z</time>
      </trkpt>
      <trkpt lat="48.39156" lon="2.39508">
        <ele>92.2</ele>
        <time>2024-04-06T15:36:19Z</time>
      </trkpt>
      <trkpt lat="48.39159" lon="2.39499">
        <ele>91.4</ele>
        <time>2024-04-06T15:36:20Z</time>
      </trkpt>
      <trkpt lat="48.39162" lon="2.39491">
        <ele>90.4</ele>
        <time>2024-04-06T15:36:21Z</time>
      </trkpt>
      <trkpt lat="48.39165" lon="2.39481">
        <ele>89.2</ele>
        <time>2024-04-06T15:36:22Z</time>
      </trkpt>
      <trkpt lat="48.39166" lon="2.39472">
        <ele>88</ele>
        <time>2024-04-06T15:36:23Z</time>
      </trkpt>
      <trkpt lat="48.39165" lon="2.39454">
        <ele>86.4</ele>
        <time>2024-04-06T15:36:25Z</time>
      </trkpt>
      <trkpt lat="48.39164" lon="2.39443">
        <ele>85.2</ele>
        <time>2024-04-06T15:36:26Z</time>
      </trkpt>
      <trkpt lat="48.39162" lon="2.39432">
        <ele>83.8</ele>
        <time>2024-04-06T15:36:27Z</time>
      </trkpt>
      <trkpt lat="48.39162" lon="2.3942">
        <ele>82.2</ele>
        <time>2024-04-06T15:36:28Z</time>
      </trkpt>
      <trkpt lat="48.3916" lon="2.3941">
        <ele>80.4</ele>
        <time>2024-04-06T15:36:29Z</time>
      </trkpt>
      <trkpt lat="48.39158" lon="2.39401">
        <ele>78.4</ele>
        <time>2024-04-06T15:36:30Z</time>
      </trkpt>
      <trkpt lat="48.39156" lon="2.39393">
        <ele>76.8</ele>
        <time>2024-04-06T15:36:31Z</time>
      </trkpt>
      <trkpt lat="48.39155" lon="2.39385">
        <ele>76</ele>
        <time>2024-04-06T15:36:32Z</time>
      </trkpt>
      <trkpt lat="48.39154" lon="2.39376">
        <ele>75.4</ele>
        <time>2024-04-06T15:36:33Z</time>
      </trkpt>
      <trkpt lat="48.39152" lon="2.39356">
        <ele>74</ele>
        <time>2024-04-06T15:36:35Z</time>
      </trkpt>
      <trkpt lat="48.39151" lon="2.39346">
        <ele>72</ele>
        <time>2024-04-06T15:36:36Z</time>
      </trkpt>
      <trkpt lat="48.39148" lon="2.39337">
        <ele>71.6</ele>
        <time>2024-04-06T15:36:37Z</time>
      </trkpt>
      <trkpt lat="48.39137" lon="2.39308">
        <ele>70.8</ele>
        <time>2024-04-06T15:36:40Z</time>
      </trkpt>
      <trkpt lat="48.39134" lon="2.393">
        <ele>70.6</ele>
        <time>2024-04-06T15:36:41Z</time>
      </trkpt>
      <trkpt lat="48.39133" lon="2.39288">
        <ele>69.8</ele>
        <time>2024-04-06T15:36:43Z</time>
      </trkpt>
      <trkpt lat="48.39133" lon="2.39282">
        <ele>69.2</ele>
        <time>2024-04-06T15:36:44Z</time>
      </trkpt>
      <trkpt lat="48.39135" lon="2.39278">
        <ele>68.4</ele>
        <time>2024-04-06T15:36:45Z</time>
      </trkpt>
      <trkpt lat="48.39139" lon="2.39276">
        <ele>67.6</ele>
        <time>2024-04-06T15:36:47Z</time>
      </trkpt>
      <trkpt lat="48.39142" lon="2.39276">
        <ele>67.4</ele>
        <time>2024-04-06T15:36:48Z</time>
      </trkpt>
      <trkpt lat="48.39156" lon="2.3928">
        <ele>66.8</ele>
        <time>2024-04-06T15:36:52Z</time>
      </trkpt>
      <trkpt lat="48.39164" lon="2.39288">
        <ele>66.6</ele>
        <time>2024-04-06T15:36:54Z</time>
      </trkpt>
      <trkpt lat="48.39173" lon="2.39298">
        <ele>66.6</ele>
        <time>2024-04-06T15:36:56Z</time>
      </trkpt>
      <trkpt lat="48.39177" lon="2.39304">
        <ele>66.6</ele>
        <time>2024-04-06T15:36:57Z</time>
      </trkpt>
      <trkpt lat="48.39187" lon="2.39324">
        <ele>66.6</ele>
        <time>2024-04-06T15:37:00Z</time>
      </trkpt>
      <trkpt lat="48.39196" lon="2.39346">
        <ele>66.6</ele>
        <time>2024-04-06T15:37:03Z</time>
      </trkpt>
      <trkpt lat="48.39206" lon="2.39368">
        <ele>66.6</ele>
        <time>2024-04-06T15:37:06Z</time>
      </trkpt>
      <trkpt lat="48.39215" lon="2.3939">
        <ele>66.6</ele>
        <time>2024-04-06T15:37:09Z</time>
      </trkpt>
      <trkpt lat="48.39233" lon="2.39434">
        <ele>66.6</ele>
        <time>2024-04-06T15:37:15Z</time>
      </trkpt>
      <trkpt lat="48.39252" lon="2.39477">
        <ele>66.8</ele>
        <time>2024-04-06T15:37:21Z</time>
      </trkpt>
      <trkpt lat="48.39264" lon="2.39502">
        <ele>66.8</ele>
        <time>2024-04-06T15:37:25Z</time>
      </trkpt>
      <trkpt lat="48.39267" lon="2.39508">
        <ele>66.8</ele>
        <time>2024-04-06T15:37:26Z</time>
      </trkpt>
      <trkpt lat="48.39287" lon="2.39529">
        <ele>67</ele>
        <time>2024-04-06T15:37:31Z</time>
      </trkpt>
      <trkpt lat="48.39298" lon="2.39528">
        <ele>67.4</ele>
        <time>2024-04-06T15:37:34Z</time>
      </trkpt>
      <trkpt lat="48.39303" lon="2.39524">
        <ele>67.4</ele>
        <time>2024-04-06T15:37:36Z</time>
      </trkpt>
      <trkpt lat="48.39305" lon="2.39512">
        <ele>67.6</ele>
        <time>2024-04-06T15:37:38Z</time>
      </trkpt>
      <trkpt lat="48.39298" lon="2.39482">
        <ele>67.6</ele>
        <time>2024-04-06T15:37:42Z</time>
      </trkpt>
      <trkpt lat="48.39296" lon="2.39475">
        <ele>67.6</ele>
        <time>2024-04-06T15:37:43Z</time>
      </trkpt>
      <trkpt lat="48.39285" lon="2.39435">
        <ele>66.6</ele>
        <time>2024-04-06T15:37:48Z</time>
      </trkpt>
      <trkpt lat="48.3928" lon="2.39418">
        <ele>66</ele>
        <time>2024-04-06T15:37:50Z</time>
      </trkpt>
      <trkpt lat="48.39267" lon="2.3937">
        <ele>65.2</ele>
        <time>2024-04-06T15:37:56Z</time>
      </trkpt>
      <trkpt lat="48.39258" lon="2.39318">
        <ele>65</ele>
        <time>2024-04-06T15:38:02Z</time>
      </trkpt>
      <trkpt lat="48.39257" lon="2.39309">
        <ele>65</ele>
        <time>2024-04-06T15:38:03Z</time>
      </trkpt>
      <trkpt lat="48.39251" lon="2.39254">
        <ele>64.8</ele>
        <time>2024-04-06T15:38:09Z</time>
      </trkpt>
      <trkpt lat="48.3925" lon="2.39244">
        <ele>64.8</ele>
        <time>2024-04-06T15:38:10Z</time>
      </trkpt>
      <trkpt lat="48.39252" lon="2.39218">
        <ele>64.8</ele>
        <time>2024-04-06T15:38:13Z</time>
      </trkpt>
      <trkpt lat="48.39252" lon="2.392">
        <ele>64.8</ele>
        <time>2024-04-06T15:38:15Z</time>
      </trkpt>
      <trkpt lat="48.39253" lon="2.39171">
        <ele>64.6</ele>
        <time>2024-04-06T15:38:18Z</time>
      </trkpt>
      <trkpt lat="48.39257" lon="2.39119">
        <ele>64.4</ele>
        <time>2024-04-06T15:38:24Z</time>
      </trkpt>
      <trkpt lat="48.3926" lon="2.39102">
        <ele>64.6</ele>
        <time>2024-04-06T15:38:26Z</time>
      </trkpt>
      <trkpt lat="48.39265" lon="2.39086">
        <ele>64.6</ele>
        <time>2024-04-06T15:38:28Z</time>
      </trkpt>
      <trkpt lat="48.39269" lon="2.39063">
        <ele>64.6</ele>
        <time>2024-04-06T15:38:31Z</time>
      </trkpt>
      <trkpt lat="48.39269" lon="2.39055">
        <ele>64.6</ele>
        <time>2024-04-06T15:38:32Z</time>
      </trkpt>
      <trkpt lat="48.39273" lon="2.39029">
        <ele>64.4</ele>
        <time>2024-04-06T15:38:35Z</time>
      </trkpt>
      <trkpt lat="48.39288" lon="2.3896">
        <ele>64.2</ele>
        <time>2024-04-06T15:38:43Z</time>
      </trkpt>
      <trkpt lat="48.39298" lon="2.38916">
        <ele>64.2</ele>
        <time>2024-04-06T15:38:48Z</time>
      </trkpt>
      <trkpt lat="48.393" lon="2.38907">
        <ele>64.2</ele>
        <time>2024-04-06T15:38:49Z</time>
      </trkpt>
      <trkpt lat="48.39312" lon="2.38854">
        <ele>63.8</ele>
        <time>2024-04-06T15:38:55Z</time>
      </trkpt>
      <trkpt lat="48.39325" lon="2.38794">
        <ele>63.6</ele>
        <time>2024-04-06T15:39:02Z</time>
      </trkpt>
      <trkpt lat="48.39334" lon="2.38732">
        <ele>63.6</ele>
        <time>2024-04-06T15:39:09Z</time>
      </trkpt>
      <trkpt lat="48.39345" lon="2.38681">
        <ele>63.6</ele>
        <time>2024-04-06T15:39:15Z</time>
      </trkpt>
      <trkpt lat="48.39368" lon="2.38604">
        <ele>64</ele>
        <time>2024-04-06T15:39:24Z</time>
      </trkpt>
      <trkpt lat="48.3937" lon="2.38595">
        <ele>64</ele>
        <time>2024-04-06T15:39:25Z</time>
      </trkpt>
      <trkpt lat="48.39385" lon="2.38544">
        <ele>63.8</ele>
        <time>2024-04-06T15:39:31Z</time>
      </trkpt>
      <trkpt lat="48.39393" lon="2.38529">
        <ele>63.8</ele>
        <time>2024-04-06T15:39:33Z</time>
      </trkpt>
      <trkpt lat="48.39406" lon="2.38499">
        <ele>63.8</ele>
        <time>2024-04-06T15:39:37Z</time>
      </trkpt>
      <trkpt lat="48.39426" lon="2.38448">
        <ele>63.6</ele>
        <time>2024-04-06T15:39:44Z</time>
      </trkpt>
      <trkpt lat="48.39429" lon="2.3844">
        <ele>63.6</ele>
        <time>2024-04-06T15:39:45Z</time>
      </trkpt>
      <trkpt lat="48.39433" lon="2.38406">
        <ele>63.8</ele>
        <time>2024-04-06T15:39:49Z</time>
      </trkpt>
      <trkpt lat="48.39436" lon="2.38352">
        <ele>63.8</ele>
        <time>2024-04-06T15:39:55Z</time>
      </trkpt>
      <trkpt lat="48.39438" lon="2.38299">
        <ele>63.8</ele>
        <time>2024-04-06T15:40:01Z</time>
      </trkpt>
      <trkpt lat="48.39438" lon="2.38289">
        <ele>63.8</ele>
        <time>2024-04-06T15:40:02Z</time>
      </trkpt>
      <trkpt lat="48.39434" lon="2.38202">
        <ele>63.4</ele>
        <time>2024-04-06T15:40:11Z</time>
      </trkpt>
      <trkpt lat="48.39428" lon="2.38134">
        <ele>63.2</ele>
        <time>2024-04-06T15:40:19Z</time>
      </trkpt>
      <trkpt lat="48.39421" lon="2.38092">
        <ele>63.4</ele>
        <time>2024-04-06T15:40:25Z</time>
      </trkpt>
      <trkpt lat="48.39419" lon="2.38088">
        <ele>63.6</ele>
        <time>2024-04-06T15:40:26Z</time>
      </trkpt>
      <trkpt lat="48.39416" lon="2.38088">
        <ele>63.8</ele>
        <time>2024-04-06T15:40:28Z</time>
      </trkpt>
      <trkpt lat="48.39414" lon="2.38089">
        <ele>64</ele>
        <time>2024-04-06T15:40:30Z</time>
      </trkpt>
      <trkpt lat="48.39411" lon="2.38086">
        <ele>64.4</ele>
        <time>2024-04-06T15:40:32Z</time>
      </trkpt>
      <trkpt lat="48.39405" lon="2.38069">
        <ele>65.2</ele>
        <time>2024-04-06T15:40:36Z</time>
      </trkpt>
      <trkpt lat="48.39397" lon="2.38064">
        <ele>65.6</ele>
        <time>2024-04-06T15:40:38Z</time>
      </trkpt>
      <trkpt lat="48.39389" lon="2.38058">
        <ele>65.6</ele>
        <time>2024-04-06T15:40:40Z</time>
      </trkpt>
      <trkpt lat="48.39363" lon="2.38039">
        <ele>65.6</ele>
        <time>2024-04-06T15:40:46Z</time>
      </trkpt>
      <trkpt lat="48.3933" lon="2.38011">
        <ele>65.4</ele>
        <time>2024-04-06T15:40:53Z</time>
      </trkpt>
      <trkpt lat="48.39319" lon="2.38001">
        <ele>65.6</ele>
        <time>2024-04-06T15:40:57Z</time>
      </trkpt>
      <trkpt lat="48.39317" lon="2.38003">
        <ele>65.8</ele>
        <time>2024-04-06T15:41:02Z</time>
      </trkpt>
      <trkpt lat="48.39315" lon="2.38001">
        <ele>66.6</ele>
        <time>2024-04-06T15:41:05Z</time>
      </trkpt>
      <trkpt lat="48.39314" lon="2.37998">
        <ele>67</ele>
        <time>2024-04-06T15:41:06Z</time>
      </trkpt>
      <trkpt lat="48.39314" lon="2.37994">
        <ele>67.2</ele>
        <time>2024-04-06T15:41:07Z</time>
      </trkpt>
      <trkpt lat="48.39315" lon="2.37968">
        <ele>67.4</ele>
        <time>2024-04-06T15:41:11Z</time>
      </trkpt>
      <trkpt lat="48.39321" lon="2.37906">
        <ele>66.6</ele>
        <time>2024-04-06T15:41:19Z</time>
      </trkpt>
      <trkpt lat="48.39328" lon="2.37855">
        <ele>66.4</ele>
        <time>2024-04-06T15:41:27Z</time>
      </trkpt>
      <trkpt lat="48.39318" lon="2.37849">
        <ele>67</ele>
        <time>2024-04-06T15:41:30Z</time>
      </trkpt>
      <trkpt lat="48.39312" lon="2.37848">
        <ele>67.2</ele>
        <time>2024-04-06T15:41:31Z</time>
      </trkpt>
      <trkpt lat="48.39289" lon="2.37844">
        <ele>67.2</ele>
        <time>2024-04-06T15:41:35Z</time>
      </trkpt>
      <trkpt lat="48.39264" lon="2.37842">
        <ele>67.2</ele>
        <time>2024-04-06T15:41:40Z</time>
      </trkpt>
      <trkpt lat="48.39233" lon="2.37842">
        <ele>67</ele>
        <time>2024-04-06T15:41:46Z</time>
      </trkpt>
      <trkpt lat="48.39178" lon="2.37842">
        <ele>65.8</ele>
        <time>2024-04-06T15:41:55Z</time>
      </trkpt>
      <trkpt lat="48.39173" lon="2.37842">
        <ele>65.8</ele>
        <time>2024-04-06T15:41:56Z</time>
      </trkpt>
      <trkpt lat="48.39138" lon="2.37843">
        <ele>65.8</ele>
        <time>2024-04-06T15:42:03Z</time>
      </trkpt>
      <trkpt lat="48.39117" lon="2.37846">
        <ele>67.2</ele>
        <time>2024-04-06T15:42:08Z</time>
      </trkpt>
      <trkpt lat="48.39115" lon="2.3785">
        <ele>67.4</ele>
        <time>2024-04-06T15:42:09Z</time>
      </trkpt>
      <trkpt lat="48.39112" lon="2.37855">
        <ele>67.8</ele>
        <time>2024-04-06T15:42:10Z</time>
      </trkpt>
      <trkpt lat="48.39095" lon="2.37878">
        <ele>69</ele>
        <time>2024-04-06T15:42:15Z</time>
      </trkpt>
      <trkpt lat="48.39066" lon="2.37905">
        <ele>69.4</ele>
        <time>2024-04-06T15:42:21Z</time>
      </trkpt>
      <trkpt lat="48.39031" lon="2.37931">
        <ele>69.6</ele>
        <time>2024-04-06T15:42:27Z</time>
      </trkpt>
      <trkpt lat="48.38994" lon="2.37955">
        <ele>68.4</ele>
        <time>2024-04-06T15:42:33Z</time>
      </trkpt>
      <trkpt lat="48.38983" lon="2.37959">
        <ele>68</ele>
        <time>2024-04-06T15:42:35Z</time>
      </trkpt>
      <trkpt lat="48.38972" lon="2.37961">
        <ele>67.6</ele>
        <time>2024-04-06T15:42:37Z</time>
      </trkpt>
      <trkpt lat="48.38966" lon="2.3796">
        <ele>67.4</ele>
        <time>2024-04-06T15:42:38Z</time>
      </trkpt>
      <trkpt lat="48.38954" lon="2.37956">
        <ele>66.8</ele>
        <time>2024-04-06T15:42:40Z</time>
      </trkpt>
      <trkpt lat="48.3893" lon="2.37947">
        <ele>66.4</ele>
        <time>2024-04-06T15:42:44Z</time>
      </trkpt>
      <trkpt lat="48.38924" lon="2.37942">
        <ele>66</ele>
        <time>2024-04-06T15:42:45Z</time>
      </trkpt>
      <trkpt lat="48.38908" lon="2.37926">
        <ele>65.8</ele>
        <time>2024-04-06T15:42:48Z</time>
      </trkpt>
      <trkpt lat="48.38903" lon="2.37921">
        <ele>65.6</ele>
        <time>2024-04-06T15:42:49Z</time>
      </trkpt>
      <trkpt lat="48.3887" lon="2.3788">
        <ele>65.2</ele>
        <time>2024-04-06T15:42:56Z</time>
      </trkpt>
      <trkpt lat="48.38855" lon="2.37865">
        <ele>65.6</ele>
        <time>2024-04-06T15:42:59Z</time>
      </trkpt>
      <trkpt lat="48.38843" lon="2.3786">
        <ele>65.6</ele>
        <time>2024-04-06T15:43:01Z</time>
      </trkpt>
      <trkpt lat="48.38795" lon="2.37851">
        <ele>65.6</ele>
        <time>2024-04-06T15:43:09Z</time>
      </trkpt>
      <trkpt lat="48.38776" lon="2.37849">
        <ele>65.6</ele>
        <time>2024-04-06T15:43:12Z</time>
      </trkpt>
      <trkpt lat="48.38758" lon="2.37852">
        <ele>65.2</ele>
        <time>2024-04-06T15:43:15Z</time>
      </trkpt>
      <trkpt lat="48.3871" lon="2.37862">
        <ele>65</ele>
        <time>2024-04-06T15:43:23Z</time>
      </trkpt>
      <trkpt lat="48.38705" lon="2.37864">
        <ele>65</ele>
        <time>2024-04-06T15:43:24Z</time>
      </trkpt>
      <trkpt lat="48.38678" lon="2.37871">
        <ele>65.2</ele>
        <time>2024-04-06T15:43:30Z</time>
      </trkpt>
      <trkpt lat="48.38646" lon="2.37878">
        <ele>66</ele>
        <time>2024-04-06T15:43:37Z</time>
      </trkpt>
      <trkpt lat="48.38611" lon="2.37881">
        <ele>66.2</ele>
        <time>2024-04-06T15:43:44Z</time>
      </trkpt>
      <trkpt lat="48.38581" lon="2.37879">
        <ele>66.4</ele>
        <time>2024-04-06T15:43:50Z</time>
      </trkpt>
      <trkpt lat="48.38576" lon="2.37878">
        <ele>66.4</ele>
        <time>2024-04-06T15:43:51Z</time>
      </trkpt>
      <trkpt lat="48.38566" lon="2.37878">
        <ele>66.4</ele>
        <time>2024-04-06T15:43:53Z</time>
      </trkpt>
      <trkpt lat="48.38551" lon="2.37877">
        <ele>66.4</ele>
        <time>2024-04-06T15:43:56Z</time>
      </trkpt>
      <trkpt lat="48.38517" lon="2.37876">
        <ele>66.6</ele>
        <time>2024-04-06T15:44:02Z</time>
      </trkpt>
      <trkpt lat="48.38476" lon="2.37877">
        <ele>66.6</ele>
        <time>2024-04-06T15:44:09Z</time>
      </trkpt>
      <trkpt lat="48.38444" lon="2.37874">
        <ele>66</ele>
        <time>2024-04-06T15:44:15Z</time>
      </trkpt>
      <trkpt lat="48.38422" lon="2.37873">
        <ele>66</ele>
        <time>2024-04-06T15:44:19Z</time>
      </trkpt>
      <trkpt lat="48.38404" lon="2.37869">
        <ele>66</ele>
        <time>2024-04-06T15:44:22Z</time>
      </trkpt>
      <trkpt lat="48.38368" lon="2.37862">
        <ele>66.2</ele>
        <time>2024-04-06T15:44:28Z</time>
      </trkpt>
      <trkpt lat="48.38334" lon="2.37856">
        <ele>66.2</ele>
        <time>2024-04-06T15:44:34Z</time>
      </trkpt>
      <trkpt lat="48.38288" lon="2.37848">
        <ele>66</ele>
        <time>2024-04-06T15:44:42Z</time>
      </trkpt>
      <trkpt lat="48.38278" lon="2.37849">
        <ele>66</ele>
        <time>2024-04-06T15:44:44Z</time>
      </trkpt>
      <trkpt lat="48.38271" lon="2.37856">
        <ele>66</ele>
        <time>2024-04-06T15:44:46Z</time>
      </trkpt>
      <trkpt lat="48.3827" lon="2.37861">
        <ele>66</ele>
        <time>2024-04-06T15:44:47Z</time>
      </trkpt>
    </trkseg>
  </trk>
</gpx>